<?xml version="1.0" encoding="UTF-8" standalone="no" ?>
<gpx xmlns="http://www.topografix.com/GPX/1/1" xmlns:xsi="http://www.w3.org/2001/XMLSchema-instance" xsi:schemaLocation="http://www.topografix.com/GPX/1/1 http://www.topografix.com/GPX/1/1/gpx.xsd" version="1.1" creator="VisuGPX - https://www.visugpx.com">
  <metadata>
    <name>83 - Massif des Maures : 2022-01-01</name>
  </metadata>
  <trk>
    <name><![CDATA[01/01/2022 10:26]]></name>
    <trkseg>
      <trkpt lat="43.25415" lon="6.40768">
        <ele>339.80334472656</ele>
        <time>2022-01-01T09:26:05Z</time>
      </trkpt>
      <trkpt lat="43.25422" lon="6.40759">
        <ele>343.37786865234</ele>
        <time>2022-01-01T09:27:22Z</time>
      </trkpt>
      <trkpt lat="43.25432" lon="6.40755">
        <ele>343.32458496094</ele>
        <time>2022-01-01T09:27:26Z</time>
      </trkpt>
      <trkpt lat="43.25442" lon="6.40753">
        <ele>340.89785766602</ele>
        <time>2022-01-01T09:27:30Z</time>
      </trkpt>
      <trkpt lat="43.25456" lon="6.40751">
        <ele>340.86761474609</ele>
        <time>2022-01-01T09:27:34Z</time>
      </trkpt>
      <trkpt lat="43.25488" lon="6.40746">
        <ele>340.58944702148</ele>
        <time>2022-01-01T09:27:40Z</time>
      </trkpt>
      <trkpt lat="43.25511" lon="6.40746">
        <ele>345.99392700195</ele>
        <time>2022-01-01T09:27:44Z</time>
      </trkpt>
      <trkpt lat="43.2553" lon="6.40758">
        <ele>345.76571655273</ele>
        <time>2022-01-01T09:27:48Z</time>
      </trkpt>
      <trkpt lat="43.25539" lon="6.40786">
        <ele>345.57836914062</ele>
        <time>2022-01-01T09:27:52Z</time>
      </trkpt>
      <trkpt lat="43.25535" lon="6.40807">
        <ele>342.83657836914</ele>
        <time>2022-01-01T09:27:56Z</time>
      </trkpt>
      <trkpt lat="43.25553" lon="6.40858">
        <ele>342.56033325195</ele>
        <time>2022-01-01T09:28:02Z</time>
      </trkpt>
      <trkpt lat="43.25574" lon="6.40879">
        <ele>342.48251342773</ele>
        <time>2022-01-01T09:28:06Z</time>
      </trkpt>
      <trkpt lat="43.25599" lon="6.40873">
        <ele>335.96716308594</ele>
        <time>2022-01-01T09:28:10Z</time>
      </trkpt>
      <trkpt lat="43.25619" lon="6.40868">
        <ele>335.78363037109</ele>
        <time>2022-01-01T09:28:14Z</time>
      </trkpt>
      <trkpt lat="43.25652" lon="6.40867">
        <ele>335.59002685547</ele>
        <time>2022-01-01T09:28:20Z</time>
      </trkpt>
      <trkpt lat="43.25669" lon="6.40893">
        <ele>341.46966552734</ele>
        <time>2022-01-01T09:28:24Z</time>
      </trkpt>
      <trkpt lat="43.25675" lon="6.40923">
        <ele>341.19155883789</ele>
        <time>2022-01-01T09:28:28Z</time>
      </trkpt>
      <trkpt lat="43.25675" lon="6.4096">
        <ele>341.03491210938</ele>
        <time>2022-01-01T09:28:34Z</time>
      </trkpt>
      <trkpt lat="43.25687" lon="6.40963">
        <ele>336.03756713867</ele>
        <time>2022-01-01T09:28:40Z</time>
      </trkpt>
      <trkpt lat="43.25697" lon="6.40968">
        <ele>336.33206176758</ele>
        <time>2022-01-01T09:28:46Z</time>
      </trkpt>
      <trkpt lat="43.25704" lon="6.4098">
        <ele>338.25219726562</ele>
        <time>2022-01-01T09:28:54Z</time>
      </trkpt>
      <trkpt lat="43.25714" lon="6.40996">
        <ele>338.94421386719</ele>
        <time>2022-01-01T09:29:04Z</time>
      </trkpt>
      <trkpt lat="43.25723" lon="6.41008">
        <ele>339.23583984375</ele>
        <time>2022-01-01T09:29:10Z</time>
      </trkpt>
      <trkpt lat="43.25738" lon="6.41015">
        <ele>338.52563476562</ele>
        <time>2022-01-01T09:29:18Z</time>
      </trkpt>
      <trkpt lat="43.25749" lon="6.41019">
        <ele>338.5270690918</ele>
        <time>2022-01-01T09:29:22Z</time>
      </trkpt>
      <trkpt lat="43.25768" lon="6.41035">
        <ele>342.54370117188</ele>
        <time>2022-01-01T09:29:32Z</time>
      </trkpt>
      <trkpt lat="43.25777" lon="6.41045">
        <ele>336.61108398438</ele>
        <time>2022-01-01T09:29:40Z</time>
      </trkpt>
      <trkpt lat="43.25779" lon="6.41066">
        <ele>336.73693847656</ele>
        <time>2022-01-01T09:29:48Z</time>
      </trkpt>
      <trkpt lat="43.25777" lon="6.41087">
        <ele>342.23587036133</ele>
        <time>2022-01-01T09:29:56Z</time>
      </trkpt>
      <trkpt lat="43.25774" lon="6.41105">
        <ele>342.36798095703</ele>
        <time>2022-01-01T09:30:02Z</time>
      </trkpt>
      <trkpt lat="43.25773" lon="6.41117">
        <ele>339.28997802734</ele>
        <time>2022-01-01T09:30:06Z</time>
      </trkpt>
      <trkpt lat="43.25773" lon="6.4113">
        <ele>339.34716796875</ele>
        <time>2022-01-01T09:30:10Z</time>
      </trkpt>
      <trkpt lat="43.25773" lon="6.41151">
        <ele>339.38366699219</ele>
        <time>2022-01-01T09:30:16Z</time>
      </trkpt>
      <trkpt lat="43.25777" lon="6.4117">
        <ele>343.15994262695</ele>
        <time>2022-01-01T09:30:22Z</time>
      </trkpt>
      <trkpt lat="43.25785" lon="6.41188">
        <ele>343.18301391602</ele>
        <time>2022-01-01T09:30:28Z</time>
      </trkpt>
      <trkpt lat="43.25795" lon="6.41205">
        <ele>340.04400634766</ele>
        <time>2022-01-01T09:30:34Z</time>
      </trkpt>
      <trkpt lat="43.258" lon="6.41218">
        <ele>340.19006347656</ele>
        <time>2022-01-01T09:30:38Z</time>
      </trkpt>
      <trkpt lat="43.25803" lon="6.41231">
        <ele>349.67041015625</ele>
        <time>2022-01-01T09:30:46Z</time>
      </trkpt>
      <trkpt lat="43.25812" lon="6.41236">
        <ele>349.70550537109</ele>
        <time>2022-01-01T09:30:52Z</time>
      </trkpt>
      <trkpt lat="43.25813" lon="6.41222">
        <ele>356.5910949707</ele>
        <time>2022-01-01T09:31:00Z</time>
      </trkpt>
      <trkpt lat="43.25811" lon="6.41202">
        <ele>345.61630249023</ele>
        <time>2022-01-01T09:31:10Z</time>
      </trkpt>
      <trkpt lat="43.25807" lon="6.41185">
        <ele>345.7522277832</ele>
        <time>2022-01-01T09:31:18Z</time>
      </trkpt>
      <trkpt lat="43.25798" lon="6.41163">
        <ele>340.66848754883</ele>
        <time>2022-01-01T09:31:28Z</time>
      </trkpt>
      <trkpt lat="43.25799" lon="6.41137">
        <ele>349.20034790039</ele>
        <time>2022-01-01T09:31:36Z</time>
      </trkpt>
      <trkpt lat="43.25799" lon="6.41116">
        <ele>349.33392333984</ele>
        <time>2022-01-01T09:31:44Z</time>
      </trkpt>
      <trkpt lat="43.25806" lon="6.41103">
        <ele>350.26065063477</ele>
        <time>2022-01-01T09:31:52Z</time>
      </trkpt>
      <trkpt lat="43.25812" lon="6.41089">
        <ele>350.35195922852</ele>
        <time>2022-01-01T09:31:56Z</time>
      </trkpt>
      <trkpt lat="43.25816" lon="6.41073">
        <ele>353.68377685547</ele>
        <time>2022-01-01T09:32:00Z</time>
      </trkpt>
      <trkpt lat="43.25818" lon="6.4106">
        <ele>353.90908813477</ele>
        <time>2022-01-01T09:32:04Z</time>
      </trkpt>
      <trkpt lat="43.25819" lon="6.4104">
        <ele>356.45394897461</ele>
        <time>2022-01-01T09:32:12Z</time>
      </trkpt>
      <trkpt lat="43.2581" lon="6.41011">
        <ele>356.73400878906</ele>
        <time>2022-01-01T09:32:22Z</time>
      </trkpt>
      <trkpt lat="43.25804" lon="6.40999">
        <ele>354.00650024414</ele>
        <time>2022-01-01T09:32:26Z</time>
      </trkpt>
      <trkpt lat="43.25792" lon="6.40972">
        <ele>354.15686035156</ele>
        <time>2022-01-01T09:32:34Z</time>
      </trkpt>
      <trkpt lat="43.25789" lon="6.4095">
        <ele>356.6442565918</ele>
        <time>2022-01-01T09:32:42Z</time>
      </trkpt>
      <trkpt lat="43.25791" lon="6.40931">
        <ele>362.10003662109</ele>
        <time>2022-01-01T09:32:50Z</time>
      </trkpt>
      <trkpt lat="43.2579" lon="6.40917">
        <ele>362.33639526367</ele>
        <time>2022-01-01T09:32:58Z</time>
      </trkpt>
      <trkpt lat="43.25791" lon="6.40901">
        <ele>370.00827026367</ele>
        <time>2022-01-01T09:33:06Z</time>
      </trkpt>
      <trkpt lat="43.25803" lon="6.4091">
        <ele>375.77450561523</ele>
        <time>2022-01-01T09:33:16Z</time>
      </trkpt>
      <trkpt lat="43.25809" lon="6.40923">
        <ele>375.93545532227</ele>
        <time>2022-01-01T09:33:22Z</time>
      </trkpt>
      <trkpt lat="43.2582" lon="6.4095">
        <ele>373.55169677734</ele>
        <time>2022-01-01T09:33:32Z</time>
      </trkpt>
      <trkpt lat="43.25827" lon="6.40971">
        <ele>378.48785400391</ele>
        <time>2022-01-01T09:33:40Z</time>
      </trkpt>
      <trkpt lat="43.25831" lon="6.40982">
        <ele>378.57482910156</ele>
        <time>2022-01-01T09:33:44Z</time>
      </trkpt>
      <trkpt lat="43.25837" lon="6.41004">
        <ele>378.61566162109</ele>
        <time>2022-01-01T09:33:50Z</time>
      </trkpt>
      <trkpt lat="43.25842" lon="6.41022">
        <ele>377.95614624023</ele>
        <time>2022-01-01T09:33:58Z</time>
      </trkpt>
      <trkpt lat="43.25846" lon="6.41036">
        <ele>378.07049560547</ele>
        <time>2022-01-01T09:34:02Z</time>
      </trkpt>
      <trkpt lat="43.25845" lon="6.4105">
        <ele>378.84002685547</ele>
        <time>2022-01-01T09:34:06Z</time>
      </trkpt>
      <trkpt lat="43.25845" lon="6.41074">
        <ele>379.02737426758</ele>
        <time>2022-01-01T09:34:14Z</time>
      </trkpt>
      <trkpt lat="43.25845" lon="6.41096">
        <ele>376.14086914062</ele>
        <time>2022-01-01T09:34:20Z</time>
      </trkpt>
      <trkpt lat="43.25843" lon="6.41117">
        <ele>376.24993896484</ele>
        <time>2022-01-01T09:34:28Z</time>
      </trkpt>
      <trkpt lat="43.25847" lon="6.4113">
        <ele>388.63778686523</ele>
        <time>2022-01-01T09:34:32Z</time>
      </trkpt>
      <trkpt lat="43.2585" lon="6.41142">
        <ele>388.73629760742</ele>
        <time>2022-01-01T09:34:36Z</time>
      </trkpt>
      <trkpt lat="43.25858" lon="6.41165">
        <ele>377.39431762695</ele>
        <time>2022-01-01T09:34:46Z</time>
      </trkpt>
      <trkpt lat="43.25866" lon="6.41176">
        <ele>377.44958496094</ele>
        <time>2022-01-01T09:34:52Z</time>
      </trkpt>
      <trkpt lat="43.25874" lon="6.41189">
        <ele>379.78259277344</ele>
        <time>2022-01-01T09:34:58Z</time>
      </trkpt>
      <trkpt lat="43.25884" lon="6.41204">
        <ele>379.85467529297</ele>
        <time>2022-01-01T09:35:04Z</time>
      </trkpt>
      <trkpt lat="43.25899" lon="6.41222">
        <ele>378.71502685547</ele>
        <time>2022-01-01T09:35:12Z</time>
      </trkpt>
      <trkpt lat="43.25905" lon="6.41232">
        <ele>378.78948974609</ele>
        <time>2022-01-01T09:35:16Z</time>
      </trkpt>
      <trkpt lat="43.25913" lon="6.41245">
        <ele>378.86779785156</ele>
        <time>2022-01-01T09:35:20Z</time>
      </trkpt>
      <trkpt lat="43.25922" lon="6.41257">
        <ele>383.51913452148</ele>
        <time>2022-01-01T09:35:26Z</time>
      </trkpt>
      <trkpt lat="43.2593" lon="6.41266">
        <ele>383.61712646484</ele>
        <time>2022-01-01T09:35:30Z</time>
      </trkpt>
      <trkpt lat="43.25937" lon="6.41277">
        <ele>383.66516113281</ele>
        <time>2022-01-01T09:35:34Z</time>
      </trkpt>
      <trkpt lat="43.25947" lon="6.41297">
        <ele>385.19445800781</ele>
        <time>2022-01-01T09:35:42Z</time>
      </trkpt>
      <trkpt lat="43.25956" lon="6.41317">
        <ele>389.64932250977</ele>
        <time>2022-01-01T09:35:50Z</time>
      </trkpt>
      <trkpt lat="43.25963" lon="6.41327">
        <ele>389.79296875</ele>
        <time>2022-01-01T09:36:00Z</time>
      </trkpt>
      <trkpt lat="43.25972" lon="6.41328">
        <ele>383.80868530273</ele>
        <time>2022-01-01T09:36:12Z</time>
      </trkpt>
      <trkpt lat="43.25982" lon="6.41336">
        <ele>386.67666625977</ele>
        <time>2022-01-01T09:39:16Z</time>
      </trkpt>
      <trkpt lat="43.25992" lon="6.41343">
        <ele>387.12564086914</ele>
        <time>2022-01-01T09:39:20Z</time>
      </trkpt>
      <trkpt lat="43.26002" lon="6.41348">
        <ele>387.13522338867</ele>
        <time>2022-01-01T09:39:24Z</time>
      </trkpt>
      <trkpt lat="43.26015" lon="6.4136">
        <ele>387.22793579102</ele>
        <time>2022-01-01T09:39:30Z</time>
      </trkpt>
      <trkpt lat="43.26031" lon="6.41386">
        <ele>388.88433837891</ele>
        <time>2022-01-01T09:39:38Z</time>
      </trkpt>
      <trkpt lat="43.2604" lon="6.41396">
        <ele>388.93048095703</ele>
        <time>2022-01-01T09:39:42Z</time>
      </trkpt>
      <trkpt lat="43.2605" lon="6.41407">
        <ele>390.10717773438</ele>
        <time>2022-01-01T09:39:46Z</time>
      </trkpt>
      <trkpt lat="43.2606" lon="6.41421">
        <ele>390.12155151367</ele>
        <time>2022-01-01T09:39:50Z</time>
      </trkpt>
      <trkpt lat="43.26075" lon="6.41435">
        <ele>390.17248535156</ele>
        <time>2022-01-01T09:39:56Z</time>
      </trkpt>
      <trkpt lat="43.26086" lon="6.41449">
        <ele>389.19354248047</ele>
        <time>2022-01-01T09:40:00Z</time>
      </trkpt>
      <trkpt lat="43.26097" lon="6.41466">
        <ele>389.25024414062</ele>
        <time>2022-01-01T09:40:04Z</time>
      </trkpt>
      <trkpt lat="43.26107" lon="6.41484">
        <ele>389.18298339844</ele>
        <time>2022-01-01T09:40:08Z</time>
      </trkpt>
      <trkpt lat="43.26113" lon="6.41502">
        <ele>384.08081054688</ele>
        <time>2022-01-01T09:40:12Z</time>
      </trkpt>
      <trkpt lat="43.26119" lon="6.41529">
        <ele>384.10388183594</ele>
        <time>2022-01-01T09:40:18Z</time>
      </trkpt>
      <trkpt lat="43.26121" lon="6.41545">
        <ele>384.24127197266</ele>
        <time>2022-01-01T09:40:22Z</time>
      </trkpt>
      <trkpt lat="43.26124" lon="6.41566">
        <ele>382.12777709961</ele>
        <time>2022-01-01T09:40:26Z</time>
      </trkpt>
      <trkpt lat="43.26127" lon="6.4158">
        <ele>382.17340087891</ele>
        <time>2022-01-01T09:40:30Z</time>
      </trkpt>
      <trkpt lat="43.26131" lon="6.41594">
        <ele>382.23440551758</ele>
        <time>2022-01-01T09:40:34Z</time>
      </trkpt>
      <trkpt lat="43.26135" lon="6.41608">
        <ele>387.06204223633</ele>
        <time>2022-01-01T09:40:38Z</time>
      </trkpt>
      <trkpt lat="43.26143" lon="6.41626">
        <ele>387.25323486328</ele>
        <time>2022-01-01T09:40:44Z</time>
      </trkpt>
      <trkpt lat="43.26149" lon="6.41635">
        <ele>387.39401245117</ele>
        <time>2022-01-01T09:40:48Z</time>
      </trkpt>
      <trkpt lat="43.26153" lon="6.41646">
        <ele>389.23770141602</ele>
        <time>2022-01-01T09:40:52Z</time>
      </trkpt>
      <trkpt lat="43.26161" lon="6.41666">
        <ele>389.42028808594</ele>
        <time>2022-01-01T09:41:00Z</time>
      </trkpt>
      <trkpt lat="43.26167" lon="6.41677">
        <ele>395.78720092773</ele>
        <time>2022-01-01T09:41:04Z</time>
      </trkpt>
      <trkpt lat="43.26177" lon="6.41687">
        <ele>395.82080078125</ele>
        <time>2022-01-01T09:41:08Z</time>
      </trkpt>
      <trkpt lat="43.26188" lon="6.41694">
        <ele>395.77996826172</ele>
        <time>2022-01-01T09:41:12Z</time>
      </trkpt>
      <trkpt lat="43.262" lon="6.41695">
        <ele>395.81533813477</ele>
        <time>2022-01-01T09:41:16Z</time>
      </trkpt>
      <trkpt lat="43.2621" lon="6.41698">
        <ele>395.75387573242</ele>
        <time>2022-01-01T09:41:20Z</time>
      </trkpt>
      <trkpt lat="43.26219" lon="6.41697">
        <ele>395.68661499023</ele>
        <time>2022-01-01T09:41:26Z</time>
      </trkpt>
      <trkpt lat="43.26235" lon="6.41697">
        <ele>386.68865966797</ele>
        <time>2022-01-01T09:41:36Z</time>
      </trkpt>
      <trkpt lat="43.26247" lon="6.41702">
        <ele>379.56149291992</ele>
        <time>2022-01-01T09:41:44Z</time>
      </trkpt>
      <trkpt lat="43.26274" lon="6.41721">
        <ele>391.35372924805</ele>
        <time>2022-01-01T09:41:54Z</time>
      </trkpt>
      <trkpt lat="43.26288" lon="6.41735">
        <ele>390.91702270508</ele>
        <time>2022-01-01T09:41:58Z</time>
      </trkpt>
      <trkpt lat="43.26308" lon="6.41733">
        <ele>390.77145385742</ele>
        <time>2022-01-01T09:42:02Z</time>
      </trkpt>
      <trkpt lat="43.26318" lon="6.41737">
        <ele>380.94332885742</ele>
        <time>2022-01-01T09:42:06Z</time>
      </trkpt>
      <trkpt lat="43.26337" lon="6.41757">
        <ele>380.67236328125</ele>
        <time>2022-01-01T09:42:12Z</time>
      </trkpt>
      <trkpt lat="43.26349" lon="6.41765">
        <ele>380.5666809082</ele>
        <time>2022-01-01T09:42:16Z</time>
      </trkpt>
      <trkpt lat="43.26373" lon="6.41782">
        <ele>379.41491699219</ele>
        <time>2022-01-01T09:42:20Z</time>
      </trkpt>
      <trkpt lat="43.26395" lon="6.41789">
        <ele>379.28713989258</ele>
        <time>2022-01-01T09:42:24Z</time>
      </trkpt>
      <trkpt lat="43.2642" lon="6.41806">
        <ele>379.08966064453</ele>
        <time>2022-01-01T09:42:28Z</time>
      </trkpt>
      <trkpt lat="43.26469" lon="6.41823">
        <ele>380.37411499023</ele>
        <time>2022-01-01T09:42:34Z</time>
      </trkpt>
      <trkpt lat="43.26493" lon="6.41815">
        <ele>380.23333740234</ele>
        <time>2022-01-01T09:42:38Z</time>
      </trkpt>
      <trkpt lat="43.26514" lon="6.41807">
        <ele>379.64916992188</ele>
        <time>2022-01-01T09:42:42Z</time>
      </trkpt>
      <trkpt lat="43.2653" lon="6.41791">
        <ele>378.16983032227</ele>
        <time>2022-01-01T09:42:46Z</time>
      </trkpt>
      <trkpt lat="43.26548" lon="6.41767">
        <ele>377.91619873047</ele>
        <time>2022-01-01T09:42:50Z</time>
      </trkpt>
      <trkpt lat="43.2656" lon="6.41744">
        <ele>377.6701965332</ele>
        <time>2022-01-01T09:42:54Z</time>
      </trkpt>
      <trkpt lat="43.26567" lon="6.41705">
        <ele>368.58840942383</ele>
        <time>2022-01-01T09:43:00Z</time>
      </trkpt>
      <trkpt lat="43.26566" lon="6.41693">
        <ele>357.86138916016</ele>
        <time>2022-01-01T09:43:26Z</time>
      </trkpt>
      <trkpt lat="43.26566" lon="6.4168">
        <ele>357.85516357422</ele>
        <time>2022-01-01T09:43:30Z</time>
      </trkpt>
      <trkpt lat="43.26571" lon="6.41653">
        <ele>360.47955322266</ele>
        <time>2022-01-01T09:43:36Z</time>
      </trkpt>
      <trkpt lat="43.26576" lon="6.41634">
        <ele>360.32965087891</ele>
        <time>2022-01-01T09:43:40Z</time>
      </trkpt>
      <trkpt lat="43.26583" lon="6.41605">
        <ele>359.75604248047</ele>
        <time>2022-01-01T09:43:44Z</time>
      </trkpt>
      <trkpt lat="43.26595" lon="6.41576">
        <ele>366.58920288086</ele>
        <time>2022-01-01T09:43:48Z</time>
      </trkpt>
      <trkpt lat="43.26604" lon="6.41548">
        <ele>366.20486450195</ele>
        <time>2022-01-01T09:43:52Z</time>
      </trkpt>
      <trkpt lat="43.2661" lon="6.41519">
        <ele>366.07180786133</ele>
        <time>2022-01-01T09:43:56Z</time>
      </trkpt>
      <trkpt lat="43.26616" lon="6.41477">
        <ele>355.07287597656</ele>
        <time>2022-01-01T09:44:00Z</time>
      </trkpt>
      <trkpt lat="43.26624" lon="6.41446">
        <ele>355.07620239258</ele>
        <time>2022-01-01T09:44:04Z</time>
      </trkpt>
      <trkpt lat="43.26626" lon="6.4142">
        <ele>354.95709228516</ele>
        <time>2022-01-01T09:44:08Z</time>
      </trkpt>
      <trkpt lat="43.26623" lon="6.41397">
        <ele>350.59478759766</ele>
        <time>2022-01-01T09:44:12Z</time>
      </trkpt>
      <trkpt lat="43.26623" lon="6.41371">
        <ele>350.65481567383</ele>
        <time>2022-01-01T09:44:18Z</time>
      </trkpt>
      <trkpt lat="43.26625" lon="6.41351">
        <ele>350.45065307617</ele>
        <time>2022-01-01T09:44:22Z</time>
      </trkpt>
      <trkpt lat="43.26627" lon="6.41336">
        <ele>349.56268310547</ele>
        <time>2022-01-01T09:44:26Z</time>
      </trkpt>
      <trkpt lat="43.2663" lon="6.41306">
        <ele>349.43872070312</ele>
        <time>2022-01-01T09:44:32Z</time>
      </trkpt>
      <trkpt lat="43.26628" lon="6.41289">
        <ele>347.93106079102</ele>
        <time>2022-01-01T09:44:36Z</time>
      </trkpt>
      <trkpt lat="43.26616" lon="6.41282">
        <ele>347.72113037109</ele>
        <time>2022-01-01T09:44:40Z</time>
      </trkpt>
      <trkpt lat="43.26595" lon="6.41294">
        <ele>347.63754272461</ele>
        <time>2022-01-01T09:44:44Z</time>
      </trkpt>
      <trkpt lat="43.26577" lon="6.41298">
        <ele>343.37942504883</ele>
        <time>2022-01-01T09:44:50Z</time>
      </trkpt>
      <trkpt lat="43.26563" lon="6.41288">
        <ele>343.38809204102</ele>
        <time>2022-01-01T09:44:54Z</time>
      </trkpt>
      <trkpt lat="43.26548" lon="6.4128">
        <ele>343.35781860352</ele>
        <time>2022-01-01T09:44:58Z</time>
      </trkpt>
      <trkpt lat="43.26531" lon="6.41278">
        <ele>347.59008789062</ele>
        <time>2022-01-01T09:45:02Z</time>
      </trkpt>
      <trkpt lat="43.26514" lon="6.41265">
        <ele>347.3498840332</ele>
        <time>2022-01-01T09:45:08Z</time>
      </trkpt>
      <trkpt lat="43.26513" lon="6.41246">
        <ele>353.11285400391</ele>
        <time>2022-01-01T09:45:14Z</time>
      </trkpt>
      <trkpt lat="43.2651" lon="6.41228">
        <ele>353.19403076172</ele>
        <time>2022-01-01T09:45:20Z</time>
      </trkpt>
      <trkpt lat="43.26499" lon="6.41214">
        <ele>353.13876342773</ele>
        <time>2022-01-01T09:45:24Z</time>
      </trkpt>
      <trkpt lat="43.26489" lon="6.41203">
        <ele>349.04885864258</ele>
        <time>2022-01-01T09:45:28Z</time>
      </trkpt>
      <trkpt lat="43.26479" lon="6.41195">
        <ele>348.97152709961</ele>
        <time>2022-01-01T09:45:32Z</time>
      </trkpt>
      <trkpt lat="43.26464" lon="6.4119">
        <ele>348.96380615234</ele>
        <time>2022-01-01T09:45:36Z</time>
      </trkpt>
      <trkpt lat="43.26453" lon="6.4119">
        <ele>336.93417358398</ele>
        <time>2022-01-01T09:45:40Z</time>
      </trkpt>
      <trkpt lat="43.26441" lon="6.41189">
        <ele>336.94183349609</ele>
        <time>2022-01-01T09:45:44Z</time>
      </trkpt>
      <trkpt lat="43.2643" lon="6.41187">
        <ele>337.05859375</ele>
        <time>2022-01-01T09:45:48Z</time>
      </trkpt>
      <trkpt lat="43.26418" lon="6.41176">
        <ele>337.21548461914</ele>
        <time>2022-01-01T09:45:52Z</time>
      </trkpt>
      <trkpt lat="43.26416" lon="6.41153">
        <ele>337.1780090332</ele>
        <time>2022-01-01T09:45:56Z</time>
      </trkpt>
      <trkpt lat="43.26418" lon="6.41134">
        <ele>337.12225341797</ele>
        <time>2022-01-01T09:46:00Z</time>
      </trkpt>
      <trkpt lat="43.26417" lon="6.41103">
        <ele>338.42910766602</ele>
        <time>2022-01-01T09:46:06Z</time>
      </trkpt>
      <trkpt lat="43.26406" lon="6.41078">
        <ele>338.10290527344</ele>
        <time>2022-01-01T09:46:12Z</time>
      </trkpt>
      <trkpt lat="43.26392" lon="6.41052">
        <ele>331.80191040039</ele>
        <time>2022-01-01T09:46:16Z</time>
      </trkpt>
      <trkpt lat="43.26372" lon="6.41026">
        <ele>331.62274169922</ele>
        <time>2022-01-01T09:46:20Z</time>
      </trkpt>
      <trkpt lat="43.26357" lon="6.40995">
        <ele>331.2004699707</ele>
        <time>2022-01-01T09:46:24Z</time>
      </trkpt>
      <trkpt lat="43.26349" lon="6.40962">
        <ele>332.21856689453</ele>
        <time>2022-01-01T09:46:28Z</time>
      </trkpt>
      <trkpt lat="43.26339" lon="6.40931">
        <ele>332.11959838867</ele>
        <time>2022-01-01T09:46:32Z</time>
      </trkpt>
      <trkpt lat="43.26322" lon="6.40934">
        <ele>332.1071472168</ele>
        <time>2022-01-01T09:46:36Z</time>
      </trkpt>
      <trkpt lat="43.26311" lon="6.40929">
        <ele>331.4817199707</ele>
        <time>2022-01-01T09:46:40Z</time>
      </trkpt>
      <trkpt lat="43.26309" lon="6.40905">
        <ele>331.16845703125</ele>
        <time>2022-01-01T09:46:44Z</time>
      </trkpt>
      <trkpt lat="43.26321" lon="6.40887">
        <ele>330.89367675781</ele>
        <time>2022-01-01T09:46:48Z</time>
      </trkpt>
      <trkpt lat="43.26331" lon="6.40863">
        <ele>331.40252685547</ele>
        <time>2022-01-01T09:46:52Z</time>
      </trkpt>
      <trkpt lat="43.26338" lon="6.40837">
        <ele>330.85342407227</ele>
        <time>2022-01-01T09:46:56Z</time>
      </trkpt>
      <trkpt lat="43.26347" lon="6.40803">
        <ele>330.60357666016</ele>
        <time>2022-01-01T09:47:00Z</time>
      </trkpt>
      <trkpt lat="43.26355" lon="6.40744">
        <ele>326.1555480957</ele>
        <time>2022-01-01T09:47:06Z</time>
      </trkpt>
      <trkpt lat="43.26368" lon="6.40713">
        <ele>325.96960449219</ele>
        <time>2022-01-01T09:47:10Z</time>
      </trkpt>
      <trkpt lat="43.26378" lon="6.40685">
        <ele>325.88745117188</ele>
        <time>2022-01-01T09:47:14Z</time>
      </trkpt>
      <trkpt lat="43.26391" lon="6.40658">
        <ele>321.50668334961</ele>
        <time>2022-01-01T09:47:18Z</time>
      </trkpt>
      <trkpt lat="43.26412" lon="6.40651">
        <ele>321.36111450195</ele>
        <time>2022-01-01T09:47:24Z</time>
      </trkpt>
      <trkpt lat="43.26416" lon="6.40638">
        <ele>313.8264465332</ele>
        <time>2022-01-01T09:47:32Z</time>
      </trkpt>
      <trkpt lat="43.26405" lon="6.40615">
        <ele>314.72354125977</ele>
        <time>2022-01-01T09:48:02Z</time>
      </trkpt>
      <trkpt lat="43.26394" lon="6.406">
        <ele>314.45208740234</ele>
        <time>2022-01-01T09:48:06Z</time>
      </trkpt>
      <trkpt lat="43.2638" lon="6.40586">
        <ele>318.48022460938</ele>
        <time>2022-01-01T09:48:10Z</time>
      </trkpt>
      <trkpt lat="43.26372" lon="6.40575">
        <ele>318.2092590332</ele>
        <time>2022-01-01T09:48:14Z</time>
      </trkpt>
      <trkpt lat="43.2636" lon="6.40549">
        <ele>318.05169677734</ele>
        <time>2022-01-01T09:48:20Z</time>
      </trkpt>
      <trkpt lat="43.26337" lon="6.40536">
        <ele>302.2594909668</ele>
        <time>2022-01-01T09:48:26Z</time>
      </trkpt>
      <trkpt lat="43.26322" lon="6.40533">
        <ele>302.13122558594</ele>
        <time>2022-01-01T09:48:30Z</time>
      </trkpt>
      <trkpt lat="43.26305" lon="6.40523">
        <ele>302.23394775391</ele>
        <time>2022-01-01T09:48:36Z</time>
      </trkpt>
      <trkpt lat="43.26281" lon="6.405">
        <ele>301.95629882812</ele>
        <time>2022-01-01T09:48:44Z</time>
      </trkpt>
      <trkpt lat="43.26253" lon="6.40484">
        <ele>300.30575561523</ele>
        <time>2022-01-01T09:48:50Z</time>
      </trkpt>
      <trkpt lat="43.26237" lon="6.40466">
        <ele>300.21112060547</ele>
        <time>2022-01-01T09:48:54Z</time>
      </trkpt>
      <trkpt lat="43.26222" lon="6.4044">
        <ele>299.64999389648</ele>
        <time>2022-01-01T09:48:58Z</time>
      </trkpt>
      <trkpt lat="43.26227" lon="6.40419">
        <ele>297.21768188477</ele>
        <time>2022-01-01T09:49:02Z</time>
      </trkpt>
      <trkpt lat="43.26237" lon="6.40402">
        <ele>296.88088989258</ele>
        <time>2022-01-01T09:49:06Z</time>
      </trkpt>
      <trkpt lat="43.26243" lon="6.40389">
        <ele>296.60083007812</ele>
        <time>2022-01-01T09:49:10Z</time>
      </trkpt>
      <trkpt lat="43.26243" lon="6.40353">
        <ele>300.50100708008</ele>
        <time>2022-01-01T09:49:16Z</time>
      </trkpt>
      <trkpt lat="43.26247" lon="6.40339">
        <ele>300.19161987305</ele>
        <time>2022-01-01T09:49:20Z</time>
      </trkpt>
      <trkpt lat="43.26261" lon="6.40335">
        <ele>299.88845825195</ele>
        <time>2022-01-01T09:49:26Z</time>
      </trkpt>
      <trkpt lat="43.26274" lon="6.40331">
        <ele>297.94430541992</ele>
        <time>2022-01-01T09:49:30Z</time>
      </trkpt>
      <trkpt lat="43.26291" lon="6.40324">
        <ele>297.79443359375</ele>
        <time>2022-01-01T09:49:34Z</time>
      </trkpt>
      <trkpt lat="43.26307" lon="6.40322">
        <ele>297.42065429688</ele>
        <time>2022-01-01T09:49:38Z</time>
      </trkpt>
      <trkpt lat="43.26323" lon="6.40321">
        <ele>289.3193359375</ele>
        <time>2022-01-01T09:49:42Z</time>
      </trkpt>
      <trkpt lat="43.26332" lon="6.40315">
        <ele>289.13150024414</ele>
        <time>2022-01-01T09:49:46Z</time>
      </trkpt>
      <trkpt lat="43.26342" lon="6.40297">
        <ele>288.96575927734</ele>
        <time>2022-01-01T09:49:50Z</time>
      </trkpt>
      <trkpt lat="43.26352" lon="6.40282">
        <ele>283.51171875</ele>
        <time>2022-01-01T09:49:54Z</time>
      </trkpt>
      <trkpt lat="43.26363" lon="6.40262">
        <ele>283.02795410156</ele>
        <time>2022-01-01T09:49:58Z</time>
      </trkpt>
      <trkpt lat="43.26368" lon="6.40239">
        <ele>283.01306152344</ele>
        <time>2022-01-01T09:50:02Z</time>
      </trkpt>
      <trkpt lat="43.26366" lon="6.40223">
        <ele>279.66354370117</ele>
        <time>2022-01-01T09:50:06Z</time>
      </trkpt>
      <trkpt lat="43.2637" lon="6.40211">
        <ele>279.51126098633</ele>
        <time>2022-01-01T09:50:10Z</time>
      </trkpt>
      <trkpt lat="43.26382" lon="6.40209">
        <ele>279.2624206543</ele>
        <time>2022-01-01T09:50:14Z</time>
      </trkpt>
      <trkpt lat="43.26392" lon="6.40202">
        <ele>282.44497680664</ele>
        <time>2022-01-01T09:50:18Z</time>
      </trkpt>
      <trkpt lat="43.26397" lon="6.40191">
        <ele>281.94583129883</ele>
        <time>2022-01-01T09:50:22Z</time>
      </trkpt>
      <trkpt lat="43.26408" lon="6.40181">
        <ele>281.84252929688</ele>
        <time>2022-01-01T09:50:26Z</time>
      </trkpt>
      <trkpt lat="43.26422" lon="6.40159">
        <ele>273.75482177734</ele>
        <time>2022-01-01T09:50:32Z</time>
      </trkpt>
      <trkpt lat="43.26429" lon="6.40151">
        <ele>273.60107421875</ele>
        <time>2022-01-01T09:50:36Z</time>
      </trkpt>
      <trkpt lat="43.26438" lon="6.40146">
        <ele>270.14370727539</ele>
        <time>2022-01-01T09:50:44Z</time>
      </trkpt>
      <trkpt lat="43.26442" lon="6.40164">
        <ele>262.40270996094</ele>
        <time>2022-01-01T09:51:12Z</time>
      </trkpt>
      <trkpt lat="43.26453" lon="6.40163">
        <ele>268.09042358398</ele>
        <time>2022-01-01T09:51:40Z</time>
      </trkpt>
      <trkpt lat="43.26444" lon="6.40174">
        <ele>262.96566772461</ele>
        <time>2022-01-01T09:51:56Z</time>
      </trkpt>
      <trkpt lat="43.26437" lon="6.40187">
        <ele>262.99835205078</ele>
        <time>2022-01-01T09:52:00Z</time>
      </trkpt>
      <trkpt lat="43.2643" lon="6.40203">
        <ele>262.94644165039</ele>
        <time>2022-01-01T09:52:04Z</time>
      </trkpt>
      <trkpt lat="43.26424" lon="6.40231">
        <ele>259.63592529297</ele>
        <time>2022-01-01T09:52:10Z</time>
      </trkpt>
      <trkpt lat="43.2642" lon="6.40243">
        <ele>259.58694458008</ele>
        <time>2022-01-01T09:52:12Z</time>
      </trkpt>
      <trkpt lat="43.26418" lon="6.40264">
        <ele>259.40579223633</ele>
        <time>2022-01-01T09:52:16Z</time>
      </trkpt>
      <trkpt lat="43.2642" lon="6.40286">
        <ele>257.23608398438</ele>
        <time>2022-01-01T09:52:20Z</time>
      </trkpt>
      <trkpt lat="43.26419" lon="6.40312">
        <ele>257.15536499023</ele>
        <time>2022-01-01T09:52:24Z</time>
      </trkpt>
      <trkpt lat="43.26421" lon="6.40338">
        <ele>256.70138549805</ele>
        <time>2022-01-01T09:52:28Z</time>
      </trkpt>
      <trkpt lat="43.26447" lon="6.40372">
        <ele>254.16624450684</ele>
        <time>2022-01-01T09:52:34Z</time>
      </trkpt>
      <trkpt lat="43.26464" lon="6.40372">
        <ele>254.28681945801</ele>
        <time>2022-01-01T09:52:42Z</time>
      </trkpt>
      <trkpt lat="43.26486" lon="6.40369">
        <ele>254.47196960449</ele>
        <time>2022-01-01T09:52:52Z</time>
      </trkpt>
      <trkpt lat="43.26496" lon="6.40366">
        <ele>258.32864379883</ele>
        <time>2022-01-01T09:52:58Z</time>
      </trkpt>
      <trkpt lat="43.26511" lon="6.40358">
        <ele>258.58038330078</ele>
        <time>2022-01-01T09:53:06Z</time>
      </trkpt>
      <trkpt lat="43.26522" lon="6.40357">
        <ele>259.96875</ele>
        <time>2022-01-01T09:53:12Z</time>
      </trkpt>
      <trkpt lat="43.26531" lon="6.40364">
        <ele>260.15899658203</ele>
        <time>2022-01-01T09:53:20Z</time>
      </trkpt>
      <trkpt lat="43.26543" lon="6.40372">
        <ele>266.37255859375</ele>
        <time>2022-01-01T09:53:28Z</time>
      </trkpt>
      <trkpt lat="43.26559" lon="6.40375">
        <ele>263.6520690918</ele>
        <time>2022-01-01T09:53:36Z</time>
      </trkpt>
      <trkpt lat="43.26571" lon="6.40376">
        <ele>263.75006103516</ele>
        <time>2022-01-01T09:53:40Z</time>
      </trkpt>
      <trkpt lat="43.26582" lon="6.4037">
        <ele>263.82165527344</ele>
        <time>2022-01-01T09:53:46Z</time>
      </trkpt>
      <trkpt lat="43.26592" lon="6.40359">
        <ele>266.01171875</ele>
        <time>2022-01-01T09:53:52Z</time>
      </trkpt>
      <trkpt lat="43.26597" lon="6.40345">
        <ele>266.17120361328</ele>
        <time>2022-01-01T09:53:58Z</time>
      </trkpt>
      <trkpt lat="43.26602" lon="6.40333">
        <ele>265.0422668457</ele>
        <time>2022-01-01T09:54:04Z</time>
      </trkpt>
      <trkpt lat="43.26601" lon="6.40306">
        <ele>264.01724243164</ele>
        <time>2022-01-01T09:54:12Z</time>
      </trkpt>
      <trkpt lat="43.26602" lon="6.40291">
        <ele>264.2526550293</ele>
        <time>2022-01-01T09:54:18Z</time>
      </trkpt>
      <trkpt lat="43.26607" lon="6.40272">
        <ele>262.97033691406</ele>
        <time>2022-01-01T09:54:24Z</time>
      </trkpt>
      <trkpt lat="43.26602" lon="6.40247">
        <ele>263.33303833008</ele>
        <time>2022-01-01T09:54:34Z</time>
      </trkpt>
      <trkpt lat="43.2661" lon="6.40237">
        <ele>273.05868530273</ele>
        <time>2022-01-01T09:54:38Z</time>
      </trkpt>
      <trkpt lat="43.26619" lon="6.40227">
        <ele>273.17733764648</ele>
        <time>2022-01-01T09:54:42Z</time>
      </trkpt>
      <trkpt lat="43.26625" lon="6.40218">
        <ele>273.24221801758</ele>
        <time>2022-01-01T09:54:46Z</time>
      </trkpt>
      <trkpt lat="43.26633" lon="6.4021">
        <ele>273.47183227539</ele>
        <time>2022-01-01T09:54:50Z</time>
      </trkpt>
      <trkpt lat="43.26644" lon="6.402">
        <ele>273.65487670898</ele>
        <time>2022-01-01T09:54:58Z</time>
      </trkpt>
      <trkpt lat="43.26655" lon="6.402">
        <ele>273.28057861328</ele>
        <time>2022-01-01T09:55:06Z</time>
      </trkpt>
      <trkpt lat="43.26667" lon="6.40202">
        <ele>273.35073852539</ele>
        <time>2022-01-01T09:55:10Z</time>
      </trkpt>
      <trkpt lat="43.26683" lon="6.40207">
        <ele>279.38110351562</ele>
        <time>2022-01-01T09:55:16Z</time>
      </trkpt>
      <trkpt lat="43.26699" lon="6.40216">
        <ele>279.39453125</ele>
        <time>2022-01-01T09:55:24Z</time>
      </trkpt>
      <trkpt lat="43.26708" lon="6.40225">
        <ele>279.21215820312</ele>
        <time>2022-01-01T09:55:28Z</time>
      </trkpt>
      <trkpt lat="43.26726" lon="6.40232">
        <ele>279.21838378906</ele>
        <time>2022-01-01T09:55:34Z</time>
      </trkpt>
      <trkpt lat="43.26739" lon="6.4024">
        <ele>279.2395324707</ele>
        <time>2022-01-01T09:55:38Z</time>
      </trkpt>
      <trkpt lat="43.2675" lon="6.40251">
        <ele>276.13079833984</ele>
        <time>2022-01-01T09:55:42Z</time>
      </trkpt>
      <trkpt lat="43.26766" lon="6.4027">
        <ele>276.25616455078</ele>
        <time>2022-01-01T09:55:50Z</time>
      </trkpt>
      <trkpt lat="43.26779" lon="6.40287">
        <ele>276.64031982422</ele>
        <time>2022-01-01T09:56:00Z</time>
      </trkpt>
      <trkpt lat="43.26787" lon="6.40301">
        <ele>276.71286010742</ele>
        <time>2022-01-01T09:56:04Z</time>
      </trkpt>
      <trkpt lat="43.26794" lon="6.40314">
        <ele>283.01641845703</ele>
        <time>2022-01-01T09:56:08Z</time>
      </trkpt>
      <trkpt lat="43.268" lon="6.40326">
        <ele>283.09808349609</ele>
        <time>2022-01-01T09:56:12Z</time>
      </trkpt>
      <trkpt lat="43.26808" lon="6.40344">
        <ele>283.212890625</ele>
        <time>2022-01-01T09:56:18Z</time>
      </trkpt>
      <trkpt lat="43.26821" lon="6.40373">
        <ele>284.42181396484</ele>
        <time>2022-01-01T09:56:28Z</time>
      </trkpt>
      <trkpt lat="43.26826" lon="6.40386">
        <ele>284.50540161133</ele>
        <time>2022-01-01T09:56:32Z</time>
      </trkpt>
      <trkpt lat="43.26834" lon="6.40403">
        <ele>287.10968017578</ele>
        <time>2022-01-01T09:56:40Z</time>
      </trkpt>
      <trkpt lat="43.2684" lon="6.40426">
        <ele>286.09716796875</ele>
        <time>2022-01-01T09:56:48Z</time>
      </trkpt>
      <trkpt lat="43.26848" lon="6.40447">
        <ele>286.34698486328</ele>
        <time>2022-01-01T09:56:56Z</time>
      </trkpt>
      <trkpt lat="43.26858" lon="6.4045">
        <ele>286.20495605469</ele>
        <time>2022-01-01T09:57:00Z</time>
      </trkpt>
      <trkpt lat="43.26868" lon="6.40443">
        <ele>286.36010742188</ele>
        <time>2022-01-01T09:57:06Z</time>
      </trkpt>
      <trkpt lat="43.26877" lon="6.40421">
        <ele>290.50820922852</ele>
        <time>2022-01-01T09:57:14Z</time>
      </trkpt>
      <trkpt lat="43.26885" lon="6.40407">
        <ele>290.75897216797</ele>
        <time>2022-01-01T09:57:22Z</time>
      </trkpt>
      <trkpt lat="43.2689" lon="6.40396">
        <ele>282.71725463867</ele>
        <time>2022-01-01T09:57:26Z</time>
      </trkpt>
      <trkpt lat="43.26894" lon="6.40383">
        <ele>282.88540649414</ele>
        <time>2022-01-01T09:57:30Z</time>
      </trkpt>
      <trkpt lat="43.269" lon="6.40366">
        <ele>290.69067382812</ele>
        <time>2022-01-01T09:57:38Z</time>
      </trkpt>
      <trkpt lat="43.26907" lon="6.40358">
        <ele>290.91116333008</ele>
        <time>2022-01-01T09:57:46Z</time>
      </trkpt>
      <trkpt lat="43.26923" lon="6.40366">
        <ele>292.03280639648</ele>
        <time>2022-01-01T09:57:52Z</time>
      </trkpt>
      <trkpt lat="43.26936" lon="6.40375">
        <ele>292.35610961914</ele>
        <time>2022-01-01T09:58:00Z</time>
      </trkpt>
      <trkpt lat="43.26951" lon="6.40388">
        <ele>304.0588684082</ele>
        <time>2022-01-01T09:58:12Z</time>
      </trkpt>
      <trkpt lat="43.26961" lon="6.40392">
        <ele>304.68637084961</ele>
        <time>2022-01-01T09:58:16Z</time>
      </trkpt>
      <trkpt lat="43.26973" lon="6.40395">
        <ele>305.02554321289</ele>
        <time>2022-01-01T09:58:26Z</time>
      </trkpt>
      <trkpt lat="43.26985" lon="6.40399">
        <ele>301.9289855957</ele>
        <time>2022-01-01T09:58:34Z</time>
      </trkpt>
      <trkpt lat="43.27001" lon="6.40406">
        <ele>306.15356445312</ele>
        <time>2022-01-01T09:58:42Z</time>
      </trkpt>
      <trkpt lat="43.27018" lon="6.40416">
        <ele>306.46054077148</ele>
        <time>2022-01-01T09:58:50Z</time>
      </trkpt>
      <trkpt lat="43.27031" lon="6.40419">
        <ele>307.83004760742</ele>
        <time>2022-01-01T09:58:58Z</time>
      </trkpt>
      <trkpt lat="43.27042" lon="6.40425">
        <ele>306.05313110352</ele>
        <time>2022-01-01T09:59:06Z</time>
      </trkpt>
      <trkpt lat="43.27056" lon="6.40429">
        <ele>306.37594604492</ele>
        <time>2022-01-01T09:59:14Z</time>
      </trkpt>
      <trkpt lat="43.27067" lon="6.40428">
        <ele>308.67428588867</ele>
        <time>2022-01-01T09:59:22Z</time>
      </trkpt>
      <trkpt lat="43.27079" lon="6.40425">
        <ele>310.31484985352</ele>
        <time>2022-01-01T09:59:30Z</time>
      </trkpt>
      <trkpt lat="43.27091" lon="6.40423">
        <ele>310.51663208008</ele>
        <time>2022-01-01T09:59:38Z</time>
      </trkpt>
      <trkpt lat="43.27101" lon="6.4043">
        <ele>312.67965698242</ele>
        <time>2022-01-01T09:59:46Z</time>
      </trkpt>
      <trkpt lat="43.27109" lon="6.40438">
        <ele>315.45413208008</ele>
        <time>2022-01-01T09:59:54Z</time>
      </trkpt>
      <trkpt lat="43.27118" lon="6.40444">
        <ele>317.91110229492</ele>
        <time>2022-01-01T10:00:22Z</time>
      </trkpt>
      <trkpt lat="43.27131" lon="6.40453">
        <ele>318.81051635742</ele>
        <time>2022-01-01T10:00:30Z</time>
      </trkpt>
      <trkpt lat="43.27144" lon="6.40458">
        <ele>319.16744995117</ele>
        <time>2022-01-01T10:00:38Z</time>
      </trkpt>
      <trkpt lat="43.27162" lon="6.40461">
        <ele>321.71948242188</ele>
        <time>2022-01-01T10:00:48Z</time>
      </trkpt>
      <trkpt lat="43.27172" lon="6.40459">
        <ele>324.49450683594</ele>
        <time>2022-01-01T10:00:54Z</time>
      </trkpt>
      <trkpt lat="43.27189" lon="6.40457">
        <ele>324.7366027832</ele>
        <time>2022-01-01T10:01:02Z</time>
      </trkpt>
      <trkpt lat="43.27199" lon="6.40462">
        <ele>324.34436035156</ele>
        <time>2022-01-01T10:01:10Z</time>
      </trkpt>
      <trkpt lat="43.27213" lon="6.40473">
        <ele>324.07266235352</ele>
        <time>2022-01-01T10:01:18Z</time>
      </trkpt>
      <trkpt lat="43.27225" lon="6.40482">
        <ele>324.34121704102</ele>
        <time>2022-01-01T10:01:26Z</time>
      </trkpt>
      <trkpt lat="43.27237" lon="6.40487">
        <ele>327.56115722656</ele>
        <time>2022-01-01T10:01:34Z</time>
      </trkpt>
      <trkpt lat="43.27251" lon="6.40491">
        <ele>328.66375732422</ele>
        <time>2022-01-01T10:01:44Z</time>
      </trkpt>
      <trkpt lat="43.27264" lon="6.40491">
        <ele>328.80163574219</ele>
        <time>2022-01-01T10:01:52Z</time>
      </trkpt>
      <trkpt lat="43.27276" lon="6.40494">
        <ele>331.45349121094</ele>
        <time>2022-01-01T10:02:00Z</time>
      </trkpt>
      <trkpt lat="43.27288" lon="6.40505">
        <ele>332.15655517578</ele>
        <time>2022-01-01T10:02:08Z</time>
      </trkpt>
      <trkpt lat="43.27296" lon="6.40518">
        <ele>332.38092041016</ele>
        <time>2022-01-01T10:02:16Z</time>
      </trkpt>
      <trkpt lat="43.27305" lon="6.40532">
        <ele>333.71899414062</ele>
        <time>2022-01-01T10:02:24Z</time>
      </trkpt>
      <trkpt lat="43.27316" lon="6.40545">
        <ele>336.11944580078</ele>
        <time>2022-01-01T10:02:32Z</time>
      </trkpt>
      <trkpt lat="43.27325" lon="6.40559">
        <ele>336.37600708008</ele>
        <time>2022-01-01T10:02:40Z</time>
      </trkpt>
      <trkpt lat="43.27334" lon="6.4057">
        <ele>338.08666992188</ele>
        <time>2022-01-01T10:02:48Z</time>
      </trkpt>
      <trkpt lat="43.27343" lon="6.40581">
        <ele>340.65670776367</ele>
        <time>2022-01-01T10:02:56Z</time>
      </trkpt>
      <trkpt lat="43.27352" lon="6.40591">
        <ele>340.85269165039</ele>
        <time>2022-01-01T10:03:04Z</time>
      </trkpt>
      <trkpt lat="43.27362" lon="6.40598">
        <ele>342.18878173828</ele>
        <time>2022-01-01T10:03:12Z</time>
      </trkpt>
      <trkpt lat="43.27374" lon="6.40607">
        <ele>341.96881103516</ele>
        <time>2022-01-01T10:03:20Z</time>
      </trkpt>
      <trkpt lat="43.27385" lon="6.40615">
        <ele>342.14752197266</ele>
        <time>2022-01-01T10:03:28Z</time>
      </trkpt>
      <trkpt lat="43.27398" lon="6.40624">
        <ele>344.51452636719</ele>
        <time>2022-01-01T10:03:36Z</time>
      </trkpt>
      <trkpt lat="43.27407" lon="6.4063">
        <ele>344.67016601562</ele>
        <time>2022-01-01T10:03:42Z</time>
      </trkpt>
      <trkpt lat="43.27419" lon="6.4064">
        <ele>344.46911621094</ele>
        <time>2022-01-01T10:03:50Z</time>
      </trkpt>
      <trkpt lat="43.27431" lon="6.40652">
        <ele>344.52792358398</ele>
        <time>2022-01-01T10:03:58Z</time>
      </trkpt>
      <trkpt lat="43.27443" lon="6.40665">
        <ele>344.72344970703</ele>
        <time>2022-01-01T10:04:06Z</time>
      </trkpt>
      <trkpt lat="43.27454" lon="6.40676">
        <ele>348.77481079102</ele>
        <time>2022-01-01T10:04:14Z</time>
      </trkpt>
      <trkpt lat="43.27464" lon="6.40683">
        <ele>352.57421875</ele>
        <time>2022-01-01T10:04:22Z</time>
      </trkpt>
      <trkpt lat="43.27475" lon="6.40694">
        <ele>352.78366088867</ele>
        <time>2022-01-01T10:04:32Z</time>
      </trkpt>
      <trkpt lat="43.27484" lon="6.40704">
        <ele>355.68179321289</ele>
        <time>2022-01-01T10:04:40Z</time>
      </trkpt>
      <trkpt lat="43.27494" lon="6.40717">
        <ele>358.0090637207</ele>
        <time>2022-01-01T10:04:48Z</time>
      </trkpt>
      <trkpt lat="43.27495" lon="6.40732">
        <ele>358.29537963867</ele>
        <time>2022-01-01T10:04:56Z</time>
      </trkpt>
      <trkpt lat="43.27493" lon="6.40748">
        <ele>361.73532104492</ele>
        <time>2022-01-01T10:05:04Z</time>
      </trkpt>
      <trkpt lat="43.27492" lon="6.40764">
        <ele>364.36712646484</ele>
        <time>2022-01-01T10:05:12Z</time>
      </trkpt>
      <trkpt lat="43.27497" lon="6.40779">
        <ele>364.5256652832</ele>
        <time>2022-01-01T10:05:20Z</time>
      </trkpt>
      <trkpt lat="43.27503" lon="6.40795">
        <ele>365.08850097656</ele>
        <time>2022-01-01T10:05:28Z</time>
      </trkpt>
      <trkpt lat="43.27508" lon="6.40806">
        <ele>367.54357910156</ele>
        <time>2022-01-01T10:11:54Z</time>
      </trkpt>
      <trkpt lat="43.2751" lon="6.40824">
        <ele>367.55767822266</ele>
        <time>2022-01-01T10:12:02Z</time>
      </trkpt>
      <trkpt lat="43.27511" lon="6.40842">
        <ele>370.47640991211</ele>
        <time>2022-01-01T10:12:10Z</time>
      </trkpt>
      <trkpt lat="43.27511" lon="6.40862">
        <ele>370.736328125</ele>
        <time>2022-01-01T10:12:18Z</time>
      </trkpt>
      <trkpt lat="43.27509" lon="6.40881">
        <ele>371.57580566406</ele>
        <time>2022-01-01T10:12:26Z</time>
      </trkpt>
      <trkpt lat="43.27504" lon="6.40898">
        <ele>372.46063232422</ele>
        <time>2022-01-01T10:12:34Z</time>
      </trkpt>
      <trkpt lat="43.27498" lon="6.40915">
        <ele>372.69268798828</ele>
        <time>2022-01-01T10:12:42Z</time>
      </trkpt>
      <trkpt lat="43.27491" lon="6.40932">
        <ele>374.169921875</ele>
        <time>2022-01-01T10:12:50Z</time>
      </trkpt>
      <trkpt lat="43.27485" lon="6.40949">
        <ele>375.89389038086</ele>
        <time>2022-01-01T10:12:58Z</time>
      </trkpt>
      <trkpt lat="43.2748" lon="6.40967">
        <ele>375.96881103516</ele>
        <time>2022-01-01T10:13:06Z</time>
      </trkpt>
      <trkpt lat="43.27477" lon="6.40985">
        <ele>377.70050048828</ele>
        <time>2022-01-01T10:13:14Z</time>
      </trkpt>
      <trkpt lat="43.27476" lon="6.41004">
        <ele>379.98519897461</ele>
        <time>2022-01-01T10:13:22Z</time>
      </trkpt>
      <trkpt lat="43.27475" lon="6.41025">
        <ele>380.07983398438</ele>
        <time>2022-01-01T10:13:30Z</time>
      </trkpt>
      <trkpt lat="43.2748" lon="6.41049">
        <ele>382.47552490234</ele>
        <time>2022-01-01T10:13:40Z</time>
      </trkpt>
      <trkpt lat="43.27492" lon="6.41063">
        <ele>382.3186340332</ele>
        <time>2022-01-01T10:13:48Z</time>
      </trkpt>
      <trkpt lat="43.27502" lon="6.41075">
        <ele>382.51513671875</ele>
        <time>2022-01-01T10:13:56Z</time>
      </trkpt>
      <trkpt lat="43.27512" lon="6.41089">
        <ele>382.44583129883</ele>
        <time>2022-01-01T10:14:04Z</time>
      </trkpt>
      <trkpt lat="43.2752" lon="6.41103">
        <ele>384.53979492188</ele>
        <time>2022-01-01T10:14:12Z</time>
      </trkpt>
      <trkpt lat="43.27528" lon="6.41121">
        <ele>384.70269775391</ele>
        <time>2022-01-01T10:14:20Z</time>
      </trkpt>
      <trkpt lat="43.27538" lon="6.41138">
        <ele>386.75311279297</ele>
        <time>2022-01-01T10:14:28Z</time>
      </trkpt>
      <trkpt lat="43.27548" lon="6.41159">
        <ele>389.58618164062</ele>
        <time>2022-01-01T10:14:38Z</time>
      </trkpt>
      <trkpt lat="43.27556" lon="6.41175">
        <ele>389.84512329102</ele>
        <time>2022-01-01T10:14:46Z</time>
      </trkpt>
      <trkpt lat="43.27565" lon="6.41192">
        <ele>391.44024658203</ele>
        <time>2022-01-01T10:14:54Z</time>
      </trkpt>
      <trkpt lat="43.27579" lon="6.41209">
        <ele>391.44329833984</ele>
        <time>2022-01-01T10:15:04Z</time>
      </trkpt>
      <trkpt lat="43.27595" lon="6.41216">
        <ele>391.68640136719</ele>
        <time>2022-01-01T10:15:12Z</time>
      </trkpt>
      <trkpt lat="43.27604" lon="6.41214">
        <ele>394.46292114258</ele>
        <time>2022-01-01T10:15:16Z</time>
      </trkpt>
      <trkpt lat="43.27615" lon="6.41212">
        <ele>394.35961914062</ele>
        <time>2022-01-01T10:15:20Z</time>
      </trkpt>
      <trkpt lat="43.27632" lon="6.41212">
        <ele>394.25680541992</ele>
        <time>2022-01-01T10:15:24Z</time>
      </trkpt>
      <trkpt lat="43.27648" lon="6.41195">
        <ele>392.33139038086</ele>
        <time>2022-01-01T10:15:28Z</time>
      </trkpt>
      <trkpt lat="43.27649" lon="6.41164">
        <ele>392.16854858398</ele>
        <time>2022-01-01T10:15:32Z</time>
      </trkpt>
      <trkpt lat="43.27639" lon="6.41119">
        <ele>391.32543945312</ele>
        <time>2022-01-01T10:15:38Z</time>
      </trkpt>
      <trkpt lat="43.27641" lon="6.41079">
        <ele>384.74884033203</ele>
        <time>2022-01-01T10:15:42Z</time>
      </trkpt>
      <trkpt lat="43.27634" lon="6.41039">
        <ele>384.43560791016</ele>
        <time>2022-01-01T10:15:46Z</time>
      </trkpt>
      <trkpt lat="43.27645" lon="6.40992">
        <ele>383.81637573242</ele>
        <time>2022-01-01T10:15:50Z</time>
      </trkpt>
      <trkpt lat="43.27639" lon="6.40965">
        <ele>371.02938842773</ele>
        <time>2022-01-01T10:15:54Z</time>
      </trkpt>
      <trkpt lat="43.2763" lon="6.40926">
        <ele>370.64938354492</ele>
        <time>2022-01-01T10:15:58Z</time>
      </trkpt>
      <trkpt lat="43.2762" lon="6.40886">
        <ele>370.28713989258</ele>
        <time>2022-01-01T10:16:02Z</time>
      </trkpt>
      <trkpt lat="43.27628" lon="6.40832">
        <ele>357.47286987305</ele>
        <time>2022-01-01T10:16:08Z</time>
      </trkpt>
      <trkpt lat="43.27633" lon="6.40813">
        <ele>357.01214599609</ele>
        <time>2022-01-01T10:16:10Z</time>
      </trkpt>
      <trkpt lat="43.27641" lon="6.40768">
        <ele>355.71838378906</ele>
        <time>2022-01-01T10:16:14Z</time>
      </trkpt>
      <trkpt lat="43.27646" lon="6.40732">
        <ele>360.79968261719</ele>
        <time>2022-01-01T10:16:20Z</time>
      </trkpt>
      <trkpt lat="43.27649" lon="6.40686">
        <ele>360.29718017578</ele>
        <time>2022-01-01T10:16:24Z</time>
      </trkpt>
      <trkpt lat="43.2764" lon="6.40664">
        <ele>359.99160766602</ele>
        <time>2022-01-01T10:16:28Z</time>
      </trkpt>
      <trkpt lat="43.27633" lon="6.40639">
        <ele>348.1774597168</ele>
        <time>2022-01-01T10:16:32Z</time>
      </trkpt>
      <trkpt lat="43.27635" lon="6.40618">
        <ele>347.48324584961</ele>
        <time>2022-01-01T10:16:36Z</time>
      </trkpt>
      <trkpt lat="43.27655" lon="6.40593">
        <ele>347.32037353516</ele>
        <time>2022-01-01T10:16:40Z</time>
      </trkpt>
      <trkpt lat="43.27663" lon="6.40566">
        <ele>341.48416137695</ele>
        <time>2022-01-01T10:16:44Z</time>
      </trkpt>
      <trkpt lat="43.27666" lon="6.40553">
        <ele>341.15411376953</ele>
        <time>2022-01-01T10:16:48Z</time>
      </trkpt>
      <trkpt lat="43.27667" lon="6.40529">
        <ele>340.88653564453</ele>
        <time>2022-01-01T10:16:52Z</time>
      </trkpt>
      <trkpt lat="43.27679" lon="6.4051">
        <ele>334.97479248047</ele>
        <time>2022-01-01T10:16:56Z</time>
      </trkpt>
      <trkpt lat="43.27697" lon="6.40501">
        <ele>334.45254516602</ele>
        <time>2022-01-01T10:17:00Z</time>
      </trkpt>
      <trkpt lat="43.27711" lon="6.40469">
        <ele>334.30554199219</ele>
        <time>2022-01-01T10:17:06Z</time>
      </trkpt>
      <trkpt lat="43.27718" lon="6.40456">
        <ele>331.40020751953</ele>
        <time>2022-01-01T10:17:08Z</time>
      </trkpt>
      <trkpt lat="43.27731" lon="6.4042">
        <ele>331.04278564453</ele>
        <time>2022-01-01T10:17:14Z</time>
      </trkpt>
      <trkpt lat="43.27727" lon="6.40398">
        <ele>330.72430419922</ele>
        <time>2022-01-01T10:17:18Z</time>
      </trkpt>
      <trkpt lat="43.27703" lon="6.4038">
        <ele>322.86343383789</ele>
        <time>2022-01-01T10:17:22Z</time>
      </trkpt>
      <trkpt lat="43.27696" lon="6.40359">
        <ele>322.35946655273</ele>
        <time>2022-01-01T10:17:26Z</time>
      </trkpt>
      <trkpt lat="43.27688" lon="6.40316">
        <ele>322.0078125</ele>
        <time>2022-01-01T10:17:32Z</time>
      </trkpt>
      <trkpt lat="43.27677" lon="6.403">
        <ele>319.76217651367</ele>
        <time>2022-01-01T10:17:36Z</time>
      </trkpt>
      <trkpt lat="43.27664" lon="6.40292">
        <ele>319.40621948242</ele>
        <time>2022-01-01T10:17:38Z</time>
      </trkpt>
      <trkpt lat="43.27651" lon="6.40242">
        <ele>318.60726928711</ele>
        <time>2022-01-01T10:17:44Z</time>
      </trkpt>
      <trkpt lat="43.27649" lon="6.40202">
        <ele>313.74383544922</ele>
        <time>2022-01-01T10:17:48Z</time>
      </trkpt>
      <trkpt lat="43.27652" lon="6.40147">
        <ele>313.37435913086</ele>
        <time>2022-01-01T10:17:54Z</time>
      </trkpt>
      <trkpt lat="43.27662" lon="6.40127">
        <ele>312.71957397461</ele>
        <time>2022-01-01T10:17:56Z</time>
      </trkpt>
      <trkpt lat="43.27653" lon="6.40071">
        <ele>309.10586547852</ele>
        <time>2022-01-01T10:18:02Z</time>
      </trkpt>
      <trkpt lat="43.27666" lon="6.40061">
        <ele>309.10632324219</ele>
        <time>2022-01-01T10:18:10Z</time>
      </trkpt>
      <trkpt lat="43.27679" lon="6.40065">
        <ele>301.62936401367</ele>
        <time>2022-01-01T10:18:18Z</time>
      </trkpt>
      <trkpt lat="43.27697" lon="6.40074">
        <ele>296.40765380859</ele>
        <time>2022-01-01T10:18:32Z</time>
      </trkpt>
      <trkpt lat="43.27703" lon="6.40086">
        <ele>295.58612060547</ele>
        <time>2022-01-01T10:19:06Z</time>
      </trkpt>
      <trkpt lat="43.27712" lon="6.40107">
        <ele>295.83932495117</ele>
        <time>2022-01-01T10:19:14Z</time>
      </trkpt>
      <trkpt lat="43.2772" lon="6.4013">
        <ele>305.30337524414</ele>
        <time>2022-01-01T10:19:24Z</time>
      </trkpt>
      <trkpt lat="43.27723" lon="6.40144">
        <ele>314.04788208008</ele>
        <time>2022-01-01T10:19:36Z</time>
      </trkpt>
      <trkpt lat="43.27729" lon="6.40155">
        <ele>311.48385620117</ele>
        <time>2022-01-01T10:19:56Z</time>
      </trkpt>
      <trkpt lat="43.27735" lon="6.40177">
        <ele>311.81918334961</ele>
        <time>2022-01-01T10:20:06Z</time>
      </trkpt>
      <trkpt lat="43.27743" lon="6.40187">
        <ele>310.39477539062</ele>
        <time>2022-01-01T10:20:10Z</time>
      </trkpt>
      <trkpt lat="43.2776" lon="6.40199">
        <ele>310.64505004883</ele>
        <time>2022-01-01T10:20:20Z</time>
      </trkpt>
      <trkpt lat="43.27771" lon="6.40199">
        <ele>315.34097290039</ele>
        <time>2022-01-01T10:20:26Z</time>
      </trkpt>
      <trkpt lat="43.27787" lon="6.40196">
        <ele>315.52542114258</ele>
        <time>2022-01-01T10:20:34Z</time>
      </trkpt>
      <trkpt lat="43.27804" lon="6.40192">
        <ele>316.04904174805</ele>
        <time>2022-01-01T10:20:42Z</time>
      </trkpt>
      <trkpt lat="43.27816" lon="6.40189">
        <ele>317.24160766602</ele>
        <time>2022-01-01T10:20:50Z</time>
      </trkpt>
      <trkpt lat="43.2783" lon="6.40186">
        <ele>317.40689086914</ele>
        <time>2022-01-01T10:20:58Z</time>
      </trkpt>
      <trkpt lat="43.27841" lon="6.40178">
        <ele>323.30227661133</ele>
        <time>2022-01-01T10:21:06Z</time>
      </trkpt>
      <trkpt lat="43.27853" lon="6.40172">
        <ele>322.73715209961</ele>
        <time>2022-01-01T10:21:16Z</time>
      </trkpt>
      <trkpt lat="43.27865" lon="6.40153">
        <ele>322.98550415039</ele>
        <time>2022-01-01T10:21:24Z</time>
      </trkpt>
      <trkpt lat="43.27882" lon="6.40148">
        <ele>322.00723266602</ele>
        <time>2022-01-01T10:21:34Z</time>
      </trkpt>
      <trkpt lat="43.27893" lon="6.40159">
        <ele>323.87371826172</ele>
        <time>2022-01-01T10:21:42Z</time>
      </trkpt>
      <trkpt lat="43.27898" lon="6.40177">
        <ele>324.26910400391</ele>
        <time>2022-01-01T10:21:50Z</time>
      </trkpt>
      <trkpt lat="43.27902" lon="6.40193">
        <ele>327.31994628906</ele>
        <time>2022-01-01T10:21:58Z</time>
      </trkpt>
      <trkpt lat="43.27902" lon="6.40213">
        <ele>329.54187011719</ele>
        <time>2022-01-01T10:22:06Z</time>
      </trkpt>
      <trkpt lat="43.27905" lon="6.40225">
        <ele>329.80899047852</ele>
        <time>2022-01-01T10:22:14Z</time>
      </trkpt>
      <trkpt lat="43.27909" lon="6.40241">
        <ele>334.61813354492</ele>
        <time>2022-01-01T10:22:20Z</time>
      </trkpt>
      <trkpt lat="43.27911" lon="6.4026">
        <ele>334.89776611328</ele>
        <time>2022-01-01T10:22:28Z</time>
      </trkpt>
      <trkpt lat="43.27911" lon="6.40278">
        <ele>341.61254882812</ele>
        <time>2022-01-01T10:22:36Z</time>
      </trkpt>
      <trkpt lat="43.2791" lon="6.40294">
        <ele>331.57403564453</ele>
        <time>2022-01-01T10:22:44Z</time>
      </trkpt>
      <trkpt lat="43.27913" lon="6.40312">
        <ele>331.62496948242</ele>
        <time>2022-01-01T10:22:52Z</time>
      </trkpt>
      <trkpt lat="43.27923" lon="6.40322">
        <ele>342.14770507812</ele>
        <time>2022-01-01T10:23:00Z</time>
      </trkpt>
      <trkpt lat="43.27935" lon="6.40327">
        <ele>344.61492919922</ele>
        <time>2022-01-01T10:23:08Z</time>
      </trkpt>
      <trkpt lat="43.27944" lon="6.40323">
        <ele>344.75473022461</ele>
        <time>2022-01-01T10:23:14Z</time>
      </trkpt>
      <trkpt lat="43.27956" lon="6.40325">
        <ele>350.58068847656</ele>
        <time>2022-01-01T10:23:24Z</time>
      </trkpt>
      <trkpt lat="43.27964" lon="6.40334">
        <ele>353.47506713867</ele>
        <time>2022-01-01T10:23:34Z</time>
      </trkpt>
      <trkpt lat="43.27967" lon="6.40348">
        <ele>353.81137084961</ele>
        <time>2022-01-01T10:23:42Z</time>
      </trkpt>
      <trkpt lat="43.27977" lon="6.40357">
        <ele>348.04278564453</ele>
        <time>2022-01-01T10:23:50Z</time>
      </trkpt>
      <trkpt lat="43.27974" lon="6.40344">
        <ele>353.21704101562</ele>
        <time>2022-01-01T10:24:14Z</time>
      </trkpt>
      <trkpt lat="43.27975" lon="6.40357">
        <ele>349.89083862305</ele>
        <time>2022-01-01T10:24:38Z</time>
      </trkpt>
      <trkpt lat="43.27985" lon="6.40362">
        <ele>336.20770263672</ele>
        <time>2022-01-01T10:25:06Z</time>
      </trkpt>
      <trkpt lat="43.27988" lon="6.40383">
        <ele>336.47387695312</ele>
        <time>2022-01-01T10:25:14Z</time>
      </trkpt>
      <trkpt lat="43.27991" lon="6.40399">
        <ele>348.36346435547</ele>
        <time>2022-01-01T10:25:22Z</time>
      </trkpt>
      <trkpt lat="43.27995" lon="6.40414">
        <ele>352.72497558594</ele>
        <time>2022-01-01T10:25:30Z</time>
      </trkpt>
      <trkpt lat="43.28" lon="6.40429">
        <ele>353.02282714844</ele>
        <time>2022-01-01T10:25:38Z</time>
      </trkpt>
      <trkpt lat="43.28006" lon="6.40445">
        <ele>353.48782348633</ele>
        <time>2022-01-01T10:25:46Z</time>
      </trkpt>
      <trkpt lat="43.28011" lon="6.40457">
        <ele>355.99349975586</ele>
        <time>2022-01-01T10:25:54Z</time>
      </trkpt>
      <trkpt lat="43.2802" lon="6.4047">
        <ele>356.16644287109</ele>
        <time>2022-01-01T10:26:02Z</time>
      </trkpt>
      <trkpt lat="43.28028" lon="6.40482">
        <ele>360.64501953125</ele>
        <time>2022-01-01T10:26:10Z</time>
      </trkpt>
      <trkpt lat="43.28035" lon="6.40491">
        <ele>360.86987304688</ele>
        <time>2022-01-01T10:26:16Z</time>
      </trkpt>
      <trkpt lat="43.28042" lon="6.40504">
        <ele>362.50018310547</ele>
        <time>2022-01-01T10:26:24Z</time>
      </trkpt>
      <trkpt lat="43.28051" lon="6.40516">
        <ele>363.75103759766</ele>
        <time>2022-01-01T10:26:32Z</time>
      </trkpt>
      <trkpt lat="43.28062" lon="6.40523">
        <ele>363.94702148438</ele>
        <time>2022-01-01T10:26:40Z</time>
      </trkpt>
      <trkpt lat="43.28076" lon="6.40525">
        <ele>365.89453125</ele>
        <time>2022-01-01T10:26:50Z</time>
      </trkpt>
      <trkpt lat="43.2809" lon="6.40525">
        <ele>368.75692749023</ele>
        <time>2022-01-01T10:27:00Z</time>
      </trkpt>
      <trkpt lat="43.28104" lon="6.40523">
        <ele>370.01306152344</ele>
        <time>2022-01-01T10:27:10Z</time>
      </trkpt>
      <trkpt lat="43.28118" lon="6.40525">
        <ele>370.07406616211</ele>
        <time>2022-01-01T10:27:18Z</time>
      </trkpt>
      <trkpt lat="43.28127" lon="6.40527">
        <ele>372.83557128906</ele>
        <time>2022-01-01T10:27:22Z</time>
      </trkpt>
      <trkpt lat="43.28138" lon="6.40527">
        <ele>372.79666137695</ele>
        <time>2022-01-01T10:27:26Z</time>
      </trkpt>
      <trkpt lat="43.2815" lon="6.40524">
        <ele>372.70010375977</ele>
        <time>2022-01-01T10:27:30Z</time>
      </trkpt>
      <trkpt lat="43.28161" lon="6.40525">
        <ele>368.81427001953</ele>
        <time>2022-01-01T10:27:34Z</time>
      </trkpt>
      <trkpt lat="43.28179" lon="6.40523">
        <ele>368.60961914062</ele>
        <time>2022-01-01T10:27:38Z</time>
      </trkpt>
      <trkpt lat="43.28194" lon="6.40524">
        <ele>368.38143920898</ele>
        <time>2022-01-01T10:27:42Z</time>
      </trkpt>
      <trkpt lat="43.28207" lon="6.40543">
        <ele>365.24237060547</ele>
        <time>2022-01-01T10:27:46Z</time>
      </trkpt>
      <trkpt lat="43.28214" lon="6.40559">
        <ele>365.21594238281</ele>
        <time>2022-01-01T10:27:50Z</time>
      </trkpt>
      <trkpt lat="43.2822" lon="6.40573">
        <ele>365.16165161133</ele>
        <time>2022-01-01T10:27:54Z</time>
      </trkpt>
      <trkpt lat="43.28228" lon="6.40589">
        <ele>358.65576171875</ele>
        <time>2022-01-01T10:27:58Z</time>
      </trkpt>
      <trkpt lat="43.28239" lon="6.40601">
        <ele>358.64758300781</ele>
        <time>2022-01-01T10:28:02Z</time>
      </trkpt>
      <trkpt lat="43.28263" lon="6.40618">
        <ele>358.46981811523</ele>
        <time>2022-01-01T10:28:08Z</time>
      </trkpt>
      <trkpt lat="43.28285" lon="6.40623">
        <ele>358.41888427734</ele>
        <time>2022-01-01T10:28:12Z</time>
      </trkpt>
      <trkpt lat="43.283" lon="6.40634">
        <ele>358.12152099609</ele>
        <time>2022-01-01T10:28:16Z</time>
      </trkpt>
      <trkpt lat="43.28314" lon="6.40647">
        <ele>358.09750366211</ele>
        <time>2022-01-01T10:28:20Z</time>
      </trkpt>
      <trkpt lat="43.28319" lon="6.40664">
        <ele>360.91598510742</ele>
        <time>2022-01-01T10:28:28Z</time>
      </trkpt>
      <trkpt lat="43.28323" lon="6.4068">
        <ele>356.27206420898</ele>
        <time>2022-01-01T10:28:36Z</time>
      </trkpt>
      <trkpt lat="43.28317" lon="6.40691">
        <ele>356.28839111328</ele>
        <time>2022-01-01T10:28:44Z</time>
      </trkpt>
      <trkpt lat="43.2831" lon="6.40728">
        <ele>353.9453125</ele>
        <time>2022-01-01T10:29:10Z</time>
      </trkpt>
      <trkpt lat="43.28321" lon="6.40736">
        <ele>349.90551757812</ele>
        <time>2022-01-01T10:29:20Z</time>
      </trkpt>
      <trkpt lat="43.28328" lon="6.40759">
        <ele>349.94201660156</ele>
        <time>2022-01-01T10:29:24Z</time>
      </trkpt>
      <trkpt lat="43.2834" lon="6.4078">
        <ele>354.30270385742</ele>
        <time>2022-01-01T10:29:28Z</time>
      </trkpt>
      <trkpt lat="43.28355" lon="6.40799">
        <ele>354.11102294922</ele>
        <time>2022-01-01T10:29:32Z</time>
      </trkpt>
      <trkpt lat="43.28367" lon="6.40812">
        <ele>353.97650146484</ele>
        <time>2022-01-01T10:29:36Z</time>
      </trkpt>
      <trkpt lat="43.28376" lon="6.40822">
        <ele>355.90264892578</ele>
        <time>2022-01-01T10:29:40Z</time>
      </trkpt>
      <trkpt lat="43.28383" lon="6.40845">
        <ele>355.88345336914</ele>
        <time>2022-01-01T10:29:46Z</time>
      </trkpt>
      <trkpt lat="43.28383" lon="6.40861">
        <ele>355.84887695312</ele>
        <time>2022-01-01T10:29:50Z</time>
      </trkpt>
      <trkpt lat="43.28381" lon="6.40883">
        <ele>351.72528076172</ele>
        <time>2022-01-01T10:29:56Z</time>
      </trkpt>
      <trkpt lat="43.2837" lon="6.40903">
        <ele>351.67819213867</ele>
        <time>2022-01-01T10:30:02Z</time>
      </trkpt>
      <trkpt lat="43.28363" lon="6.4091">
        <ele>360.05932617188</ele>
        <time>2022-01-01T10:30:04Z</time>
      </trkpt>
      <trkpt lat="43.28347" lon="6.40939">
        <ele>359.81527709961</ele>
        <time>2022-01-01T10:30:10Z</time>
      </trkpt>
      <trkpt lat="43.28346" lon="6.40981">
        <ele>359.30990600586</ele>
        <time>2022-01-01T10:30:16Z</time>
      </trkpt>
      <trkpt lat="43.28352" lon="6.40999">
        <ele>351.58978271484</ele>
        <time>2022-01-01T10:30:22Z</time>
      </trkpt>
      <trkpt lat="43.28357" lon="6.41024">
        <ele>350.60604858398</ele>
        <time>2022-01-01T10:31:20Z</time>
      </trkpt>
      <trkpt lat="43.28385" lon="6.41048">
        <ele>352.81964111328</ele>
        <time>2022-01-01T10:31:26Z</time>
      </trkpt>
      <trkpt lat="43.2841" lon="6.41059">
        <ele>352.69906616211</ele>
        <time>2022-01-01T10:31:30Z</time>
      </trkpt>
      <trkpt lat="43.28431" lon="6.41065">
        <ele>352.39834594727</ele>
        <time>2022-01-01T10:31:34Z</time>
      </trkpt>
      <trkpt lat="43.28457" lon="6.41064">
        <ele>348.84628295898</ele>
        <time>2022-01-01T10:31:38Z</time>
      </trkpt>
      <trkpt lat="43.28483" lon="6.41057">
        <ele>348.63677978516</ele>
        <time>2022-01-01T10:31:42Z</time>
      </trkpt>
      <trkpt lat="43.28511" lon="6.4105">
        <ele>348.38989257812</ele>
        <time>2022-01-01T10:31:46Z</time>
      </trkpt>
      <trkpt lat="43.28532" lon="6.41045">
        <ele>336.51800537109</ele>
        <time>2022-01-01T10:31:50Z</time>
      </trkpt>
      <trkpt lat="43.28566" lon="6.41004">
        <ele>336.32821655273</ele>
        <time>2022-01-01T10:31:56Z</time>
      </trkpt>
      <trkpt lat="43.28581" lon="6.40991">
        <ele>335.43319702148</ele>
        <time>2022-01-01T10:31:58Z</time>
      </trkpt>
      <trkpt lat="43.28629" lon="6.40949">
        <ele>313.77590942383</ele>
        <time>2022-01-01T10:32:04Z</time>
      </trkpt>
      <trkpt lat="43.28649" lon="6.40948">
        <ele>313.64044189453</ele>
        <time>2022-01-01T10:32:08Z</time>
      </trkpt>
      <trkpt lat="43.28652" lon="6.40967">
        <ele>313.65536499023</ele>
        <time>2022-01-01T10:32:12Z</time>
      </trkpt>
      <trkpt lat="43.28655" lon="6.40982">
        <ele>315.32485961914</ele>
        <time>2022-01-01T10:32:16Z</time>
      </trkpt>
      <trkpt lat="43.28658" lon="6.41012">
        <ele>315.37579345703</ele>
        <time>2022-01-01T10:32:22Z</time>
      </trkpt>
      <trkpt lat="43.28663" lon="6.41042">
        <ele>315.35897827148</ele>
        <time>2022-01-01T10:32:28Z</time>
      </trkpt>
      <trkpt lat="43.28668" lon="6.41065">
        <ele>313.66110229492</ele>
        <time>2022-01-01T10:32:32Z</time>
      </trkpt>
      <trkpt lat="43.28677" lon="6.41106">
        <ele>313.23501586914</ele>
        <time>2022-01-01T10:32:38Z</time>
      </trkpt>
      <trkpt lat="43.28697" lon="6.4114">
        <ele>316.76788330078</ele>
        <time>2022-01-01T10:32:44Z</time>
      </trkpt>
      <trkpt lat="43.28711" lon="6.41153">
        <ele>316.57040405273</ele>
        <time>2022-01-01T10:32:46Z</time>
      </trkpt>
      <trkpt lat="43.2875" lon="6.41187">
        <ele>315.75326538086</ele>
        <time>2022-01-01T10:32:52Z</time>
      </trkpt>
      <trkpt lat="43.28762" lon="6.41198">
        <ele>309.40487670898</ele>
        <time>2022-01-01T10:32:56Z</time>
      </trkpt>
      <trkpt lat="43.28783" lon="6.41203">
        <ele>309.09020996094</ele>
        <time>2022-01-01T10:33:00Z</time>
      </trkpt>
      <trkpt lat="43.28804" lon="6.41224">
        <ele>308.81060791016</ele>
        <time>2022-01-01T10:33:04Z</time>
      </trkpt>
      <trkpt lat="43.28826" lon="6.41242">
        <ele>313.21789550781</ele>
        <time>2022-01-01T10:33:08Z</time>
      </trkpt>
      <trkpt lat="43.28834" lon="6.4126">
        <ele>313.23468017578</ele>
        <time>2022-01-01T10:33:12Z</time>
      </trkpt>
      <trkpt lat="43.28841" lon="6.41273">
        <ele>313.29379272461</ele>
        <time>2022-01-01T10:33:16Z</time>
      </trkpt>
      <trkpt lat="43.28847" lon="6.41282">
        <ele>310.89657592773</ele>
        <time>2022-01-01T10:33:20Z</time>
      </trkpt>
      <trkpt lat="43.28859" lon="6.41298">
        <ele>311.10073852539</ele>
        <time>2022-01-01T10:33:30Z</time>
      </trkpt>
      <trkpt lat="43.28866" lon="6.4131">
        <ele>311.8796081543</ele>
        <time>2022-01-01T10:33:36Z</time>
      </trkpt>
      <trkpt lat="43.28875" lon="6.4133">
        <ele>312.04196166992</ele>
        <time>2022-01-01T10:33:42Z</time>
      </trkpt>
      <trkpt lat="43.28881" lon="6.41342">
        <ele>317.66229248047</ele>
        <time>2022-01-01T10:33:46Z</time>
      </trkpt>
      <trkpt lat="43.28885" lon="6.41356">
        <ele>317.822265625</ele>
        <time>2022-01-01T10:33:50Z</time>
      </trkpt>
      <trkpt lat="43.2889" lon="6.41369">
        <ele>317.92987060547</ele>
        <time>2022-01-01T10:33:54Z</time>
      </trkpt>
      <trkpt lat="43.28891" lon="6.41387">
        <ele>314.01351928711</ele>
        <time>2022-01-01T10:34:00Z</time>
      </trkpt>
      <trkpt lat="43.28891" lon="6.4141">
        <ele>314.18264770508</ele>
        <time>2022-01-01T10:34:06Z</time>
      </trkpt>
      <trkpt lat="43.28892" lon="6.4143">
        <ele>315.32363891602</ele>
        <time>2022-01-01T10:34:14Z</time>
      </trkpt>
      <trkpt lat="43.28898" lon="6.41449">
        <ele>315.17556762695</ele>
        <time>2022-01-01T10:34:22Z</time>
      </trkpt>
      <trkpt lat="43.28912" lon="6.41461">
        <ele>315.26254272461</ele>
        <time>2022-01-01T10:34:28Z</time>
      </trkpt>
      <trkpt lat="43.28936" lon="6.41461">
        <ele>324.15621948242</ele>
        <time>2022-01-01T10:34:36Z</time>
      </trkpt>
      <trkpt lat="43.28944" lon="6.41452">
        <ele>324.16342163086</ele>
        <time>2022-01-01T10:34:40Z</time>
      </trkpt>
      <trkpt lat="43.2895" lon="6.41439">
        <ele>324.09661865234</ele>
        <time>2022-01-01T10:34:44Z</time>
      </trkpt>
      <trkpt lat="43.28955" lon="6.41424">
        <ele>316.1266784668</ele>
        <time>2022-01-01T10:34:48Z</time>
      </trkpt>
      <trkpt lat="43.2896" lon="6.41405">
        <ele>316.04257202148</ele>
        <time>2022-01-01T10:34:52Z</time>
      </trkpt>
      <trkpt lat="43.28966" lon="6.41382">
        <ele>315.95419311523</ele>
        <time>2022-01-01T10:34:56Z</time>
      </trkpt>
      <trkpt lat="43.2897" lon="6.41357">
        <ele>317.69989013672</ele>
        <time>2022-01-01T10:35:00Z</time>
      </trkpt>
      <trkpt lat="43.28971" lon="6.41335">
        <ele>317.64511108398</ele>
        <time>2022-01-01T10:35:04Z</time>
      </trkpt>
      <trkpt lat="43.28973" lon="6.413">
        <ele>317.55288696289</ele>
        <time>2022-01-01T10:35:10Z</time>
      </trkpt>
      <trkpt lat="43.28982" lon="6.41273">
        <ele>314.91226196289</ele>
        <time>2022-01-01T10:35:16Z</time>
      </trkpt>
      <trkpt lat="43.28986" lon="6.41243">
        <ele>314.91128540039</ele>
        <time>2022-01-01T10:35:20Z</time>
      </trkpt>
      <trkpt lat="43.28991" lon="6.4122">
        <ele>311.02166748047</ele>
        <time>2022-01-01T10:35:24Z</time>
      </trkpt>
      <trkpt lat="43.28998" lon="6.41195">
        <ele>310.93518066406</ele>
        <time>2022-01-01T10:35:28Z</time>
      </trkpt>
      <trkpt lat="43.29004" lon="6.41168">
        <ele>310.81988525391</ele>
        <time>2022-01-01T10:35:32Z</time>
      </trkpt>
      <trkpt lat="43.29012" lon="6.41144">
        <ele>307.59631347656</ele>
        <time>2022-01-01T10:35:36Z</time>
      </trkpt>
      <trkpt lat="43.29012" lon="6.41102">
        <ele>307.38589477539</ele>
        <time>2022-01-01T10:35:42Z</time>
      </trkpt>
      <trkpt lat="43.29019" lon="6.41085">
        <ele>307.39553833008</ele>
        <time>2022-01-01T10:35:46Z</time>
      </trkpt>
      <trkpt lat="43.29029" lon="6.41051">
        <ele>308.1198425293</ele>
        <time>2022-01-01T10:35:52Z</time>
      </trkpt>
      <trkpt lat="43.29039" lon="6.41031">
        <ele>308.05163574219</ele>
        <time>2022-01-01T10:35:56Z</time>
      </trkpt>
      <trkpt lat="43.29045" lon="6.41011">
        <ele>307.96084594727</ele>
        <time>2022-01-01T10:36:00Z</time>
      </trkpt>
      <trkpt lat="43.29043" lon="6.40987">
        <ele>303.07955932617</ele>
        <time>2022-01-01T10:36:04Z</time>
      </trkpt>
      <trkpt lat="43.2904" lon="6.40954">
        <ele>302.80764770508</ele>
        <time>2022-01-01T10:36:08Z</time>
      </trkpt>
      <trkpt lat="43.29037" lon="6.40925">
        <ele>302.58331298828</ele>
        <time>2022-01-01T10:36:12Z</time>
      </trkpt>
      <trkpt lat="43.29045" lon="6.40893">
        <ele>303.04626464844</ele>
        <time>2022-01-01T10:36:16Z</time>
      </trkpt>
      <trkpt lat="43.2905" lon="6.40861">
        <ele>302.6696472168</ele>
        <time>2022-01-01T10:36:20Z</time>
      </trkpt>
      <trkpt lat="43.29055" lon="6.40839">
        <ele>302.14453125</ele>
        <time>2022-01-01T10:36:24Z</time>
      </trkpt>
      <trkpt lat="43.29066" lon="6.40843">
        <ele>294.73028564453</ele>
        <time>2022-01-01T10:36:30Z</time>
      </trkpt>
      <trkpt lat="43.29072" lon="6.40856">
        <ele>294.77258300781</ele>
        <time>2022-01-01T10:36:34Z</time>
      </trkpt>
      <trkpt lat="43.29076" lon="6.40873">
        <ele>294.9287109375</ele>
        <time>2022-01-01T10:36:40Z</time>
      </trkpt>
      <trkpt lat="43.29085" lon="6.40895">
        <ele>306.80355834961</ele>
        <time>2022-01-01T10:36:48Z</time>
      </trkpt>
      <trkpt lat="43.2909" lon="6.40911">
        <ele>306.623046875</ele>
        <time>2022-01-01T10:36:56Z</time>
      </trkpt>
      <trkpt lat="43.2909" lon="6.40932">
        <ele>306.88729858398</ele>
        <time>2022-01-01T10:37:04Z</time>
      </trkpt>
      <trkpt lat="43.2909" lon="6.40952">
        <ele>306.57339477539</ele>
        <time>2022-01-01T10:37:10Z</time>
      </trkpt>
      <trkpt lat="43.29091" lon="6.40968">
        <ele>306.77374267578</ele>
        <time>2022-01-01T10:37:16Z</time>
      </trkpt>
      <trkpt lat="43.29102" lon="6.40987">
        <ele>308.33090209961</ele>
        <time>2022-01-01T10:37:24Z</time>
      </trkpt>
      <trkpt lat="43.29116" lon="6.40995">
        <ele>308.51391601562</ele>
        <time>2022-01-01T10:37:30Z</time>
      </trkpt>
      <trkpt lat="43.29135" lon="6.40996">
        <ele>307.69750976562</ele>
        <time>2022-01-01T10:37:38Z</time>
      </trkpt>
      <trkpt lat="43.29145" lon="6.40997">
        <ele>307.86950683594</ele>
        <time>2022-01-01T10:37:42Z</time>
      </trkpt>
      <trkpt lat="43.29158" lon="6.40998">
        <ele>310.19616699219</ele>
        <time>2022-01-01T10:37:48Z</time>
      </trkpt>
      <trkpt lat="43.29157" lon="6.41013">
        <ele>310.35711669922</ele>
        <time>2022-01-01T10:37:56Z</time>
      </trkpt>
      <trkpt lat="43.29143" lon="6.41028">
        <ele>314.11627197266</ele>
        <time>2022-01-01T10:38:04Z</time>
      </trkpt>
      <trkpt lat="43.29134" lon="6.41039">
        <ele>314.1960144043</ele>
        <time>2022-01-01T10:38:10Z</time>
      </trkpt>
      <trkpt lat="43.29127" lon="6.4105">
        <ele>315.65756225586</ele>
        <time>2022-01-01T10:38:14Z</time>
      </trkpt>
      <trkpt lat="43.29121" lon="6.41065">
        <ele>315.71328735352</ele>
        <time>2022-01-01T10:38:18Z</time>
      </trkpt>
      <trkpt lat="43.29115" lon="6.41083">
        <ele>315.82473754883</ele>
        <time>2022-01-01T10:38:24Z</time>
      </trkpt>
      <trkpt lat="43.29105" lon="6.41118">
        <ele>314.09088134766</ele>
        <time>2022-01-01T10:38:34Z</time>
      </trkpt>
      <trkpt lat="43.29106" lon="6.41131">
        <ele>314.14276123047</ele>
        <time>2022-01-01T10:38:38Z</time>
      </trkpt>
      <trkpt lat="43.29109" lon="6.41166">
        <ele>323.41723632812</ele>
        <time>2022-01-01T10:38:48Z</time>
      </trkpt>
      <trkpt lat="43.29112" lon="6.4118">
        <ele>320.74172973633</ele>
        <time>2022-01-01T10:38:52Z</time>
      </trkpt>
      <trkpt lat="43.29118" lon="6.41206">
        <ele>320.79315185547</ele>
        <time>2022-01-01T10:38:58Z</time>
      </trkpt>
      <trkpt lat="43.29121" lon="6.41224">
        <ele>320.81524658203</ele>
        <time>2022-01-01T10:39:02Z</time>
      </trkpt>
      <trkpt lat="43.29124" lon="6.41242">
        <ele>324.37182617188</ele>
        <time>2022-01-01T10:39:06Z</time>
      </trkpt>
      <trkpt lat="43.29131" lon="6.4127">
        <ele>324.30700683594</ele>
        <time>2022-01-01T10:39:12Z</time>
      </trkpt>
      <trkpt lat="43.29135" lon="6.41298">
        <ele>323.30532836914</ele>
        <time>2022-01-01T10:39:18Z</time>
      </trkpt>
      <trkpt lat="43.29138" lon="6.41318">
        <ele>323.42208862305</ele>
        <time>2022-01-01T10:39:22Z</time>
      </trkpt>
      <trkpt lat="43.2914" lon="6.41339">
        <ele>323.39178466797</ele>
        <time>2022-01-01T10:39:26Z</time>
      </trkpt>
      <trkpt lat="43.29143" lon="6.41358">
        <ele>319.00375366211</ele>
        <time>2022-01-01T10:39:30Z</time>
      </trkpt>
      <trkpt lat="43.29148" lon="6.41377">
        <ele>319.08828735352</ele>
        <time>2022-01-01T10:39:34Z</time>
      </trkpt>
      <trkpt lat="43.29153" lon="6.41395">
        <ele>319.14883422852</ele>
        <time>2022-01-01T10:39:38Z</time>
      </trkpt>
      <trkpt lat="43.29162" lon="6.41417">
        <ele>321.75527954102</ele>
        <time>2022-01-01T10:39:44Z</time>
      </trkpt>
      <trkpt lat="43.2917" lon="6.41434">
        <ele>321.78366088867</ele>
        <time>2022-01-01T10:39:48Z</time>
      </trkpt>
      <trkpt lat="43.29176" lon="6.4145">
        <ele>321.79708862305</ele>
        <time>2022-01-01T10:39:52Z</time>
      </trkpt>
      <trkpt lat="43.29181" lon="6.41462">
        <ele>317.13412475586</ele>
        <time>2022-01-01T10:39:56Z</time>
      </trkpt>
      <trkpt lat="43.29194" lon="6.41474">
        <ele>317.04669189453</ele>
        <time>2022-01-01T10:40:00Z</time>
      </trkpt>
      <trkpt lat="43.29209" lon="6.41478">
        <ele>317.03082275391</ele>
        <time>2022-01-01T10:40:04Z</time>
      </trkpt>
      <trkpt lat="43.29221" lon="6.41482">
        <ele>314.9299621582</ele>
        <time>2022-01-01T10:40:08Z</time>
      </trkpt>
      <trkpt lat="43.29236" lon="6.41488">
        <ele>314.77383422852</ele>
        <time>2022-01-01T10:40:12Z</time>
      </trkpt>
      <trkpt lat="43.29251" lon="6.41493">
        <ele>314.72482299805</ele>
        <time>2022-01-01T10:40:16Z</time>
      </trkpt>
      <trkpt lat="43.29277" lon="6.41492">
        <ele>316.98452758789</ele>
        <time>2022-01-01T10:40:22Z</time>
      </trkpt>
      <trkpt lat="43.29295" lon="6.41487">
        <ele>316.97250366211</ele>
        <time>2022-01-01T10:40:26Z</time>
      </trkpt>
      <trkpt lat="43.29312" lon="6.41486">
        <ele>316.96435546875</ele>
        <time>2022-01-01T10:40:30Z</time>
      </trkpt>
      <trkpt lat="43.29322" lon="6.41497">
        <ele>315.02951049805</ele>
        <time>2022-01-01T10:40:34Z</time>
      </trkpt>
      <trkpt lat="43.29319" lon="6.41517">
        <ele>315.12463378906</ele>
        <time>2022-01-01T10:40:40Z</time>
      </trkpt>
      <trkpt lat="43.29319" lon="6.41531">
        <ele>320.99444580078</ele>
        <time>2022-01-01T10:40:46Z</time>
      </trkpt>
      <trkpt lat="43.29318" lon="6.41547">
        <ele>321.12127685547</ele>
        <time>2022-01-01T10:40:52Z</time>
      </trkpt>
      <trkpt lat="43.29318" lon="6.41561">
        <ele>321.23083496094</ele>
        <time>2022-01-01T10:40:56Z</time>
      </trkpt>
      <trkpt lat="43.29319" lon="6.41577">
        <ele>323.57907104492</ele>
        <time>2022-01-01T10:41:04Z</time>
      </trkpt>
      <trkpt lat="43.29328" lon="6.41597">
        <ele>322.54815673828</ele>
        <time>2022-01-01T10:41:14Z</time>
      </trkpt>
      <trkpt lat="43.29333" lon="6.41615">
        <ele>322.70092773438</ele>
        <time>2022-01-01T10:41:22Z</time>
      </trkpt>
      <trkpt lat="43.29332" lon="6.41633">
        <ele>331.72766113281</ele>
        <time>2022-01-01T10:41:28Z</time>
      </trkpt>
      <trkpt lat="43.29333" lon="6.41646">
        <ele>331.80163574219</ele>
        <time>2022-01-01T10:41:32Z</time>
      </trkpt>
      <trkpt lat="43.29335" lon="6.41662">
        <ele>331.82037353516</ele>
        <time>2022-01-01T10:41:36Z</time>
      </trkpt>
      <trkpt lat="43.29343" lon="6.41687">
        <ele>328.61923217773</ele>
        <time>2022-01-01T10:41:42Z</time>
      </trkpt>
      <trkpt lat="43.29347" lon="6.417">
        <ele>328.62643432617</ele>
        <time>2022-01-01T10:41:46Z</time>
      </trkpt>
      <trkpt lat="43.29355" lon="6.41715">
        <ele>328.6076965332</ele>
        <time>2022-01-01T10:41:50Z</time>
      </trkpt>
      <trkpt lat="43.29367" lon="6.41729">
        <ele>325.69891357422</ele>
        <time>2022-01-01T10:41:54Z</time>
      </trkpt>
      <trkpt lat="43.29381" lon="6.41741">
        <ele>325.58599853516</ele>
        <time>2022-01-01T10:41:58Z</time>
      </trkpt>
      <trkpt lat="43.29393" lon="6.41748">
        <ele>325.54229736328</ele>
        <time>2022-01-01T10:42:02Z</time>
      </trkpt>
      <trkpt lat="43.29416" lon="6.41744">
        <ele>326.04104614258</ele>
        <time>2022-01-01T10:42:28Z</time>
      </trkpt>
      <trkpt lat="43.2943" lon="6.41755">
        <ele>326.67907714844</ele>
        <time>2022-01-01T10:42:32Z</time>
      </trkpt>
      <trkpt lat="43.29432" lon="6.41774">
        <ele>326.60894775391</ele>
        <time>2022-01-01T10:42:36Z</time>
      </trkpt>
      <trkpt lat="43.29418" lon="6.41789">
        <ele>326.64401245117</ele>
        <time>2022-01-01T10:42:42Z</time>
      </trkpt>
      <trkpt lat="43.29404" lon="6.41794">
        <ele>324.40148925781</ele>
        <time>2022-01-01T10:42:46Z</time>
      </trkpt>
      <trkpt lat="43.29389" lon="6.41802">
        <ele>324.45141601562</ele>
        <time>2022-01-01T10:42:50Z</time>
      </trkpt>
      <trkpt lat="43.29373" lon="6.41807">
        <ele>324.44616699219</ele>
        <time>2022-01-01T10:42:54Z</time>
      </trkpt>
      <trkpt lat="43.29354" lon="6.41811">
        <ele>326.28936767578</ele>
        <time>2022-01-01T10:43:00Z</time>
      </trkpt>
      <trkpt lat="43.29343" lon="6.41814">
        <ele>326.44357299805</ele>
        <time>2022-01-01T10:43:04Z</time>
      </trkpt>
      <trkpt lat="43.29332" lon="6.41816">
        <ele>326.517578125</ele>
        <time>2022-01-01T10:43:08Z</time>
      </trkpt>
      <trkpt lat="43.29318" lon="6.41814">
        <ele>324.39401245117</ele>
        <time>2022-01-01T10:43:12Z</time>
      </trkpt>
      <trkpt lat="43.29305" lon="6.41815">
        <ele>324.47616577148</ele>
        <time>2022-01-01T10:43:16Z</time>
      </trkpt>
      <trkpt lat="43.29295" lon="6.41809">
        <ele>324.52612304688</ele>
        <time>2022-01-01T10:43:20Z</time>
      </trkpt>
      <trkpt lat="43.29285" lon="6.418">
        <ele>320.34173583984</ele>
        <time>2022-01-01T10:43:24Z</time>
      </trkpt>
      <trkpt lat="43.29276" lon="6.41793">
        <ele>320.55645751953</ele>
        <time>2022-01-01T10:43:30Z</time>
      </trkpt>
      <trkpt lat="43.29264" lon="6.41781">
        <ele>324.64868164062</ele>
        <time>2022-01-01T10:43:38Z</time>
      </trkpt>
      <trkpt lat="43.29256" lon="6.41772">
        <ele>324.73324584961</ele>
        <time>2022-01-01T10:43:42Z</time>
      </trkpt>
      <trkpt lat="43.29249" lon="6.41762">
        <ele>324.87545776367</ele>
        <time>2022-01-01T10:43:46Z</time>
      </trkpt>
      <trkpt lat="43.29239" lon="6.41749">
        <ele>327.66064453125</ele>
        <time>2022-01-01T10:43:54Z</time>
      </trkpt>
      <trkpt lat="43.2922" lon="6.41758">
        <ele>327.45458984375</ele>
        <time>2022-01-01T10:44:00Z</time>
      </trkpt>
      <trkpt lat="43.29212" lon="6.41763">
        <ele>334.30389404297</ele>
        <time>2022-01-01T10:44:02Z</time>
      </trkpt>
      <trkpt lat="43.29191" lon="6.41789">
        <ele>334.22561645508</ele>
        <time>2022-01-01T10:44:06Z</time>
      </trkpt>
      <trkpt lat="43.29193" lon="6.41821">
        <ele>333.80380249023</ele>
        <time>2022-01-01T10:44:10Z</time>
      </trkpt>
      <trkpt lat="43.2921" lon="6.41853">
        <ele>333.12088012695</ele>
        <time>2022-01-01T10:44:16Z</time>
      </trkpt>
      <trkpt lat="43.29204" lon="6.41891">
        <ele>332.76824951172</ele>
        <time>2022-01-01T10:44:20Z</time>
      </trkpt>
      <trkpt lat="43.29203" lon="6.41934">
        <ele>332.50833129883</ele>
        <time>2022-01-01T10:44:24Z</time>
      </trkpt>
      <trkpt lat="43.29202" lon="6.41979">
        <ele>330.73934936523</ele>
        <time>2022-01-01T10:44:28Z</time>
      </trkpt>
      <trkpt lat="43.29184" lon="6.41972">
        <ele>330.47848510742</ele>
        <time>2022-01-01T10:44:32Z</time>
      </trkpt>
      <trkpt lat="43.29175" lon="6.41969">
        <ele>330.60821533203</ele>
        <time>2022-01-01T10:44:36Z</time>
      </trkpt>
      <trkpt lat="43.29166" lon="6.41967">
        <ele>326.28546142578</ele>
        <time>2022-01-01T10:44:40Z</time>
      </trkpt>
      <trkpt lat="43.29156" lon="6.41962">
        <ele>326.38299560547</ele>
        <time>2022-01-01T10:44:44Z</time>
      </trkpt>
      <trkpt lat="43.29147" lon="6.41955">
        <ele>326.48052978516</ele>
        <time>2022-01-01T10:44:48Z</time>
      </trkpt>
      <trkpt lat="43.29139" lon="6.41949">
        <ele>327.69165039062</ele>
        <time>2022-01-01T10:44:52Z</time>
      </trkpt>
      <trkpt lat="43.29129" lon="6.41943">
        <ele>327.72961425781</ele>
        <time>2022-01-01T10:44:58Z</time>
      </trkpt>
      <trkpt lat="43.29111" lon="6.41935">
        <ele>328.68249511719</ele>
        <time>2022-01-01T10:45:04Z</time>
      </trkpt>
      <trkpt lat="43.29103" lon="6.41928">
        <ele>328.68200683594</ele>
        <time>2022-01-01T10:45:08Z</time>
      </trkpt>
      <trkpt lat="43.29086" lon="6.41923">
        <ele>325.99981689453</ele>
        <time>2022-01-01T10:45:18Z</time>
      </trkpt>
      <trkpt lat="43.29067" lon="6.41921">
        <ele>326.00701904297</ele>
        <time>2022-01-01T10:45:24Z</time>
      </trkpt>
      <trkpt lat="43.29051" lon="6.4193">
        <ele>324.23501586914</ele>
        <time>2022-01-01T10:45:30Z</time>
      </trkpt>
      <trkpt lat="43.29042" lon="6.41942">
        <ele>324.19177246094</ele>
        <time>2022-01-01T10:45:34Z</time>
      </trkpt>
      <trkpt lat="43.29028" lon="6.41953">
        <ele>327.67456054688</ele>
        <time>2022-01-01T10:45:38Z</time>
      </trkpt>
      <trkpt lat="43.29012" lon="6.41955">
        <ele>327.64672851562</ele>
        <time>2022-01-01T10:45:42Z</time>
      </trkpt>
      <trkpt lat="43.2899" lon="6.41956">
        <ele>327.5266418457</ele>
        <time>2022-01-01T10:45:48Z</time>
      </trkpt>
      <trkpt lat="43.2898" lon="6.41955">
        <ele>328.21636962891</ele>
        <time>2022-01-01T10:45:52Z</time>
      </trkpt>
      <trkpt lat="43.28968" lon="6.41951">
        <ele>328.19137573242</ele>
        <time>2022-01-01T10:45:56Z</time>
      </trkpt>
      <trkpt lat="43.28956" lon="6.41945">
        <ele>328.2336730957</ele>
        <time>2022-01-01T10:46:00Z</time>
      </trkpt>
      <trkpt lat="43.28942" lon="6.41943">
        <ele>319.54843139648</ele>
        <time>2022-01-01T10:46:04Z</time>
      </trkpt>
      <trkpt lat="43.28926" lon="6.41941">
        <ele>319.53018188477</ele>
        <time>2022-01-01T10:46:08Z</time>
      </trkpt>
      <trkpt lat="43.28913" lon="6.41942">
        <ele>319.46389770508</ele>
        <time>2022-01-01T10:46:12Z</time>
      </trkpt>
      <trkpt lat="43.28898" lon="6.41949">
        <ele>306.07791137695</ele>
        <time>2022-01-01T10:46:18Z</time>
      </trkpt>
      <trkpt lat="43.28888" lon="6.41954">
        <ele>306.07452392578</ele>
        <time>2022-01-01T10:46:22Z</time>
      </trkpt>
      <trkpt lat="43.28876" lon="6.41958">
        <ele>323.66543579102</ele>
        <time>2022-01-01T10:46:30Z</time>
      </trkpt>
      <trkpt lat="43.28883" lon="6.41964">
        <ele>330.13354492188</ele>
        <time>2022-01-01T10:47:04Z</time>
      </trkpt>
      <trkpt lat="43.28894" lon="6.41954">
        <ele>328.57501220703</ele>
        <time>2022-01-01T10:47:10Z</time>
      </trkpt>
      <trkpt lat="43.28908" lon="6.4195">
        <ele>328.53802490234</ele>
        <time>2022-01-01T10:47:18Z</time>
      </trkpt>
      <trkpt lat="43.28896" lon="6.41938">
        <ele>325.16314697266</ele>
        <time>2022-01-01T10:47:30Z</time>
      </trkpt>
      <trkpt lat="43.28886" lon="6.41938">
        <ele>328.70162963867</ele>
        <time>2022-01-01T10:47:38Z</time>
      </trkpt>
      <trkpt lat="43.28874" lon="6.41946">
        <ele>326.44631958008</ele>
        <time>2022-01-01T10:47:50Z</time>
      </trkpt>
      <trkpt lat="43.28876" lon="6.41959">
        <ele>325.63259887695</ele>
        <time>2022-01-01T10:48:00Z</time>
      </trkpt>
      <trkpt lat="43.28886" lon="6.41963">
        <ele>331.43063354492</ele>
        <time>2022-01-01T10:49:06Z</time>
      </trkpt>
      <trkpt lat="43.28884" lon="6.41976">
        <ele>332.15292358398</ele>
        <time>2022-01-01T10:50:28Z</time>
      </trkpt>
      <trkpt lat="43.2889" lon="6.41987">
        <ele>332.10620117188</ele>
        <time>2022-01-01T10:50:36Z</time>
      </trkpt>
      <trkpt lat="43.28894" lon="6.42002">
        <ele>329.47286987305</ele>
        <time>2022-01-01T10:50:48Z</time>
      </trkpt>
      <trkpt lat="43.28899" lon="6.42013">
        <ele>329.62225341797</ele>
        <time>2022-01-01T10:50:52Z</time>
      </trkpt>
      <trkpt lat="43.28904" lon="6.42025">
        <ele>329.89129638672</ele>
        <time>2022-01-01T10:50:58Z</time>
      </trkpt>
      <trkpt lat="43.28898" lon="6.42044">
        <ele>333.71264648438</ele>
        <time>2022-01-01T10:51:06Z</time>
      </trkpt>
      <trkpt lat="43.28899" lon="6.4206">
        <ele>333.84860229492</ele>
        <time>2022-01-01T10:51:10Z</time>
      </trkpt>
      <trkpt lat="43.28903" lon="6.42077">
        <ele>335.42715454102</ele>
        <time>2022-01-01T10:51:18Z</time>
      </trkpt>
      <trkpt lat="43.28899" lon="6.4209">
        <ele>341.27142333984</ele>
        <time>2022-01-01T10:51:32Z</time>
      </trkpt>
      <trkpt lat="43.28905" lon="6.42101">
        <ele>341.40689086914</ele>
        <time>2022-01-01T10:51:36Z</time>
      </trkpt>
      <trkpt lat="43.28914" lon="6.42107">
        <ele>348.91754150391</ele>
        <time>2022-01-01T10:51:40Z</time>
      </trkpt>
      <trkpt lat="43.28926" lon="6.4211">
        <ele>349.35327148438</ele>
        <time>2022-01-01T10:51:50Z</time>
      </trkpt>
      <trkpt lat="43.28932" lon="6.42123">
        <ele>348.70321655273</ele>
        <time>2022-01-01T10:51:58Z</time>
      </trkpt>
      <trkpt lat="43.28941" lon="6.42134">
        <ele>348.84161376953</ele>
        <time>2022-01-01T10:52:04Z</time>
      </trkpt>
      <trkpt lat="43.2895" lon="6.42146">
        <ele>350.85702514648</ele>
        <time>2022-01-01T10:52:18Z</time>
      </trkpt>
      <trkpt lat="43.28956" lon="6.42157">
        <ele>352.20120239258</ele>
        <time>2022-01-01T10:52:22Z</time>
      </trkpt>
      <trkpt lat="43.28965" lon="6.42165">
        <ele>352.26992797852</ele>
        <time>2022-01-01T10:52:26Z</time>
      </trkpt>
      <trkpt lat="43.28977" lon="6.42163">
        <ele>353.60415649414</ele>
        <time>2022-01-01T10:52:34Z</time>
      </trkpt>
      <trkpt lat="43.28988" lon="6.42172">
        <ele>351.09271240234</ele>
        <time>2022-01-01T10:52:46Z</time>
      </trkpt>
      <trkpt lat="43.28998" lon="6.4218">
        <ele>351.42276000977</ele>
        <time>2022-01-01T10:52:56Z</time>
      </trkpt>
      <trkpt lat="43.29004" lon="6.42198">
        <ele>358.36264038086</ele>
        <time>2022-01-01T10:53:04Z</time>
      </trkpt>
      <trkpt lat="43.29012" lon="6.42205">
        <ele>359.64514160156</ele>
        <time>2022-01-01T10:53:12Z</time>
      </trkpt>
      <trkpt lat="43.29013" lon="6.42228">
        <ele>359.86373901367</ele>
        <time>2022-01-01T10:53:20Z</time>
      </trkpt>
      <trkpt lat="43.29015" lon="6.42244">
        <ele>365.26281738281</ele>
        <time>2022-01-01T10:53:30Z</time>
      </trkpt>
      <trkpt lat="43.29015" lon="6.42257">
        <ele>365.46267700195</ele>
        <time>2022-01-01T10:53:34Z</time>
      </trkpt>
      <trkpt lat="43.29021" lon="6.42269">
        <ele>365.33987426758</ele>
        <time>2022-01-01T10:53:38Z</time>
      </trkpt>
      <trkpt lat="43.29023" lon="6.42285">
        <ele>365.57235717773</ele>
        <time>2022-01-01T10:53:48Z</time>
      </trkpt>
      <trkpt lat="43.29026" lon="6.42309">
        <ele>363.75164794922</ele>
        <time>2022-01-01T10:53:58Z</time>
      </trkpt>
      <trkpt lat="43.29032" lon="6.4232">
        <ele>363.77276611328</ele>
        <time>2022-01-01T10:54:04Z</time>
      </trkpt>
      <trkpt lat="43.29035" lon="6.42334">
        <ele>367.98150634766</ele>
        <time>2022-01-01T10:54:12Z</time>
      </trkpt>
      <trkpt lat="43.29036" lon="6.42359">
        <ele>364.89456176758</ele>
        <time>2022-01-01T10:54:22Z</time>
      </trkpt>
      <trkpt lat="43.29042" lon="6.4237">
        <ele>364.97528076172</ele>
        <time>2022-01-01T10:54:26Z</time>
      </trkpt>
      <trkpt lat="43.29046" lon="6.42385">
        <ele>366.70321655273</ele>
        <time>2022-01-01T10:54:36Z</time>
      </trkpt>
      <trkpt lat="43.29046" lon="6.424">
        <ele>366.73251342773</ele>
        <time>2022-01-01T10:54:40Z</time>
      </trkpt>
      <trkpt lat="43.29057" lon="6.42412">
        <ele>374.58551025391</ele>
        <time>2022-01-01T10:54:46Z</time>
      </trkpt>
      <trkpt lat="43.29073" lon="6.42427">
        <ele>374.78921508789</ele>
        <time>2022-01-01T10:54:56Z</time>
      </trkpt>
      <trkpt lat="43.29083" lon="6.42429">
        <ele>372.72964477539</ele>
        <time>2022-01-01T10:55:00Z</time>
      </trkpt>
      <trkpt lat="43.29103" lon="6.42425">
        <ele>372.84545898438</ele>
        <time>2022-01-01T10:55:10Z</time>
      </trkpt>
      <trkpt lat="43.29121" lon="6.42422">
        <ele>372.96487426758</ele>
        <time>2022-01-01T10:55:12Z</time>
      </trkpt>
      <trkpt lat="43.29132" lon="6.42416">
        <ele>373.17001342773</ele>
        <time>2022-01-01T10:55:22Z</time>
      </trkpt>
      <trkpt lat="43.29142" lon="6.42423">
        <ele>372.33584594727</ele>
        <time>2022-01-01T10:55:26Z</time>
      </trkpt>
      <trkpt lat="43.2915" lon="6.42417">
        <ele>372.47225952148</ele>
        <time>2022-01-01T10:55:30Z</time>
      </trkpt>
      <trkpt lat="43.29161" lon="6.42418">
        <ele>372.52606201172</ele>
        <time>2022-01-01T10:55:34Z</time>
      </trkpt>
      <trkpt lat="43.29176" lon="6.42428">
        <ele>371.90692138672</ele>
        <time>2022-01-01T10:55:42Z</time>
      </trkpt>
      <trkpt lat="43.2919" lon="6.42427">
        <ele>372.48098754883</ele>
        <time>2022-01-01T10:55:50Z</time>
      </trkpt>
      <trkpt lat="43.29205" lon="6.42428">
        <ele>372.57897949219</ele>
        <time>2022-01-01T10:55:58Z</time>
      </trkpt>
      <trkpt lat="43.29214" lon="6.42424">
        <ele>370.08764648438</ele>
        <time>2022-01-01T10:56:02Z</time>
      </trkpt>
      <trkpt lat="43.29235" lon="6.42418">
        <ele>370.35668945312</ele>
        <time>2022-01-01T10:56:12Z</time>
      </trkpt>
      <trkpt lat="43.29247" lon="6.42424">
        <ele>372.76434326172</ele>
        <time>2022-01-01T10:56:20Z</time>
      </trkpt>
      <trkpt lat="43.29259" lon="6.42423">
        <ele>379.33389282227</ele>
        <time>2022-01-01T10:56:28Z</time>
      </trkpt>
      <trkpt lat="43.29271" lon="6.42427">
        <ele>379.59475708008</ele>
        <time>2022-01-01T10:56:36Z</time>
      </trkpt>
      <trkpt lat="43.29287" lon="6.42424">
        <ele>380.24673461914</ele>
        <time>2022-01-01T10:56:42Z</time>
      </trkpt>
      <trkpt lat="43.29296" lon="6.4243">
        <ele>380.5104675293</ele>
        <time>2022-01-01T10:56:48Z</time>
      </trkpt>
      <trkpt lat="43.29305" lon="6.42436">
        <ele>386.11129760742</ele>
        <time>2022-01-01T10:56:56Z</time>
      </trkpt>
      <trkpt lat="43.29323" lon="6.42434">
        <ele>387.6930847168</ele>
        <time>2022-01-01T10:57:04Z</time>
      </trkpt>
      <trkpt lat="43.29334" lon="6.42436">
        <ele>387.9010925293</ele>
        <time>2022-01-01T10:57:08Z</time>
      </trkpt>
      <trkpt lat="43.2935" lon="6.42434">
        <ele>390.98873901367</ele>
        <time>2022-01-01T10:57:16Z</time>
      </trkpt>
      <trkpt lat="43.29366" lon="6.4243">
        <ele>391.07711791992</ele>
        <time>2022-01-01T10:57:24Z</time>
      </trkpt>
      <trkpt lat="43.29379" lon="6.42426">
        <ele>391.7565612793</ele>
        <time>2022-01-01T10:57:32Z</time>
      </trkpt>
      <trkpt lat="43.29389" lon="6.42422">
        <ele>395.41458129883</ele>
        <time>2022-01-01T10:57:40Z</time>
      </trkpt>
      <trkpt lat="43.29401" lon="6.42419">
        <ele>395.84790039062</ele>
        <time>2022-01-01T10:57:50Z</time>
      </trkpt>
      <trkpt lat="43.29414" lon="6.42424">
        <ele>398.53369140625</ele>
        <time>2022-01-01T10:57:58Z</time>
      </trkpt>
      <trkpt lat="43.29427" lon="6.42428">
        <ele>399.89706420898</ele>
        <time>2022-01-01T10:58:06Z</time>
      </trkpt>
      <trkpt lat="43.29439" lon="6.42426">
        <ele>400.13055419922</ele>
        <time>2022-01-01T10:58:14Z</time>
      </trkpt>
      <trkpt lat="43.2945" lon="6.42418">
        <ele>402.28393554688</ele>
        <time>2022-01-01T10:58:22Z</time>
      </trkpt>
      <trkpt lat="43.29464" lon="6.42402">
        <ele>403.49557495117</ele>
        <time>2022-01-01T10:58:32Z</time>
      </trkpt>
      <trkpt lat="43.29471" lon="6.4239">
        <ele>403.84240722656</ele>
        <time>2022-01-01T10:58:40Z</time>
      </trkpt>
      <trkpt lat="43.29476" lon="6.42377">
        <ele>406.8576965332</ele>
        <time>2022-01-01T10:58:48Z</time>
      </trkpt>
      <trkpt lat="43.29484" lon="6.42367">
        <ele>408.51409912109</ele>
        <time>2022-01-01T10:58:56Z</time>
      </trkpt>
      <trkpt lat="43.29495" lon="6.42366">
        <ele>408.72308349609</ele>
        <time>2022-01-01T10:59:04Z</time>
      </trkpt>
      <trkpt lat="43.29508" lon="6.42366">
        <ele>409.23852539062</ele>
        <time>2022-01-01T10:59:12Z</time>
      </trkpt>
      <trkpt lat="43.2952" lon="6.42371">
        <ele>409.46350097656</ele>
        <time>2022-01-01T10:59:20Z</time>
      </trkpt>
      <trkpt lat="43.29532" lon="6.42377">
        <ele>409.60955810547</ele>
        <time>2022-01-01T10:59:28Z</time>
      </trkpt>
      <trkpt lat="43.29545" lon="6.42382">
        <ele>411.76187133789</ele>
        <time>2022-01-01T10:59:36Z</time>
      </trkpt>
      <trkpt lat="43.29557" lon="6.42386">
        <ele>412.97201538086</ele>
        <time>2022-01-01T10:59:44Z</time>
      </trkpt>
      <trkpt lat="43.29572" lon="6.4239">
        <ele>413.26409912109</ele>
        <time>2022-01-01T10:59:54Z</time>
      </trkpt>
      <trkpt lat="43.29583" lon="6.42391">
        <ele>415.25839233398</ele>
        <time>2022-01-01T11:00:02Z</time>
      </trkpt>
      <trkpt lat="43.29596" lon="6.4239">
        <ele>415.72607421875</ele>
        <time>2022-01-01T11:00:10Z</time>
      </trkpt>
      <trkpt lat="43.29607" lon="6.4239">
        <ele>416.2204284668</ele>
        <time>2022-01-01T11:00:18Z</time>
      </trkpt>
      <trkpt lat="43.29615" lon="6.42398">
        <ele>415.4821472168</ele>
        <time>2022-01-01T11:00:26Z</time>
      </trkpt>
      <trkpt lat="43.29623" lon="6.42415">
        <ele>418.01916503906</ele>
        <time>2022-01-01T11:00:34Z</time>
      </trkpt>
      <trkpt lat="43.29632" lon="6.42427">
        <ele>418.23294067383</ele>
        <time>2022-01-01T11:00:42Z</time>
      </trkpt>
      <trkpt lat="43.29642" lon="6.42439">
        <ele>421.20309448242</ele>
        <time>2022-01-01T11:00:50Z</time>
      </trkpt>
      <trkpt lat="43.29651" lon="6.42452">
        <ele>423.24328613281</ele>
        <time>2022-01-01T11:00:58Z</time>
      </trkpt>
      <trkpt lat="43.29661" lon="6.42464">
        <ele>423.44842529297</ele>
        <time>2022-01-01T11:01:06Z</time>
      </trkpt>
      <trkpt lat="43.29676" lon="6.42479">
        <ele>423.85720825195</ele>
        <time>2022-01-01T11:01:16Z</time>
      </trkpt>
      <trkpt lat="43.29686" lon="6.42489">
        <ele>426.9958190918</ele>
        <time>2022-01-01T11:01:24Z</time>
      </trkpt>
      <trkpt lat="43.29697" lon="6.42496">
        <ele>427.26818847656</ele>
        <time>2022-01-01T11:01:32Z</time>
      </trkpt>
      <trkpt lat="43.29706" lon="6.42493">
        <ele>428.77041625977</ele>
        <time>2022-01-01T11:03:02Z</time>
      </trkpt>
      <trkpt lat="43.29697" lon="6.42479">
        <ele>429.84094238281</ele>
        <time>2022-01-01T11:03:22Z</time>
      </trkpt>
      <trkpt lat="43.29687" lon="6.42468">
        <ele>432.33877563477</ele>
        <time>2022-01-01T11:03:30Z</time>
      </trkpt>
      <trkpt lat="43.29679" lon="6.42452">
        <ele>432.51989746094</ele>
        <time>2022-01-01T11:03:38Z</time>
      </trkpt>
      <trkpt lat="43.29672" lon="6.42433">
        <ele>434.69876098633</ele>
        <time>2022-01-01T11:03:46Z</time>
      </trkpt>
      <trkpt lat="43.29668" lon="6.42421">
        <ele>434.88470458984</ele>
        <time>2022-01-01T11:03:52Z</time>
      </trkpt>
      <trkpt lat="43.29659" lon="6.42406">
        <ele>441.54577636719</ele>
        <time>2022-01-01T11:04:00Z</time>
      </trkpt>
      <trkpt lat="43.2965" lon="6.42383">
        <ele>441.18316650391</ele>
        <time>2022-01-01T11:04:10Z</time>
      </trkpt>
      <trkpt lat="43.29641" lon="6.42364">
        <ele>441.32775878906</ele>
        <time>2022-01-01T11:04:18Z</time>
      </trkpt>
      <trkpt lat="43.29635" lon="6.42355">
        <ele>437.99084472656</ele>
        <time>2022-01-01T11:04:22Z</time>
      </trkpt>
      <trkpt lat="43.29627" lon="6.42341">
        <ele>438.24307250977</ele>
        <time>2022-01-01T11:04:28Z</time>
      </trkpt>
      <trkpt lat="43.29613" lon="6.42332">
        <ele>431.03302001953</ele>
        <time>2022-01-01T11:04:38Z</time>
      </trkpt>
      <trkpt lat="43.29601" lon="6.42324">
        <ele>434.07424926758</ele>
        <time>2022-01-01T11:04:46Z</time>
      </trkpt>
      <trkpt lat="43.2959" lon="6.42314">
        <ele>434.2688293457</ele>
        <time>2022-01-01T11:04:52Z</time>
      </trkpt>
      <trkpt lat="43.29583" lon="6.42301">
        <ele>441.57833862305</ele>
        <time>2022-01-01T11:04:58Z</time>
      </trkpt>
      <trkpt lat="43.2957" lon="6.42287">
        <ele>441.73352050781</ele>
        <time>2022-01-01T11:05:06Z</time>
      </trkpt>
      <trkpt lat="43.2956" lon="6.42275">
        <ele>442.15579223633</ele>
        <time>2022-01-01T11:05:14Z</time>
      </trkpt>
      <trkpt lat="43.2955" lon="6.42269">
        <ele>442.21292114258</ele>
        <time>2022-01-01T11:05:18Z</time>
      </trkpt>
      <trkpt lat="43.29539" lon="6.42258">
        <ele>443.90075683594</ele>
        <time>2022-01-01T11:05:26Z</time>
      </trkpt>
      <trkpt lat="43.29531" lon="6.42251">
        <ele>444.15438842773</ele>
        <time>2022-01-01T11:05:32Z</time>
      </trkpt>
      <trkpt lat="43.29523" lon="6.42242">
        <ele>450.1731262207</ele>
        <time>2022-01-01T11:05:40Z</time>
      </trkpt>
      <trkpt lat="43.29515" lon="6.42233">
        <ele>450.25909423828</ele>
        <time>2022-01-01T11:05:44Z</time>
      </trkpt>
      <trkpt lat="43.29505" lon="6.42218">
        <ele>451.05233764648</ele>
        <time>2022-01-01T11:05:50Z</time>
      </trkpt>
      <trkpt lat="43.29496" lon="6.42203">
        <ele>451.30215454102</ele>
        <time>2022-01-01T11:05:58Z</time>
      </trkpt>
      <trkpt lat="43.29488" lon="6.42188">
        <ele>452.71084594727</ele>
        <time>2022-01-01T11:06:04Z</time>
      </trkpt>
      <trkpt lat="43.29479" lon="6.42168">
        <ele>452.94815063477</ele>
        <time>2022-01-01T11:06:14Z</time>
      </trkpt>
      <trkpt lat="43.29471" lon="6.42151">
        <ele>455.36080932617</ele>
        <time>2022-01-01T11:06:22Z</time>
      </trkpt>
      <trkpt lat="43.29471" lon="6.42134">
        <ele>460.18811035156</ele>
        <time>2022-01-01T11:06:30Z</time>
      </trkpt>
      <trkpt lat="43.29479" lon="6.42117">
        <ele>460.46484375</ele>
        <time>2022-01-01T11:06:38Z</time>
      </trkpt>
      <trkpt lat="43.29493" lon="6.42107">
        <ele>461.22619628906</ele>
        <time>2022-01-01T11:06:48Z</time>
      </trkpt>
      <trkpt lat="43.29503" lon="6.42097">
        <ele>466.25128173828</ele>
        <time>2022-01-01T11:06:58Z</time>
      </trkpt>
      <trkpt lat="43.29509" lon="6.42087">
        <ele>462.52313232422</ele>
        <time>2022-01-01T11:07:08Z</time>
      </trkpt>
      <trkpt lat="43.29513" lon="6.42071">
        <ele>462.6696472168</ele>
        <time>2022-01-01T11:07:16Z</time>
      </trkpt>
      <trkpt lat="43.29515" lon="6.42057">
        <ele>466.73394775391</ele>
        <time>2022-01-01T11:07:26Z</time>
      </trkpt>
      <trkpt lat="43.29525" lon="6.42053">
        <ele>473.43041992188</ele>
        <time>2022-01-01T11:08:14Z</time>
      </trkpt>
      <trkpt lat="43.29539" lon="6.42059">
        <ele>473.52169799805</ele>
        <time>2022-01-01T11:08:22Z</time>
      </trkpt>
      <trkpt lat="43.29552" lon="6.42077">
        <ele>470.90869140625</ele>
        <time>2022-01-01T11:08:32Z</time>
      </trkpt>
      <trkpt lat="43.29564" lon="6.4209">
        <ele>471.67855834961</ele>
        <time>2022-01-01T11:08:40Z</time>
      </trkpt>
      <trkpt lat="43.29575" lon="6.421">
        <ele>471.88800048828</ele>
        <time>2022-01-01T11:08:48Z</time>
      </trkpt>
      <trkpt lat="43.29589" lon="6.42108">
        <ele>474.38290405273</ele>
        <time>2022-01-01T11:08:56Z</time>
      </trkpt>
      <trkpt lat="43.29601" lon="6.42119">
        <ele>474.86633300781</ele>
        <time>2022-01-01T11:09:04Z</time>
      </trkpt>
      <trkpt lat="43.29613" lon="6.4213">
        <ele>475.15649414062</ele>
        <time>2022-01-01T11:09:12Z</time>
      </trkpt>
      <trkpt lat="43.29625" lon="6.4214">
        <ele>476.87536621094</ele>
        <time>2022-01-01T11:09:20Z</time>
      </trkpt>
      <trkpt lat="43.29639" lon="6.42146">
        <ele>478.32360839844</ele>
        <time>2022-01-01T11:09:28Z</time>
      </trkpt>
      <trkpt lat="43.2965" lon="6.42147">
        <ele>478.48168945312</ele>
        <time>2022-01-01T11:09:34Z</time>
      </trkpt>
      <trkpt lat="43.29663" lon="6.42146">
        <ele>479.44686889648</ele>
        <time>2022-01-01T11:09:42Z</time>
      </trkpt>
      <trkpt lat="43.29679" lon="6.4214">
        <ele>479.74520874023</ele>
        <time>2022-01-01T11:09:52Z</time>
      </trkpt>
      <trkpt lat="43.29695" lon="6.42128">
        <ele>483.3498840332</ele>
        <time>2022-01-01T11:10:02Z</time>
      </trkpt>
      <trkpt lat="43.29704" lon="6.42122">
        <ele>488.55905151367</ele>
        <time>2022-01-01T11:10:06Z</time>
      </trkpt>
      <trkpt lat="43.2971" lon="6.42112">
        <ele>488.66186523438</ele>
        <time>2022-01-01T11:10:14Z</time>
      </trkpt>
      <trkpt lat="43.29714" lon="6.42095">
        <ele>490.12725830078</ele>
        <time>2022-01-01T11:10:22Z</time>
      </trkpt>
      <trkpt lat="43.29721" lon="6.42076">
        <ele>492.79672241211</ele>
        <time>2022-01-01T11:10:30Z</time>
      </trkpt>
      <trkpt lat="43.29726" lon="6.42061">
        <ele>493.04461669922</ele>
        <time>2022-01-01T11:10:38Z</time>
      </trkpt>
      <trkpt lat="43.2973" lon="6.42048">
        <ele>494.56140136719</ele>
        <time>2022-01-01T11:10:44Z</time>
      </trkpt>
      <trkpt lat="43.29734" lon="6.42028">
        <ele>494.8039855957</ele>
        <time>2022-01-01T11:10:52Z</time>
      </trkpt>
      <trkpt lat="43.29736" lon="6.42011">
        <ele>491.337890625</ele>
        <time>2022-01-01T11:11:00Z</time>
      </trkpt>
      <trkpt lat="43.29741" lon="6.41992">
        <ele>496.19253540039</ele>
        <time>2022-01-01T11:11:08Z</time>
      </trkpt>
      <trkpt lat="43.29749" lon="6.41977">
        <ele>496.3678894043</ele>
        <time>2022-01-01T11:11:16Z</time>
      </trkpt>
      <trkpt lat="43.29756" lon="6.41961">
        <ele>490.57507324219</ele>
        <time>2022-01-01T11:11:26Z</time>
      </trkpt>
      <trkpt lat="43.29764" lon="6.41943">
        <ele>494.63958740234</ele>
        <time>2022-01-01T11:11:36Z</time>
      </trkpt>
      <trkpt lat="43.29769" lon="6.41924">
        <ele>496.99877929688</ele>
        <time>2022-01-01T11:11:48Z</time>
      </trkpt>
      <trkpt lat="43.29777" lon="6.41911">
        <ele>497.24188232422</ele>
        <time>2022-01-01T11:11:56Z</time>
      </trkpt>
      <trkpt lat="43.29778" lon="6.41895">
        <ele>486.73394775391</ele>
        <time>2022-01-01T11:12:06Z</time>
      </trkpt>
      <trkpt lat="43.29777" lon="6.41875">
        <ele>499.61965942383</ele>
        <time>2022-01-01T11:12:14Z</time>
      </trkpt>
      <trkpt lat="43.29778" lon="6.41858">
        <ele>499.71527099609</ele>
        <time>2022-01-01T11:12:20Z</time>
      </trkpt>
      <trkpt lat="43.29779" lon="6.41845">
        <ele>499.88543701172</ele>
        <time>2022-01-01T11:12:26Z</time>
      </trkpt>
      <trkpt lat="43.29777" lon="6.41828">
        <ele>500.08578491211</ele>
        <time>2022-01-01T11:12:32Z</time>
      </trkpt>
      <trkpt lat="43.29778" lon="6.41812">
        <ele>506.45803833008</ele>
        <time>2022-01-01T11:12:42Z</time>
      </trkpt>
      <trkpt lat="43.29786" lon="6.41801">
        <ele>506.74530029297</ele>
        <time>2022-01-01T11:12:50Z</time>
      </trkpt>
      <trkpt lat="43.29792" lon="6.41783">
        <ele>497.13436889648</ele>
        <time>2022-01-01T11:13:02Z</time>
      </trkpt>
      <trkpt lat="43.29803" lon="6.41756">
        <ele>508.53573608398</ele>
        <time>2022-01-01T11:13:12Z</time>
      </trkpt>
      <trkpt lat="43.29811" lon="6.41739">
        <ele>512.67395019531</ele>
        <time>2022-01-01T11:13:20Z</time>
      </trkpt>
      <trkpt lat="43.2982" lon="6.41727">
        <ele>512.98431396484</ele>
        <time>2022-01-01T11:13:28Z</time>
      </trkpt>
      <trkpt lat="43.29825" lon="6.41712">
        <ele>511.15951538086</ele>
        <time>2022-01-01T11:13:36Z</time>
      </trkpt>
      <trkpt lat="43.29832" lon="6.41702">
        <ele>511.30841064453</ele>
        <time>2022-01-01T11:13:40Z</time>
      </trkpt>
      <trkpt lat="43.29847" lon="6.41685">
        <ele>517.88134765625</ele>
        <time>2022-01-01T11:13:50Z</time>
      </trkpt>
      <trkpt lat="43.29853" lon="6.41676">
        <ele>517.98028564453</ele>
        <time>2022-01-01T11:13:56Z</time>
      </trkpt>
      <trkpt lat="43.29859" lon="6.41666">
        <ele>519.57409667969</ele>
        <time>2022-01-01T11:14:04Z</time>
      </trkpt>
      <trkpt lat="43.29872" lon="6.41648">
        <ele>519.2919921875</ele>
        <time>2022-01-01T11:14:16Z</time>
      </trkpt>
      <trkpt lat="43.29878" lon="6.41632">
        <ele>522.35260009766</ele>
        <time>2022-01-01T11:14:24Z</time>
      </trkpt>
      <trkpt lat="43.29886" lon="6.41612">
        <ele>522.61828613281</ele>
        <time>2022-01-01T11:14:32Z</time>
      </trkpt>
      <trkpt lat="43.29891" lon="6.41587">
        <ele>524.95788574219</ele>
        <time>2022-01-01T11:14:42Z</time>
      </trkpt>
      <trkpt lat="43.29892" lon="6.41567">
        <ele>527.78363037109</ele>
        <time>2022-01-01T11:14:50Z</time>
      </trkpt>
      <trkpt lat="43.29892" lon="6.41552">
        <ele>527.95080566406</ele>
        <time>2022-01-01T11:14:58Z</time>
      </trkpt>
      <trkpt lat="43.29892" lon="6.41534">
        <ele>526.11614990234</ele>
        <time>2022-01-01T11:15:06Z</time>
      </trkpt>
      <trkpt lat="43.2989" lon="6.41518">
        <ele>529.93481445312</ele>
        <time>2022-01-01T11:15:14Z</time>
      </trkpt>
      <trkpt lat="43.29888" lon="6.41496">
        <ele>530.08428955078</ele>
        <time>2022-01-01T11:15:22Z</time>
      </trkpt>
      <trkpt lat="43.29887" lon="6.41479">
        <ele>531.98876953125</ele>
        <time>2022-01-01T11:15:32Z</time>
      </trkpt>
      <trkpt lat="43.29887" lon="6.41465">
        <ele>532.03295898438</ele>
        <time>2022-01-01T11:15:38Z</time>
      </trkpt>
      <trkpt lat="43.29884" lon="6.41441">
        <ele>532.16021728516</ele>
        <time>2022-01-01T11:15:50Z</time>
      </trkpt>
      <trkpt lat="43.29884" lon="6.41426">
        <ele>531.60290527344</ele>
        <time>2022-01-01T11:16:00Z</time>
      </trkpt>
      <trkpt lat="43.29884" lon="6.41408">
        <ele>535.75091552734</ele>
        <time>2022-01-01T11:16:08Z</time>
      </trkpt>
      <trkpt lat="43.29883" lon="6.41395">
        <ele>535.96563720703</ele>
        <time>2022-01-01T11:16:14Z</time>
      </trkpt>
      <trkpt lat="43.29885" lon="6.41379">
        <ele>533.79510498047</ele>
        <time>2022-01-01T11:16:22Z</time>
      </trkpt>
      <trkpt lat="43.29885" lon="6.41359">
        <ele>534.10980224609</ele>
        <time>2022-01-01T11:16:32Z</time>
      </trkpt>
      <trkpt lat="43.29888" lon="6.41337">
        <ele>532.7822265625</ele>
        <time>2022-01-01T11:16:44Z</time>
      </trkpt>
      <trkpt lat="43.29893" lon="6.41315">
        <ele>536.03192138672</ele>
        <time>2022-01-01T11:16:54Z</time>
      </trkpt>
      <trkpt lat="43.29895" lon="6.41301">
        <ele>545.73388671875</ele>
        <time>2022-01-01T11:17:02Z</time>
      </trkpt>
      <trkpt lat="43.29899" lon="6.41282">
        <ele>545.94769287109</ele>
        <time>2022-01-01T11:17:12Z</time>
      </trkpt>
      <trkpt lat="43.29903" lon="6.41268">
        <ele>541.98333740234</ele>
        <time>2022-01-01T11:17:20Z</time>
      </trkpt>
      <trkpt lat="43.29908" lon="6.41252">
        <ele>545.52905273438</ele>
        <time>2022-01-01T11:17:28Z</time>
      </trkpt>
      <trkpt lat="43.29911" lon="6.41237">
        <ele>545.91625976562</ele>
        <time>2022-01-01T11:17:36Z</time>
      </trkpt>
      <trkpt lat="43.2992" lon="6.41224">
        <ele>549.08258056641</ele>
        <time>2022-01-01T11:17:48Z</time>
      </trkpt>
      <trkpt lat="43.2992" lon="6.41211">
        <ele>550.24768066406</ele>
        <time>2022-01-01T11:19:43Z</time>
      </trkpt>
      <trkpt lat="43.29924" lon="6.41189">
        <ele>550.23333740234</ele>
        <time>2022-01-01T11:19:51Z</time>
      </trkpt>
      <trkpt lat="43.29927" lon="6.41175">
        <ele>552.75122070312</ele>
        <time>2022-01-01T11:19:55Z</time>
      </trkpt>
      <trkpt lat="43.29931" lon="6.41159">
        <ele>552.72625732422</ele>
        <time>2022-01-01T11:19:59Z</time>
      </trkpt>
      <trkpt lat="43.29935" lon="6.41143">
        <ele>552.69262695312</ele>
        <time>2022-01-01T11:20:03Z</time>
      </trkpt>
      <trkpt lat="43.29936" lon="6.41127">
        <ele>551.91436767578</ele>
        <time>2022-01-01T11:20:07Z</time>
      </trkpt>
      <trkpt lat="43.29932" lon="6.41107">
        <ele>551.93975830078</ele>
        <time>2022-01-01T11:20:12Z</time>
      </trkpt>
      <trkpt lat="43.29926" lon="6.41085">
        <ele>553.14080810547</ele>
        <time>2022-01-01T11:20:18Z</time>
      </trkpt>
      <trkpt lat="43.29926" lon="6.41066">
        <ele>553.21862792969</ele>
        <time>2022-01-01T11:20:24Z</time>
      </trkpt>
      <trkpt lat="43.29925" lon="6.41042">
        <ele>548.40948486328</ele>
        <time>2022-01-01T11:20:30Z</time>
      </trkpt>
      <trkpt lat="43.29924" lon="6.41018">
        <ele>548.54931640625</ele>
        <time>2022-01-01T11:20:36Z</time>
      </trkpt>
      <trkpt lat="43.29923" lon="6.40992">
        <ele>555.40539550781</ele>
        <time>2022-01-01T11:20:42Z</time>
      </trkpt>
      <trkpt lat="43.2992" lon="6.40968">
        <ele>555.48272705078</ele>
        <time>2022-01-01T11:20:48Z</time>
      </trkpt>
      <trkpt lat="43.2992" lon="6.40942">
        <ele>556.50762939453</ele>
        <time>2022-01-01T11:20:54Z</time>
      </trkpt>
      <trkpt lat="43.29919" lon="6.40917">
        <ele>556.60180664062</ele>
        <time>2022-01-01T11:21:00Z</time>
      </trkpt>
      <trkpt lat="43.29916" lon="6.40895">
        <ele>555.88208007812</ele>
        <time>2022-01-01T11:21:06Z</time>
      </trkpt>
      <trkpt lat="43.29903" lon="6.4088">
        <ele>556.00177001953</ele>
        <time>2022-01-01T11:21:12Z</time>
      </trkpt>
      <trkpt lat="43.29888" lon="6.40872">
        <ele>554.38092041016</ele>
        <time>2022-01-01T11:21:18Z</time>
      </trkpt>
      <trkpt lat="43.29872" lon="6.40868">
        <ele>554.50244140625</ele>
        <time>2022-01-01T11:21:24Z</time>
      </trkpt>
      <trkpt lat="43.29857" lon="6.40851">
        <ele>559.31024169922</ele>
        <time>2022-01-01T11:21:30Z</time>
      </trkpt>
      <trkpt lat="43.29856" lon="6.40832">
        <ele>559.43658447266</ele>
        <time>2022-01-01T11:21:36Z</time>
      </trkpt>
      <trkpt lat="43.29862" lon="6.40812">
        <ele>563.48681640625</ele>
        <time>2022-01-01T11:21:42Z</time>
      </trkpt>
      <trkpt lat="43.29867" lon="6.40787">
        <ele>563.59924316406</ele>
        <time>2022-01-01T11:21:48Z</time>
      </trkpt>
      <trkpt lat="43.29868" lon="6.40765">
        <ele>563.4912109375</ele>
        <time>2022-01-01T11:21:54Z</time>
      </trkpt>
      <trkpt lat="43.29867" lon="6.40742">
        <ele>563.58728027344</ele>
        <time>2022-01-01T11:22:00Z</time>
      </trkpt>
      <trkpt lat="43.29864" lon="6.40722">
        <ele>563.97650146484</ele>
        <time>2022-01-01T11:22:05Z</time>
      </trkpt>
      <trkpt lat="43.29861" lon="6.40698">
        <ele>564.20135498047</ele>
        <time>2022-01-01T11:22:11Z</time>
      </trkpt>
      <trkpt lat="43.29858" lon="6.40684">
        <ele>564.32720947266</ele>
        <time>2022-01-01T11:22:15Z</time>
      </trkpt>
      <trkpt lat="43.29858" lon="6.40667">
        <ele>564.38153076172</ele>
        <time>2022-01-01T11:22:19Z</time>
      </trkpt>
      <trkpt lat="43.29859" lon="6.40652">
        <ele>564.50592041016</ele>
        <time>2022-01-01T11:22:23Z</time>
      </trkpt>
      <trkpt lat="43.29857" lon="6.40633">
        <ele>564.56072998047</ele>
        <time>2022-01-01T11:22:27Z</time>
      </trkpt>
      <trkpt lat="43.29856" lon="6.40616">
        <ele>568.18225097656</ele>
        <time>2022-01-01T11:22:31Z</time>
      </trkpt>
      <trkpt lat="43.29858" lon="6.40599">
        <ele>568.35424804688</ele>
        <time>2022-01-01T11:22:36Z</time>
      </trkpt>
      <trkpt lat="43.29863" lon="6.40585">
        <ele>568.43212890625</ele>
        <time>2022-01-01T11:22:41Z</time>
      </trkpt>
      <trkpt lat="43.29873" lon="6.40571">
        <ele>569.18853759766</ele>
        <time>2022-01-01T11:22:47Z</time>
      </trkpt>
      <trkpt lat="43.29886" lon="6.40553">
        <ele>569.35864257812</ele>
        <time>2022-01-01T11:22:54Z</time>
      </trkpt>
      <trkpt lat="43.29893" lon="6.40542">
        <ele>573.45977783203</ele>
        <time>2022-01-01T11:23:00Z</time>
      </trkpt>
      <trkpt lat="43.29905" lon="6.40522">
        <ele>572.33874511719</ele>
        <time>2022-01-01T11:23:12Z</time>
      </trkpt>
      <trkpt lat="43.29916" lon="6.405">
        <ele>579.66333007812</ele>
        <time>2022-01-01T11:23:24Z</time>
      </trkpt>
      <trkpt lat="43.29922" lon="6.40487">
        <ele>579.828125</ele>
        <time>2022-01-01T11:23:29Z</time>
      </trkpt>
      <trkpt lat="43.29926" lon="6.40468">
        <ele>580.04626464844</ele>
        <time>2022-01-01T11:23:35Z</time>
      </trkpt>
      <trkpt lat="43.29928" lon="6.4045">
        <ele>574.95001220703</ele>
        <time>2022-01-01T11:23:43Z</time>
      </trkpt>
      <trkpt lat="43.29925" lon="6.40428">
        <ele>579.58056640625</ele>
        <time>2022-01-01T11:23:51Z</time>
      </trkpt>
      <trkpt lat="43.29921" lon="6.40407">
        <ele>579.82025146484</ele>
        <time>2022-01-01T11:23:59Z</time>
      </trkpt>
      <trkpt lat="43.29912" lon="6.40392">
        <ele>580.96478271484</ele>
        <time>2022-01-01T11:24:07Z</time>
      </trkpt>
      <trkpt lat="43.29904" lon="6.40383">
        <ele>581.00274658203</ele>
        <time>2022-01-01T11:24:11Z</time>
      </trkpt>
      <trkpt lat="43.29891" lon="6.40372">
        <ele>582.62005615234</ele>
        <time>2022-01-01T11:24:17Z</time>
      </trkpt>
      <trkpt lat="43.29878" lon="6.40366">
        <ele>582.80889892578</ele>
        <time>2022-01-01T11:24:25Z</time>
      </trkpt>
      <trkpt lat="43.29856" lon="6.40355">
        <ele>586.06231689453</ele>
        <time>2022-01-01T11:24:35Z</time>
      </trkpt>
      <trkpt lat="43.29844" lon="6.40348">
        <ele>582.36505126953</ele>
        <time>2022-01-01T11:24:43Z</time>
      </trkpt>
      <trkpt lat="43.2983" lon="6.40335">
        <ele>582.4755859375</ele>
        <time>2022-01-01T11:24:51Z</time>
      </trkpt>
      <trkpt lat="43.29816" lon="6.40311">
        <ele>588.15533447266</ele>
        <time>2022-01-01T11:25:01Z</time>
      </trkpt>
      <trkpt lat="43.29811" lon="6.40298">
        <ele>588.26489257812</ele>
        <time>2022-01-01T11:25:05Z</time>
      </trkpt>
      <trkpt lat="43.29804" lon="6.40278">
        <ele>588.08062744141</ele>
        <time>2022-01-01T11:25:13Z</time>
      </trkpt>
      <trkpt lat="43.29801" lon="6.40266">
        <ele>588.21606445312</ele>
        <time>2022-01-01T11:25:17Z</time>
      </trkpt>
      <trkpt lat="43.29797" lon="6.40251">
        <ele>590.46746826172</ele>
        <time>2022-01-01T11:25:23Z</time>
      </trkpt>
      <trkpt lat="43.29795" lon="6.40229">
        <ele>590.79803466797</ele>
        <time>2022-01-01T11:25:31Z</time>
      </trkpt>
      <trkpt lat="43.29791" lon="6.40211">
        <ele>593.24456787109</ele>
        <time>2022-01-01T11:25:37Z</time>
      </trkpt>
      <trkpt lat="43.29782" lon="6.40188">
        <ele>593.38818359375</ele>
        <time>2022-01-01T11:25:45Z</time>
      </trkpt>
      <trkpt lat="43.29778" lon="6.40165">
        <ele>594.57983398438</ele>
        <time>2022-01-01T11:25:55Z</time>
      </trkpt>
      <trkpt lat="43.29771" lon="6.40151">
        <ele>598.29895019531</ele>
        <time>2022-01-01T11:26:15Z</time>
      </trkpt>
      <trkpt lat="43.29754" lon="6.40126">
        <ele>598.36761474609</ele>
        <time>2022-01-01T11:26:25Z</time>
      </trkpt>
      <trkpt lat="43.29737" lon="6.4011">
        <ele>598.51013183594</ele>
        <time>2022-01-01T11:26:35Z</time>
      </trkpt>
      <trkpt lat="43.29727" lon="6.40105">
        <ele>598.5966796875</ele>
        <time>2022-01-01T11:26:39Z</time>
      </trkpt>
      <trkpt lat="43.29711" lon="6.401">
        <ele>596.81109619141</ele>
        <time>2022-01-01T11:26:47Z</time>
      </trkpt>
      <trkpt lat="43.29692" lon="6.401">
        <ele>598.67102050781</ele>
        <time>2022-01-01T11:26:55Z</time>
      </trkpt>
      <trkpt lat="43.29681" lon="6.40097">
        <ele>598.81896972656</ele>
        <time>2022-01-01T11:27:01Z</time>
      </trkpt>
      <trkpt lat="43.29671" lon="6.40094">
        <ele>598.86169433594</ele>
        <time>2022-01-01T11:27:05Z</time>
      </trkpt>
      <trkpt lat="43.29658" lon="6.40092">
        <ele>601.6787109375</ele>
        <time>2022-01-01T11:27:11Z</time>
      </trkpt>
      <trkpt lat="43.29647" lon="6.40089">
        <ele>601.85021972656</ele>
        <time>2022-01-01T11:27:17Z</time>
      </trkpt>
      <trkpt lat="43.29629" lon="6.40083">
        <ele>605.12805175781</ele>
        <time>2022-01-01T11:27:25Z</time>
      </trkpt>
      <trkpt lat="43.2962" lon="6.40075">
        <ele>605.20629882812</ele>
        <time>2022-01-01T11:27:29Z</time>
      </trkpt>
      <trkpt lat="43.29607" lon="6.40063">
        <ele>606.86779785156</ele>
        <time>2022-01-01T11:27:35Z</time>
      </trkpt>
      <trkpt lat="43.296" lon="6.40054">
        <ele>607.09460449219</ele>
        <time>2022-01-01T11:27:39Z</time>
      </trkpt>
      <trkpt lat="43.29594" lon="6.40044">
        <ele>607.15460205078</ele>
        <time>2022-01-01T11:27:43Z</time>
      </trkpt>
      <trkpt lat="43.29589" lon="6.40032">
        <ele>606.00811767578</ele>
        <time>2022-01-01T11:27:47Z</time>
      </trkpt>
      <trkpt lat="43.29582" lon="6.40022">
        <ele>606.17810058594</ele>
        <time>2022-01-01T11:27:51Z</time>
      </trkpt>
      <trkpt lat="43.29568" lon="6.40011">
        <ele>609.82757568359</ele>
        <time>2022-01-01T11:27:59Z</time>
      </trkpt>
      <trkpt lat="43.29559" lon="6.40004">
        <ele>609.98321533203</ele>
        <time>2022-01-01T11:28:03Z</time>
      </trkpt>
      <trkpt lat="43.2955" lon="6.39998">
        <ele>610.00048828125</ele>
        <time>2022-01-01T11:28:07Z</time>
      </trkpt>
      <trkpt lat="43.29541" lon="6.3999">
        <ele>614.80407714844</ele>
        <time>2022-01-01T11:28:11Z</time>
      </trkpt>
      <trkpt lat="43.2953" lon="6.39984">
        <ele>614.88812255859</ele>
        <time>2022-01-01T11:28:15Z</time>
      </trkpt>
      <trkpt lat="43.29521" lon="6.39978">
        <ele>614.98083496094</ele>
        <time>2022-01-01T11:28:19Z</time>
      </trkpt>
      <trkpt lat="43.29512" lon="6.39968">
        <ele>611.68713378906</ele>
        <time>2022-01-01T11:28:23Z</time>
      </trkpt>
      <trkpt lat="43.29503" lon="6.39959">
        <ele>611.71215820312</ele>
        <time>2022-01-01T11:28:27Z</time>
      </trkpt>
      <trkpt lat="43.29495" lon="6.39948">
        <ele>611.77508544922</ele>
        <time>2022-01-01T11:28:31Z</time>
      </trkpt>
      <trkpt lat="43.29486" lon="6.39934">
        <ele>611.44781494141</ele>
        <time>2022-01-01T11:28:35Z</time>
      </trkpt>
      <trkpt lat="43.2948" lon="6.39922">
        <ele>611.50640869141</ele>
        <time>2022-01-01T11:28:39Z</time>
      </trkpt>
      <trkpt lat="43.29474" lon="6.39908">
        <ele>611.49096679688</ele>
        <time>2022-01-01T11:28:43Z</time>
      </trkpt>
      <trkpt lat="43.2947" lon="6.39894">
        <ele>616.17102050781</ele>
        <time>2022-01-01T11:28:47Z</time>
      </trkpt>
      <trkpt lat="43.29468" lon="6.39881">
        <ele>616.19067382812</ele>
        <time>2022-01-01T11:28:51Z</time>
      </trkpt>
      <trkpt lat="43.29468" lon="6.39865">
        <ele>613.91436767578</ele>
        <time>2022-01-01T11:29:19Z</time>
      </trkpt>
      <trkpt lat="43.29468" lon="6.39838">
        <ele>620.44390869141</ele>
        <time>2022-01-01T11:29:37Z</time>
      </trkpt>
      <trkpt lat="43.29465" lon="6.39822">
        <ele>620.43145751953</ele>
        <time>2022-01-01T11:29:41Z</time>
      </trkpt>
      <trkpt lat="43.29452" lon="6.39792">
        <ele>620.29022216797</ele>
        <time>2022-01-01T11:29:47Z</time>
      </trkpt>
      <trkpt lat="43.29434" lon="6.39751">
        <ele>616.08825683594</ele>
        <time>2022-01-01T11:29:55Z</time>
      </trkpt>
      <trkpt lat="43.29426" lon="6.3972">
        <ele>616.08062744141</ele>
        <time>2022-01-01T11:30:01Z</time>
      </trkpt>
      <trkpt lat="43.29422" lon="6.39702">
        <ele>617.2578125</ele>
        <time>2022-01-01T11:30:05Z</time>
      </trkpt>
      <trkpt lat="43.2942" lon="6.3968">
        <ele>617.24578857422</ele>
        <time>2022-01-01T11:30:09Z</time>
      </trkpt>
      <trkpt lat="43.29419" lon="6.39657">
        <ele>617.27703857422</ele>
        <time>2022-01-01T11:30:13Z</time>
      </trkpt>
      <trkpt lat="43.29416" lon="6.39638">
        <ele>615.92291259766</ele>
        <time>2022-01-01T11:30:17Z</time>
      </trkpt>
      <trkpt lat="43.29413" lon="6.39616">
        <ele>615.91668701172</ele>
        <time>2022-01-01T11:30:21Z</time>
      </trkpt>
      <trkpt lat="43.29407" lon="6.39595">
        <ele>615.98254394531</ele>
        <time>2022-01-01T11:30:25Z</time>
      </trkpt>
      <trkpt lat="43.29401" lon="6.39564">
        <ele>617.91363525391</ele>
        <time>2022-01-01T11:30:31Z</time>
      </trkpt>
      <trkpt lat="43.29402" lon="6.39545">
        <ele>617.99145507812</ele>
        <time>2022-01-01T11:30:35Z</time>
      </trkpt>
      <trkpt lat="43.29403" lon="6.39533">
        <ele>618.0380859375</ele>
        <time>2022-01-01T11:30:39Z</time>
      </trkpt>
      <trkpt lat="43.29403" lon="6.39517">
        <ele>617.0927734375</ele>
        <time>2022-01-01T11:30:43Z</time>
      </trkpt>
      <trkpt lat="43.29402" lon="6.39499">
        <ele>617.11920166016</ele>
        <time>2022-01-01T11:30:47Z</time>
      </trkpt>
      <trkpt lat="43.29401" lon="6.39482">
        <ele>617.14709472656</ele>
        <time>2022-01-01T11:30:51Z</time>
      </trkpt>
      <trkpt lat="43.294" lon="6.39463">
        <ele>617.04956054688</ele>
        <time>2022-01-01T11:30:55Z</time>
      </trkpt>
      <trkpt lat="43.29398" lon="6.3944">
        <ele>617.13940429688</ele>
        <time>2022-01-01T11:31:01Z</time>
      </trkpt>
      <trkpt lat="43.29395" lon="6.39424">
        <ele>617.09906005859</ele>
        <time>2022-01-01T11:31:05Z</time>
      </trkpt>
      <trkpt lat="43.29391" lon="6.39402">
        <ele>616.69549560547</ele>
        <time>2022-01-01T11:31:11Z</time>
      </trkpt>
      <trkpt lat="43.29389" lon="6.3938">
        <ele>616.85211181641</ele>
        <time>2022-01-01T11:31:17Z</time>
      </trkpt>
      <trkpt lat="43.29391" lon="6.39351">
        <ele>612.92767333984</ele>
        <time>2022-01-01T11:31:23Z</time>
      </trkpt>
      <trkpt lat="43.29384" lon="6.39332">
        <ele>612.78350830078</ele>
        <time>2022-01-01T11:31:27Z</time>
      </trkpt>
      <trkpt lat="43.29373" lon="6.39321">
        <ele>612.76434326172</ele>
        <time>2022-01-01T11:31:31Z</time>
      </trkpt>
      <trkpt lat="43.29353" lon="6.3931">
        <ele>618.80108642578</ele>
        <time>2022-01-01T11:31:37Z</time>
      </trkpt>
      <trkpt lat="43.29337" lon="6.39307">
        <ele>618.64587402344</ele>
        <time>2022-01-01T11:31:41Z</time>
      </trkpt>
      <trkpt lat="43.29319" lon="6.39302">
        <ele>618.60021972656</ele>
        <time>2022-01-01T11:31:45Z</time>
      </trkpt>
      <trkpt lat="43.29302" lon="6.39294">
        <ele>617.8515625</ele>
        <time>2022-01-01T11:31:49Z</time>
      </trkpt>
      <trkpt lat="43.29289" lon="6.39279">
        <ele>617.78863525391</ele>
        <time>2022-01-01T11:31:53Z</time>
      </trkpt>
      <trkpt lat="43.29277" lon="6.39242">
        <ele>617.64501953125</ele>
        <time>2022-01-01T11:31:59Z</time>
      </trkpt>
      <trkpt lat="43.29266" lon="6.39214">
        <ele>621.14373779297</ele>
        <time>2022-01-01T11:32:03Z</time>
      </trkpt>
      <trkpt lat="43.29251" lon="6.39192">
        <ele>620.84301757812</ele>
        <time>2022-01-01T11:32:07Z</time>
      </trkpt>
      <trkpt lat="43.29234" lon="6.39177">
        <ele>620.71813964844</ele>
        <time>2022-01-01T11:32:11Z</time>
      </trkpt>
      <trkpt lat="43.29215" lon="6.39173">
        <ele>614.78967285156</ele>
        <time>2022-01-01T11:32:15Z</time>
      </trkpt>
      <trkpt lat="43.29195" lon="6.39168">
        <ele>614.78442382812</ele>
        <time>2022-01-01T11:32:19Z</time>
      </trkpt>
      <trkpt lat="43.29164" lon="6.39162">
        <ele>614.58984375</ele>
        <time>2022-01-01T11:32:25Z</time>
      </trkpt>
      <trkpt lat="43.29151" lon="6.39159">
        <ele>612.55065917969</ele>
        <time>2022-01-01T11:32:29Z</time>
      </trkpt>
      <trkpt lat="43.29135" lon="6.39155">
        <ele>612.65582275391</ele>
        <time>2022-01-01T11:32:33Z</time>
      </trkpt>
      <trkpt lat="43.29123" lon="6.39155">
        <ele>612.76055908203</ele>
        <time>2022-01-01T11:32:37Z</time>
      </trkpt>
      <trkpt lat="43.29105" lon="6.39155">
        <ele>613.30633544922</ele>
        <time>2022-01-01T11:32:43Z</time>
      </trkpt>
      <trkpt lat="43.29094" lon="6.39158">
        <ele>613.49945068359</ele>
        <time>2022-01-01T11:32:47Z</time>
      </trkpt>
      <trkpt lat="43.29078" lon="6.3916">
        <ele>613.59692382812</ele>
        <time>2022-01-01T11:32:53Z</time>
      </trkpt>
      <trkpt lat="43.29055" lon="6.39156">
        <ele>612.4423828125</ele>
        <time>2022-01-01T11:33:01Z</time>
      </trkpt>
      <trkpt lat="43.29041" lon="6.39145">
        <ele>612.67199707031</ele>
        <time>2022-01-01T11:33:07Z</time>
      </trkpt>
      <trkpt lat="43.29033" lon="6.39136">
        <ele>612.59197998047</ele>
        <time>2022-01-01T11:33:11Z</time>
      </trkpt>
      <trkpt lat="43.29024" lon="6.39127">
        <ele>612.6640625</ele>
        <time>2022-01-01T11:33:15Z</time>
      </trkpt>
      <trkpt lat="43.29011" lon="6.39113">
        <ele>616.58404541016</ele>
        <time>2022-01-01T11:33:23Z</time>
      </trkpt>
      <trkpt lat="43.28999" lon="6.39097">
        <ele>616.765625</ele>
        <time>2022-01-01T11:33:31Z</time>
      </trkpt>
      <trkpt lat="43.28992" lon="6.39078">
        <ele>622.43634033203</ele>
        <time>2022-01-01T11:33:37Z</time>
      </trkpt>
      <trkpt lat="43.28987" lon="6.39064">
        <ele>622.55072021484</ele>
        <time>2022-01-01T11:33:41Z</time>
      </trkpt>
      <trkpt lat="43.28981" lon="6.39043">
        <ele>622.59686279297</ele>
        <time>2022-01-01T11:33:47Z</time>
      </trkpt>
      <trkpt lat="43.28978" lon="6.3902">
        <ele>624.97052001953</ele>
        <time>2022-01-01T11:33:53Z</time>
      </trkpt>
      <trkpt lat="43.28977" lon="6.38996">
        <ele>625.05218505859</ele>
        <time>2022-01-01T11:33:59Z</time>
      </trkpt>
      <trkpt lat="43.28976" lon="6.38983">
        <ele>626.99841308594</ele>
        <time>2022-01-01T11:34:03Z</time>
      </trkpt>
      <trkpt lat="43.28974" lon="6.38969">
        <ele>627.08636474609</ele>
        <time>2022-01-01T11:34:07Z</time>
      </trkpt>
      <trkpt lat="43.2897" lon="6.38947">
        <ele>627.2021484375</ele>
        <time>2022-01-01T11:34:13Z</time>
      </trkpt>
      <trkpt lat="43.28963" lon="6.38921">
        <ele>621.93524169922</ele>
        <time>2022-01-01T11:34:19Z</time>
      </trkpt>
      <trkpt lat="43.28958" lon="6.38909">
        <ele>622.04284667969</ele>
        <time>2022-01-01T11:34:23Z</time>
      </trkpt>
      <trkpt lat="43.28951" lon="6.38896">
        <ele>622.12976074219</ele>
        <time>2022-01-01T11:34:27Z</time>
      </trkpt>
      <trkpt lat="43.28943" lon="6.38885">
        <ele>623.828125</ele>
        <time>2022-01-01T11:34:31Z</time>
      </trkpt>
      <trkpt lat="43.28934" lon="6.38874">
        <ele>623.91937255859</ele>
        <time>2022-01-01T11:34:35Z</time>
      </trkpt>
      <trkpt lat="43.28925" lon="6.38865">
        <ele>624.11730957031</ele>
        <time>2022-01-01T11:34:39Z</time>
      </trkpt>
      <trkpt lat="43.28915" lon="6.38858">
        <ele>626.35906982422</ele>
        <time>2022-01-01T11:34:43Z</time>
      </trkpt>
      <trkpt lat="43.28905" lon="6.38852">
        <ele>626.46960449219</ele>
        <time>2022-01-01T11:34:47Z</time>
      </trkpt>
      <trkpt lat="43.28895" lon="6.38846">
        <ele>626.55895996094</ele>
        <time>2022-01-01T11:34:51Z</time>
      </trkpt>
      <trkpt lat="43.28885" lon="6.38839">
        <ele>631.81958007812</ele>
        <time>2022-01-01T11:34:55Z</time>
      </trkpt>
      <trkpt lat="43.28869" lon="6.38827">
        <ele>631.99304199219</ele>
        <time>2022-01-01T11:35:01Z</time>
      </trkpt>
      <trkpt lat="43.28858" lon="6.38818">
        <ele>632.01135253906</ele>
        <time>2022-01-01T11:35:05Z</time>
      </trkpt>
      <trkpt lat="43.28843" lon="6.38799">
        <ele>633.15521240234</ele>
        <time>2022-01-01T11:35:11Z</time>
      </trkpt>
      <trkpt lat="43.28838" lon="6.38785">
        <ele>633.16235351562</ele>
        <time>2022-01-01T11:35:15Z</time>
      </trkpt>
      <trkpt lat="43.28835" lon="6.38773">
        <ele>633.13018798828</ele>
        <time>2022-01-01T11:35:19Z</time>
      </trkpt>
      <trkpt lat="43.28831" lon="6.38757">
        <ele>629.17767333984</ele>
        <time>2022-01-01T11:35:23Z</time>
      </trkpt>
      <trkpt lat="43.28827" lon="6.38736">
        <ele>629.11328125</ele>
        <time>2022-01-01T11:35:27Z</time>
      </trkpt>
      <trkpt lat="43.28826" lon="6.38711">
        <ele>628.97058105469</ele>
        <time>2022-01-01T11:35:31Z</time>
      </trkpt>
      <trkpt lat="43.28829" lon="6.38689">
        <ele>629.98376464844</ele>
        <time>2022-01-01T11:35:35Z</time>
      </trkpt>
      <trkpt lat="43.28834" lon="6.38659">
        <ele>629.98663330078</ele>
        <time>2022-01-01T11:35:41Z</time>
      </trkpt>
      <trkpt lat="43.28838" lon="6.38646">
        <ele>630.06976318359</ele>
        <time>2022-01-01T11:35:45Z</time>
      </trkpt>
      <trkpt lat="43.28842" lon="6.38632">
        <ele>631.20745849609</ele>
        <time>2022-01-01T11:35:49Z</time>
      </trkpt>
      <trkpt lat="43.28845" lon="6.38616">
        <ele>631.21997070312</ele>
        <time>2022-01-01T11:35:53Z</time>
      </trkpt>
      <trkpt lat="43.28852" lon="6.38603">
        <ele>631.25836181641</ele>
        <time>2022-01-01T11:35:57Z</time>
      </trkpt>
      <trkpt lat="43.28859" lon="6.38588">
        <ele>628.43322753906</ele>
        <time>2022-01-01T11:36:01Z</time>
      </trkpt>
      <trkpt lat="43.28873" lon="6.38569">
        <ele>628.58551025391</ele>
        <time>2022-01-01T11:36:07Z</time>
      </trkpt>
      <trkpt lat="43.28882" lon="6.3856">
        <ele>628.58935546875</ele>
        <time>2022-01-01T11:36:11Z</time>
      </trkpt>
      <trkpt lat="43.28894" lon="6.3855">
        <ele>635.06353759766</ele>
        <time>2022-01-01T11:36:15Z</time>
      </trkpt>
      <trkpt lat="43.28906" lon="6.38541">
        <ele>635.07366943359</ele>
        <time>2022-01-01T11:36:19Z</time>
      </trkpt>
      <trkpt lat="43.28916" lon="6.38533">
        <ele>635.1015625</ele>
        <time>2022-01-01T11:36:23Z</time>
      </trkpt>
      <trkpt lat="43.28924" lon="6.38525">
        <ele>631.77294921875</ele>
        <time>2022-01-01T11:36:27Z</time>
      </trkpt>
      <trkpt lat="43.28941" lon="6.38512">
        <ele>631.84552001953</ele>
        <time>2022-01-01T11:36:35Z</time>
      </trkpt>
      <trkpt lat="43.28957" lon="6.38503">
        <ele>626.88641357422</ele>
        <time>2022-01-01T11:36:41Z</time>
      </trkpt>
      <trkpt lat="43.28966" lon="6.38498">
        <ele>626.91961669922</ele>
        <time>2022-01-01T11:36:49Z</time>
      </trkpt>
      <trkpt lat="43.2896" lon="6.38512">
        <ele>633.86724853516</ele>
        <time>2022-01-01T11:37:35Z</time>
      </trkpt>
      <trkpt lat="43.28961" lon="6.38499">
        <ele>627.91912841797</ele>
        <time>2022-01-01T11:38:49Z</time>
      </trkpt>
      <trkpt lat="43.28966" lon="6.38511">
        <ele>622.14752197266</ele>
        <time>2022-01-01T11:40:23Z</time>
      </trkpt>
      <trkpt lat="43.28958" lon="6.38502">
        <ele>623.87005615234</ele>
        <time>2022-01-01T11:41:17Z</time>
      </trkpt>
      <trkpt lat="43.28964" lon="6.38513">
        <ele>632.24084472656</ele>
        <time>2022-01-01T11:42:39Z</time>
      </trkpt>
      <trkpt lat="43.28966" lon="6.385">
        <ele>631.19213867188</ele>
        <time>2022-01-01T11:43:13Z</time>
      </trkpt>
      <trkpt lat="43.28971" lon="6.38514">
        <ele>629.00128173828</ele>
        <time>2022-01-01T11:43:33Z</time>
      </trkpt>
      <trkpt lat="43.28961" lon="6.38516">
        <ele>634.97827148438</ele>
        <time>2022-01-01T11:43:51Z</time>
      </trkpt>
      <trkpt lat="43.28962" lon="6.38503">
        <ele>619.20574951172</ele>
        <time>2022-01-01T11:45:03Z</time>
      </trkpt>
      <trkpt lat="43.2897" lon="6.38493">
        <ele>626.55853271484</ele>
        <time>2022-01-01T11:50:31Z</time>
      </trkpt>
      <trkpt lat="43.28961" lon="6.385">
        <ele>623.45611572266</ele>
        <time>2022-01-01T11:50:45Z</time>
      </trkpt>
      <trkpt lat="43.28951" lon="6.38507">
        <ele>621.92272949219</ele>
        <time>2022-01-01T11:50:59Z</time>
      </trkpt>
      <trkpt lat="43.28942" lon="6.38513">
        <ele>621.88140869141</ele>
        <time>2022-01-01T11:51:03Z</time>
      </trkpt>
      <trkpt lat="43.28927" lon="6.38521">
        <ele>622.85797119141</ele>
        <time>2022-01-01T11:51:09Z</time>
      </trkpt>
      <trkpt lat="43.28911" lon="6.38531">
        <ele>622.83154296875</ele>
        <time>2022-01-01T11:51:15Z</time>
      </trkpt>
      <trkpt lat="43.28893" lon="6.38545">
        <ele>626.34344482422</ele>
        <time>2022-01-01T11:51:21Z</time>
      </trkpt>
      <trkpt lat="43.28882" lon="6.38554">
        <ele>626.37371826172</ele>
        <time>2022-01-01T11:51:25Z</time>
      </trkpt>
      <trkpt lat="43.28864" lon="6.38574">
        <ele>626.37664794922</ele>
        <time>2022-01-01T11:51:31Z</time>
      </trkpt>
      <trkpt lat="43.28852" lon="6.38593">
        <ele>625.11108398438</ele>
        <time>2022-01-01T11:51:37Z</time>
      </trkpt>
      <trkpt lat="43.28844" lon="6.38617">
        <ele>625.07696533203</ele>
        <time>2022-01-01T11:51:43Z</time>
      </trkpt>
      <trkpt lat="43.28833" lon="6.38651">
        <ele>628.99475097656</ele>
        <time>2022-01-01T11:51:51Z</time>
      </trkpt>
      <trkpt lat="43.2883" lon="6.38669">
        <ele>628.92846679688</ele>
        <time>2022-01-01T11:51:55Z</time>
      </trkpt>
      <trkpt lat="43.28827" lon="6.38689">
        <ele>628.87707519531</ele>
        <time>2022-01-01T11:51:59Z</time>
      </trkpt>
      <trkpt lat="43.28825" lon="6.38707">
        <ele>628.91357421875</ele>
        <time>2022-01-01T11:52:03Z</time>
      </trkpt>
      <trkpt lat="43.28818" lon="6.38719">
        <ele>627.46685791016</ele>
        <time>2022-01-01T11:52:13Z</time>
      </trkpt>
      <trkpt lat="43.28809" lon="6.38697">
        <ele>629.57232666016</ele>
        <time>2022-01-01T11:52:27Z</time>
      </trkpt>
      <trkpt lat="43.28799" lon="6.38686">
        <ele>629.38354492188</ele>
        <time>2022-01-01T11:52:31Z</time>
      </trkpt>
      <trkpt lat="43.28767" lon="6.38676">
        <ele>628.66333007812</ele>
        <time>2022-01-01T11:52:35Z</time>
      </trkpt>
      <trkpt lat="43.2874" lon="6.38664">
        <ele>628.22955322266</ele>
        <time>2022-01-01T11:52:39Z</time>
      </trkpt>
      <trkpt lat="43.28708" lon="6.38661">
        <ele>628.04125976562</ele>
        <time>2022-01-01T11:52:45Z</time>
      </trkpt>
      <trkpt lat="43.28698" lon="6.38661">
        <ele>620.98968505859</ele>
        <time>2022-01-01T11:52:47Z</time>
      </trkpt>
      <trkpt lat="43.28681" lon="6.38661">
        <ele>620.83111572266</ele>
        <time>2022-01-01T11:52:51Z</time>
      </trkpt>
      <trkpt lat="43.28648" lon="6.38671">
        <ele>620.32672119141</ele>
        <time>2022-01-01T11:52:57Z</time>
      </trkpt>
      <trkpt lat="43.28625" lon="6.387">
        <ele>612.26043701172</ele>
        <time>2022-01-01T11:53:01Z</time>
      </trkpt>
      <trkpt lat="43.28607" lon="6.38725">
        <ele>612.01397705078</ele>
        <time>2022-01-01T11:53:05Z</time>
      </trkpt>
      <trkpt lat="43.28596" lon="6.38738">
        <ele>611.81799316406</ele>
        <time>2022-01-01T11:53:09Z</time>
      </trkpt>
      <trkpt lat="43.28577" lon="6.38748">
        <ele>609.96319580078</ele>
        <time>2022-01-01T11:53:15Z</time>
      </trkpt>
      <trkpt lat="43.28564" lon="6.38753">
        <ele>610.34704589844</ele>
        <time>2022-01-01T11:53:21Z</time>
      </trkpt>
      <trkpt lat="43.28552" lon="6.38757">
        <ele>613.86883544922</ele>
        <time>2022-01-01T11:53:27Z</time>
      </trkpt>
      <trkpt lat="43.28544" lon="6.38765">
        <ele>613.93609619141</ele>
        <time>2022-01-01T11:53:31Z</time>
      </trkpt>
      <trkpt lat="43.28536" lon="6.38783">
        <ele>617.58190917969</ele>
        <time>2022-01-01T11:53:39Z</time>
      </trkpt>
      <trkpt lat="43.28533" lon="6.38797">
        <ele>617.63470458984</ele>
        <time>2022-01-01T11:53:43Z</time>
      </trkpt>
      <trkpt lat="43.2853" lon="6.38813">
        <ele>617.75244140625</ele>
        <time>2022-01-01T11:53:47Z</time>
      </trkpt>
      <trkpt lat="43.28527" lon="6.38825">
        <ele>621.50390625</ele>
        <time>2022-01-01T11:53:51Z</time>
      </trkpt>
      <trkpt lat="43.28521" lon="6.38851">
        <ele>621.76525878906</ele>
        <time>2022-01-01T11:54:01Z</time>
      </trkpt>
      <trkpt lat="43.28514" lon="6.38862">
        <ele>624.15789794922</ele>
        <time>2022-01-01T11:54:05Z</time>
      </trkpt>
      <trkpt lat="43.28506" lon="6.38872">
        <ele>624.33850097656</ele>
        <time>2022-01-01T11:54:09Z</time>
      </trkpt>
      <trkpt lat="43.28494" lon="6.38881">
        <ele>621.35546875</ele>
        <time>2022-01-01T11:54:17Z</time>
      </trkpt>
      <trkpt lat="43.28483" lon="6.3889">
        <ele>621.57647705078</ele>
        <time>2022-01-01T11:54:25Z</time>
      </trkpt>
      <trkpt lat="43.28469" lon="6.38896">
        <ele>621.53735351562</ele>
        <time>2022-01-01T11:54:37Z</time>
      </trkpt>
      <trkpt lat="43.28456" lon="6.38902">
        <ele>624.89801025391</ele>
        <time>2022-01-01T11:54:43Z</time>
      </trkpt>
      <trkpt lat="43.28447" lon="6.38905">
        <ele>624.95709228516</ele>
        <time>2022-01-01T11:54:47Z</time>
      </trkpt>
      <trkpt lat="43.28437" lon="6.38908">
        <ele>625.01184082031</ele>
        <time>2022-01-01T11:54:51Z</time>
      </trkpt>
      <trkpt lat="43.28429" lon="6.38913">
        <ele>628.21350097656</ele>
        <time>2022-01-01T11:54:55Z</time>
      </trkpt>
      <trkpt lat="43.2842" lon="6.3892">
        <ele>628.13140869141</ele>
        <time>2022-01-01T11:54:59Z</time>
      </trkpt>
      <trkpt lat="43.28412" lon="6.38926">
        <ele>628.02130126953</ele>
        <time>2022-01-01T11:55:03Z</time>
      </trkpt>
      <trkpt lat="43.28397" lon="6.38934">
        <ele>626.51641845703</ele>
        <time>2022-01-01T11:55:07Z</time>
      </trkpt>
      <trkpt lat="43.28379" lon="6.38937">
        <ele>625.83276367188</ele>
        <time>2022-01-01T11:55:13Z</time>
      </trkpt>
      <trkpt lat="43.28363" lon="6.38931">
        <ele>625.64971923828</ele>
        <time>2022-01-01T11:55:17Z</time>
      </trkpt>
      <trkpt lat="43.28351" lon="6.38925">
        <ele>620.57318115234</ele>
        <time>2022-01-01T11:55:21Z</time>
      </trkpt>
      <trkpt lat="43.28337" lon="6.38921">
        <ele>620.45111083984</ele>
        <time>2022-01-01T11:55:25Z</time>
      </trkpt>
      <trkpt lat="43.28312" lon="6.38922">
        <ele>620.09851074219</ele>
        <time>2022-01-01T11:55:29Z</time>
      </trkpt>
      <trkpt lat="43.28287" lon="6.38934">
        <ele>614.53594970703</ele>
        <time>2022-01-01T11:55:33Z</time>
      </trkpt>
      <trkpt lat="43.28273" lon="6.38943">
        <ele>614.57196044922</ele>
        <time>2022-01-01T11:55:37Z</time>
      </trkpt>
      <trkpt lat="43.28256" lon="6.38935">
        <ele>614.44750976562</ele>
        <time>2022-01-01T11:55:43Z</time>
      </trkpt>
      <trkpt lat="43.28243" lon="6.3893">
        <ele>608.87969970703</ele>
        <time>2022-01-01T11:55:47Z</time>
      </trkpt>
      <trkpt lat="43.28229" lon="6.38919">
        <ele>608.75726318359</ele>
        <time>2022-01-01T11:55:51Z</time>
      </trkpt>
      <trkpt lat="43.28214" lon="6.389">
        <ele>608.68518066406</ele>
        <time>2022-01-01T11:55:57Z</time>
      </trkpt>
      <trkpt lat="43.28206" lon="6.38888">
        <ele>609.59539794922</ele>
        <time>2022-01-01T11:56:01Z</time>
      </trkpt>
      <trkpt lat="43.28195" lon="6.38876">
        <ele>609.3359375</ele>
        <time>2022-01-01T11:56:05Z</time>
      </trkpt>
      <trkpt lat="43.28182" lon="6.38865">
        <ele>609.08233642578</ele>
        <time>2022-01-01T11:56:09Z</time>
      </trkpt>
      <trkpt lat="43.28167" lon="6.38857">
        <ele>608.87939453125</ele>
        <time>2022-01-01T11:56:15Z</time>
      </trkpt>
      <trkpt lat="43.28154" lon="6.38856">
        <ele>608.59454345703</ele>
        <time>2022-01-01T11:56:21Z</time>
      </trkpt>
      <trkpt lat="43.28141" lon="6.38857">
        <ele>605.94714355469</ele>
        <time>2022-01-01T11:56:27Z</time>
      </trkpt>
      <trkpt lat="43.28129" lon="6.38855">
        <ele>605.59405517578</ele>
        <time>2022-01-01T11:56:31Z</time>
      </trkpt>
      <trkpt lat="43.28117" lon="6.38858">
        <ele>604.55200195312</ele>
        <time>2022-01-01T11:56:35Z</time>
      </trkpt>
      <trkpt lat="43.28105" lon="6.38856">
        <ele>595.23907470703</ele>
        <time>2022-01-01T11:56:39Z</time>
      </trkpt>
      <trkpt lat="43.28085" lon="6.38854">
        <ele>594.71112060547</ele>
        <time>2022-01-01T11:56:45Z</time>
      </trkpt>
      <trkpt lat="43.28069" lon="6.38853">
        <ele>588.28759765625</ele>
        <time>2022-01-01T11:56:51Z</time>
      </trkpt>
      <trkpt lat="43.28059" lon="6.38854">
        <ele>587.88116455078</ele>
        <time>2022-01-01T11:56:55Z</time>
      </trkpt>
      <trkpt lat="43.28045" lon="6.38854">
        <ele>587.13653564453</ele>
        <time>2022-01-01T11:57:01Z</time>
      </trkpt>
      <trkpt lat="43.28033" lon="6.38857">
        <ele>578.20928955078</ele>
        <time>2022-01-01T11:57:09Z</time>
      </trkpt>
      <trkpt lat="43.28013" lon="6.38865">
        <ele>571.56127929688</ele>
        <time>2022-01-01T11:57:19Z</time>
      </trkpt>
      <trkpt lat="43.27968" lon="6.38869">
        <ele>570.20172119141</ele>
        <time>2022-01-01T11:57:27Z</time>
      </trkpt>
      <trkpt lat="43.27952" lon="6.38872">
        <ele>560.56817626953</ele>
        <time>2022-01-01T11:57:31Z</time>
      </trkpt>
      <trkpt lat="43.27941" lon="6.38878">
        <ele>560.46484375</ele>
        <time>2022-01-01T11:57:37Z</time>
      </trkpt>
      <trkpt lat="43.27934" lon="6.38887">
        <ele>560.29669189453</ele>
        <time>2022-01-01T11:57:39Z</time>
      </trkpt>
      <trkpt lat="43.27926" lon="6.38895">
        <ele>559.37261962891</ele>
        <time>2022-01-01T11:57:43Z</time>
      </trkpt>
      <trkpt lat="43.27919" lon="6.38903">
        <ele>559.0751953125</ele>
        <time>2022-01-01T11:57:47Z</time>
      </trkpt>
      <trkpt lat="43.27911" lon="6.38911">
        <ele>558.67169189453</ele>
        <time>2022-01-01T11:57:51Z</time>
      </trkpt>
      <trkpt lat="43.27886" lon="6.389">
        <ele>557.03717041016</ele>
        <time>2022-01-01T11:58:01Z</time>
      </trkpt>
      <trkpt lat="43.27864" lon="6.38885">
        <ele>556.76287841797</ele>
        <time>2022-01-01T11:58:05Z</time>
      </trkpt>
      <trkpt lat="43.27855" lon="6.38877">
        <ele>548.94189453125</ele>
        <time>2022-01-01T11:58:09Z</time>
      </trkpt>
      <trkpt lat="43.27843" lon="6.38876">
        <ele>548.79156494141</ele>
        <time>2022-01-01T11:58:13Z</time>
      </trkpt>
      <trkpt lat="43.27827" lon="6.38876">
        <ele>548.63684082031</ele>
        <time>2022-01-01T11:58:17Z</time>
      </trkpt>
      <trkpt lat="43.27813" lon="6.38876">
        <ele>551.35620117188</ele>
        <time>2022-01-01T11:58:21Z</time>
      </trkpt>
      <trkpt lat="43.278" lon="6.38877">
        <ele>551.32061767578</ele>
        <time>2022-01-01T11:58:25Z</time>
      </trkpt>
      <trkpt lat="43.27789" lon="6.38874">
        <ele>551.27545166016</ele>
        <time>2022-01-01T11:58:29Z</time>
      </trkpt>
      <trkpt lat="43.27777" lon="6.38868">
        <ele>547.56048583984</ele>
        <time>2022-01-01T11:58:33Z</time>
      </trkpt>
      <trkpt lat="43.27749" lon="6.38852">
        <ele>547.12139892578</ele>
        <time>2022-01-01T11:58:39Z</time>
      </trkpt>
      <trkpt lat="43.27734" lon="6.38842">
        <ele>546.89514160156</ele>
        <time>2022-01-01T11:58:43Z</time>
      </trkpt>
      <trkpt lat="43.27718" lon="6.38838">
        <ele>539.8681640625</ele>
        <time>2022-01-01T11:58:47Z</time>
      </trkpt>
      <trkpt lat="43.27705" lon="6.3883">
        <ele>539.86529541016</ele>
        <time>2022-01-01T11:58:51Z</time>
      </trkpt>
      <trkpt lat="43.27692" lon="6.38825">
        <ele>539.93206787109</ele>
        <time>2022-01-01T11:58:55Z</time>
      </trkpt>
      <trkpt lat="43.27678" lon="6.38819">
        <ele>542.90185546875</ele>
        <time>2022-01-01T11:59:01Z</time>
      </trkpt>
      <trkpt lat="43.27657" lon="6.38815">
        <ele>543.05029296875</ele>
        <time>2022-01-01T11:59:09Z</time>
      </trkpt>
      <trkpt lat="43.27646" lon="6.38811">
        <ele>541.86389160156</ele>
        <time>2022-01-01T11:59:13Z</time>
      </trkpt>
      <trkpt lat="43.27637" lon="6.38809">
        <ele>541.91094970703</ele>
        <time>2022-01-01T11:59:17Z</time>
      </trkpt>
      <trkpt lat="43.27628" lon="6.38806">
        <ele>541.98834228516</ele>
        <time>2022-01-01T11:59:21Z</time>
      </trkpt>
      <trkpt lat="43.27614" lon="6.38804">
        <ele>538.22601318359</ele>
        <time>2022-01-01T11:59:27Z</time>
      </trkpt>
      <trkpt lat="43.27603" lon="6.38806">
        <ele>538.12463378906</ele>
        <time>2022-01-01T11:59:31Z</time>
      </trkpt>
      <trkpt lat="43.27591" lon="6.38811">
        <ele>538.10681152344</ele>
        <time>2022-01-01T11:59:35Z</time>
      </trkpt>
      <trkpt lat="43.27582" lon="6.38818">
        <ele>540.91204833984</ele>
        <time>2022-01-01T11:59:39Z</time>
      </trkpt>
      <trkpt lat="43.27569" lon="6.38835">
        <ele>540.75640869141</ele>
        <time>2022-01-01T11:59:45Z</time>
      </trkpt>
      <trkpt lat="43.27557" lon="6.3884">
        <ele>540.25341796875</ele>
        <time>2022-01-01T11:59:49Z</time>
      </trkpt>
      <trkpt lat="43.27544" lon="6.38839">
        <ele>540.62884521484</ele>
        <time>2022-01-01T11:59:53Z</time>
      </trkpt>
      <trkpt lat="43.27532" lon="6.38834">
        <ele>540.65863037109</ele>
        <time>2022-01-01T11:59:57Z</time>
      </trkpt>
      <trkpt lat="43.27523" lon="6.38828">
        <ele>540.61444091797</ele>
        <time>2022-01-01T12:00:01Z</time>
      </trkpt>
      <trkpt lat="43.27513" lon="6.38823">
        <ele>536.50103759766</ele>
        <time>2022-01-01T12:00:05Z</time>
      </trkpt>
      <trkpt lat="43.27502" lon="6.38826">
        <ele>536.15521240234</ele>
        <time>2022-01-01T12:00:09Z</time>
      </trkpt>
      <trkpt lat="43.2749" lon="6.38835">
        <ele>535.89141845703</ele>
        <time>2022-01-01T12:00:13Z</time>
      </trkpt>
      <trkpt lat="43.27472" lon="6.38856">
        <ele>537.65576171875</ele>
        <time>2022-01-01T12:00:19Z</time>
      </trkpt>
      <trkpt lat="43.27463" lon="6.38869">
        <ele>537.40313720703</ele>
        <time>2022-01-01T12:00:23Z</time>
      </trkpt>
      <trkpt lat="43.27449" lon="6.38877">
        <ele>527.71636962891</ele>
        <time>2022-01-01T12:00:31Z</time>
      </trkpt>
      <trkpt lat="43.2743" lon="6.38883">
        <ele>527.09906005859</ele>
        <time>2022-01-01T12:00:39Z</time>
      </trkpt>
      <trkpt lat="43.27415" lon="6.38887">
        <ele>525.62841796875</ele>
        <time>2022-01-01T12:00:43Z</time>
      </trkpt>
      <trkpt lat="43.27401" lon="6.38894">
        <ele>525.34838867188</ele>
        <time>2022-01-01T12:00:47Z</time>
      </trkpt>
      <trkpt lat="43.27392" lon="6.38902">
        <ele>525.15911865234</ele>
        <time>2022-01-01T12:00:51Z</time>
      </trkpt>
      <trkpt lat="43.27385" lon="6.38915">
        <ele>515.40374755859</ele>
        <time>2022-01-01T12:00:55Z</time>
      </trkpt>
      <trkpt lat="43.27374" lon="6.38933">
        <ele>515.10687255859</ele>
        <time>2022-01-01T12:00:59Z</time>
      </trkpt>
      <trkpt lat="43.27362" lon="6.38953">
        <ele>515.03863525391</ele>
        <time>2022-01-01T12:01:03Z</time>
      </trkpt>
      <trkpt lat="43.27355" lon="6.38965">
        <ele>514.54730224609</ele>
        <time>2022-01-01T12:01:29Z</time>
      </trkpt>
      <trkpt lat="43.27348" lon="6.38982">
        <ele>514.24310302734</ele>
        <time>2022-01-01T12:01:37Z</time>
      </trkpt>
      <trkpt lat="43.27342" lon="6.38997">
        <ele>512.81750488281</ele>
        <time>2022-01-01T12:01:45Z</time>
      </trkpt>
      <trkpt lat="43.27337" lon="6.39007">
        <ele>513.36755371094</ele>
        <time>2022-01-01T12:01:53Z</time>
      </trkpt>
      <trkpt lat="43.2733" lon="6.39018">
        <ele>516.41638183594</ele>
        <time>2022-01-01T12:02:01Z</time>
      </trkpt>
      <trkpt lat="43.27323" lon="6.39032">
        <ele>518.84124755859</ele>
        <time>2022-01-01T12:02:13Z</time>
      </trkpt>
      <trkpt lat="43.27316" lon="6.39043">
        <ele>523.4482421875</ele>
        <time>2022-01-01T12:02:35Z</time>
      </trkpt>
      <trkpt lat="43.27312" lon="6.39054">
        <ele>525.13507080078</ele>
        <time>2022-01-01T12:02:55Z</time>
      </trkpt>
      <trkpt lat="43.27307" lon="6.39065">
        <ele>526.24261474609</ele>
        <time>2022-01-01T12:03:03Z</time>
      </trkpt>
      <trkpt lat="43.27302" lon="6.39077">
        <ele>530.06365966797</ele>
        <time>2022-01-01T12:03:11Z</time>
      </trkpt>
      <trkpt lat="43.27298" lon="6.39088">
        <ele>530.42443847656</ele>
        <time>2022-01-01T12:03:19Z</time>
      </trkpt>
      <trkpt lat="43.27292" lon="6.39099">
        <ele>535.28698730469</ele>
        <time>2022-01-01T12:03:35Z</time>
      </trkpt>
      <trkpt lat="43.27285" lon="6.39112">
        <ele>537.24987792969</ele>
        <time>2022-01-01T12:03:49Z</time>
      </trkpt>
      <trkpt lat="43.27279" lon="6.39122">
        <ele>540.15197753906</ele>
        <time>2022-01-01T12:04:03Z</time>
      </trkpt>
      <trkpt lat="43.27271" lon="6.39131">
        <ele>542.32403564453</ele>
        <time>2022-01-01T12:04:19Z</time>
      </trkpt>
      <trkpt lat="43.27263" lon="6.39141">
        <ele>543.90270996094</ele>
        <time>2022-01-01T12:04:35Z</time>
      </trkpt>
      <trkpt lat="43.27255" lon="6.39148">
        <ele>545.77069091797</ele>
        <time>2022-01-01T12:05:35Z</time>
      </trkpt>
      <trkpt lat="43.27243" lon="6.39155">
        <ele>546.84100341797</ele>
        <time>2022-01-01T12:05:45Z</time>
      </trkpt>
      <trkpt lat="43.27233" lon="6.39158">
        <ele>546.82946777344</ele>
        <time>2022-01-01T12:05:51Z</time>
      </trkpt>
      <trkpt lat="43.27222" lon="6.3916">
        <ele>546.62054443359</ele>
        <time>2022-01-01T12:05:59Z</time>
      </trkpt>
      <trkpt lat="43.27208" lon="6.39157">
        <ele>541.06561279297</ele>
        <time>2022-01-01T12:06:09Z</time>
      </trkpt>
      <trkpt lat="43.27196" lon="6.39152">
        <ele>539.45373535156</ele>
        <time>2022-01-01T12:06:37Z</time>
      </trkpt>
      <trkpt lat="43.27183" lon="6.39143">
        <ele>540.39379882812</ele>
        <time>2022-01-01T12:06:45Z</time>
      </trkpt>
      <trkpt lat="43.27166" lon="6.39135">
        <ele>539.46038818359</ele>
        <time>2022-01-01T12:06:53Z</time>
      </trkpt>
      <trkpt lat="43.27143" lon="6.39126">
        <ele>524.94427490234</ele>
        <time>2022-01-01T12:07:01Z</time>
      </trkpt>
      <trkpt lat="43.2709" lon="6.39127">
        <ele>524.80633544922</ele>
        <time>2022-01-01T12:07:05Z</time>
      </trkpt>
      <trkpt lat="43.2708" lon="6.39132">
        <ele>531.20544433594</ele>
        <time>2022-01-01T12:07:09Z</time>
      </trkpt>
      <trkpt lat="43.27069" lon="6.39139">
        <ele>531.00421142578</ele>
        <time>2022-01-01T12:07:13Z</time>
      </trkpt>
      <trkpt lat="43.27061" lon="6.39147">
        <ele>530.88311767578</ele>
        <time>2022-01-01T12:07:17Z</time>
      </trkpt>
      <trkpt lat="43.27049" lon="6.39153">
        <ele>531.52380371094</ele>
        <time>2022-01-01T12:07:23Z</time>
      </trkpt>
      <trkpt lat="43.2703" lon="6.39171">
        <ele>531.04724121094</ele>
        <time>2022-01-01T12:07:29Z</time>
      </trkpt>
      <trkpt lat="43.27019" lon="6.3918">
        <ele>522.49719238281</ele>
        <time>2022-01-01T12:07:33Z</time>
      </trkpt>
      <trkpt lat="43.27004" lon="6.39184">
        <ele>529.35949707031</ele>
        <time>2022-01-01T12:07:45Z</time>
      </trkpt>
      <trkpt lat="43.26994" lon="6.3919">
        <ele>529.52673339844</ele>
        <time>2022-01-01T12:07:53Z</time>
      </trkpt>
      <trkpt lat="43.26983" lon="6.39205">
        <ele>535.84252929688</ele>
        <time>2022-01-01T12:08:01Z</time>
      </trkpt>
      <trkpt lat="43.26982" lon="6.39217">
        <ele>535.71856689453</ele>
        <time>2022-01-01T12:08:05Z</time>
      </trkpt>
      <trkpt lat="43.26983" lon="6.39233">
        <ele>527.79675292969</ele>
        <time>2022-01-01T12:08:09Z</time>
      </trkpt>
      <trkpt lat="43.26978" lon="6.39267">
        <ele>527.57385253906</ele>
        <time>2022-01-01T12:08:19Z</time>
      </trkpt>
      <trkpt lat="43.26979" lon="6.39284">
        <ele>521.25494384766</ele>
        <time>2022-01-01T12:08:23Z</time>
      </trkpt>
      <trkpt lat="43.26982" lon="6.39299">
        <ele>520.78698730469</ele>
        <time>2022-01-01T12:08:27Z</time>
      </trkpt>
      <trkpt lat="43.26989" lon="6.39312">
        <ele>520.52087402344</ele>
        <time>2022-01-01T12:08:31Z</time>
      </trkpt>
      <trkpt lat="43.2699" lon="6.39326">
        <ele>510.2532043457</ele>
        <time>2022-01-01T12:08:35Z</time>
      </trkpt>
      <trkpt lat="43.26987" lon="6.39351">
        <ele>509.66275024414</ele>
        <time>2022-01-01T12:08:43Z</time>
      </trkpt>
      <trkpt lat="43.26988" lon="6.39369">
        <ele>519.46313476562</ele>
        <time>2022-01-01T12:08:47Z</time>
      </trkpt>
      <trkpt lat="43.26986" lon="6.39389">
        <ele>519.29547119141</ele>
        <time>2022-01-01T12:08:51Z</time>
      </trkpt>
      <trkpt lat="43.26984" lon="6.39405">
        <ele>518.98992919922</ele>
        <time>2022-01-01T12:08:55Z</time>
      </trkpt>
      <trkpt lat="43.26983" lon="6.39418">
        <ele>509.00277709961</ele>
        <time>2022-01-01T12:08:59Z</time>
      </trkpt>
      <trkpt lat="43.26987" lon="6.39444">
        <ele>508.27639770508</ele>
        <time>2022-01-01T12:09:07Z</time>
      </trkpt>
      <trkpt lat="43.26985" lon="6.39466">
        <ele>505.68322753906</ele>
        <time>2022-01-01T12:09:13Z</time>
      </trkpt>
      <trkpt lat="43.26985" lon="6.39497">
        <ele>505.46221923828</ele>
        <time>2022-01-01T12:09:19Z</time>
      </trkpt>
      <trkpt lat="43.26986" lon="6.39513">
        <ele>505.08703613281</ele>
        <time>2022-01-01T12:09:23Z</time>
      </trkpt>
      <trkpt lat="43.26986" lon="6.39534">
        <ele>497.77133178711</ele>
        <time>2022-01-01T12:09:31Z</time>
      </trkpt>
      <trkpt lat="43.26984" lon="6.3955">
        <ele>497.40859985352</ele>
        <time>2022-01-01T12:09:35Z</time>
      </trkpt>
      <trkpt lat="43.26982" lon="6.39564">
        <ele>494.58160400391</ele>
        <time>2022-01-01T12:09:39Z</time>
      </trkpt>
      <trkpt lat="43.26983" lon="6.39583">
        <ele>494.34140014648</ele>
        <time>2022-01-01T12:09:43Z</time>
      </trkpt>
      <trkpt lat="43.26986" lon="6.396">
        <ele>494.11944580078</ele>
        <time>2022-01-01T12:09:47Z</time>
      </trkpt>
      <trkpt lat="43.26987" lon="6.39619">
        <ele>490.24371337891</ele>
        <time>2022-01-01T12:09:51Z</time>
      </trkpt>
      <trkpt lat="43.26986" lon="6.39635">
        <ele>490.17407226562</ele>
        <time>2022-01-01T12:09:55Z</time>
      </trkpt>
      <trkpt lat="43.26987" lon="6.39662">
        <ele>490.03762817383</ele>
        <time>2022-01-01T12:10:01Z</time>
      </trkpt>
      <trkpt lat="43.26991" lon="6.39676">
        <ele>484.06466674805</ele>
        <time>2022-01-01T12:10:05Z</time>
      </trkpt>
      <trkpt lat="43.27002" lon="6.3969">
        <ele>483.72741699219</ele>
        <time>2022-01-01T12:10:09Z</time>
      </trkpt>
      <trkpt lat="43.27008" lon="6.39699">
        <ele>483.29888916016</ele>
        <time>2022-01-01T12:10:13Z</time>
      </trkpt>
      <trkpt lat="43.26996" lon="6.39723">
        <ele>480.33499145508</ele>
        <time>2022-01-01T12:10:23Z</time>
      </trkpt>
      <trkpt lat="43.26997" lon="6.39735">
        <ele>476.78399658203</ele>
        <time>2022-01-01T12:10:29Z</time>
      </trkpt>
      <trkpt lat="43.27004" lon="6.39747">
        <ele>476.73400878906</ele>
        <time>2022-01-01T12:10:37Z</time>
      </trkpt>
      <trkpt lat="43.27017" lon="6.39755">
        <ele>480.6116027832</ele>
        <time>2022-01-01T12:10:45Z</time>
      </trkpt>
      <trkpt lat="43.2703" lon="6.39771">
        <ele>480.45739746094</ele>
        <time>2022-01-01T12:10:51Z</time>
      </trkpt>
      <trkpt lat="43.27037" lon="6.39781">
        <ele>478.59606933594</ele>
        <time>2022-01-01T12:10:55Z</time>
      </trkpt>
      <trkpt lat="43.27061" lon="6.39803">
        <ele>478.08395385742</ele>
        <time>2022-01-01T12:11:05Z</time>
      </trkpt>
      <trkpt lat="43.27071" lon="6.39811">
        <ele>480.08325195312</ele>
        <time>2022-01-01T12:11:11Z</time>
      </trkpt>
      <trkpt lat="43.27084" lon="6.39819">
        <ele>479.62060546875</ele>
        <time>2022-01-01T12:11:17Z</time>
      </trkpt>
      <trkpt lat="43.27098" lon="6.39836">
        <ele>472.88070678711</ele>
        <time>2022-01-01T12:11:21Z</time>
      </trkpt>
      <trkpt lat="43.27111" lon="6.39858">
        <ele>472.86965942383</ele>
        <time>2022-01-01T12:11:25Z</time>
      </trkpt>
      <trkpt lat="43.27118" lon="6.39876">
        <ele>461.1828918457</ele>
        <time>2022-01-01T12:11:33Z</time>
      </trkpt>
      <trkpt lat="43.27126" lon="6.39885">
        <ele>460.94122314453</ele>
        <time>2022-01-01T12:11:37Z</time>
      </trkpt>
      <trkpt lat="43.27135" lon="6.39895">
        <ele>460.68707275391</ele>
        <time>2022-01-01T12:11:41Z</time>
      </trkpt>
      <trkpt lat="43.27143" lon="6.39905">
        <ele>458.04531860352</ele>
        <time>2022-01-01T12:11:45Z</time>
      </trkpt>
      <trkpt lat="43.27153" lon="6.39915">
        <ele>457.91799926758</ele>
        <time>2022-01-01T12:11:49Z</time>
      </trkpt>
      <trkpt lat="43.27169" lon="6.39928">
        <ele>457.71188354492</ele>
        <time>2022-01-01T12:11:55Z</time>
      </trkpt>
      <trkpt lat="43.27176" lon="6.39936">
        <ele>453.63397216797</ele>
        <time>2022-01-01T12:11:59Z</time>
      </trkpt>
      <trkpt lat="43.27187" lon="6.39951">
        <ele>453.83575439453</ele>
        <time>2022-01-01T12:12:07Z</time>
      </trkpt>
      <trkpt lat="43.27197" lon="6.39967">
        <ele>452.95498657227</ele>
        <time>2022-01-01T12:12:15Z</time>
      </trkpt>
      <trkpt lat="43.27207" lon="6.39984">
        <ele>451.95486450195</ele>
        <time>2022-01-01T12:12:23Z</time>
      </trkpt>
      <trkpt lat="43.27211" lon="6.4">
        <ele>451.89144897461</ele>
        <time>2022-01-01T12:12:27Z</time>
      </trkpt>
      <trkpt lat="43.2721" lon="6.40018">
        <ele>451.50811767578</ele>
        <time>2022-01-01T12:12:35Z</time>
      </trkpt>
      <trkpt lat="43.27209" lon="6.40039">
        <ele>451.60855102539</ele>
        <time>2022-01-01T12:12:45Z</time>
      </trkpt>
      <trkpt lat="43.27208" lon="6.40054">
        <ele>451.43603515625</ele>
        <time>2022-01-01T12:12:49Z</time>
      </trkpt>
      <trkpt lat="43.27209" lon="6.40067">
        <ele>451.29483032227</ele>
        <time>2022-01-01T12:12:53Z</time>
      </trkpt>
      <trkpt lat="43.27218" lon="6.40083">
        <ele>448.87377929688</ele>
        <time>2022-01-01T12:13:01Z</time>
      </trkpt>
      <trkpt lat="43.27227" lon="6.40103">
        <ele>447.99459838867</ele>
        <time>2022-01-01T12:13:09Z</time>
      </trkpt>
      <trkpt lat="43.27236" lon="6.40115">
        <ele>442.90240478516</ele>
        <time>2022-01-01T12:13:15Z</time>
      </trkpt>
      <trkpt lat="43.27247" lon="6.40125">
        <ele>442.35955810547</ele>
        <time>2022-01-01T12:13:23Z</time>
      </trkpt>
      <trkpt lat="43.2726" lon="6.40143">
        <ele>430.22329711914</ele>
        <time>2022-01-01T12:13:31Z</time>
      </trkpt>
      <trkpt lat="43.27266" lon="6.40153">
        <ele>430.02200317383</ele>
        <time>2022-01-01T12:13:35Z</time>
      </trkpt>
      <trkpt lat="43.27284" lon="6.40172">
        <ele>426.04006958008</ele>
        <time>2022-01-01T12:13:45Z</time>
      </trkpt>
      <trkpt lat="43.27294" lon="6.40184">
        <ele>425.86325073242</ele>
        <time>2022-01-01T12:13:49Z</time>
      </trkpt>
      <trkpt lat="43.27304" lon="6.40193">
        <ele>427.12252807617</ele>
        <time>2022-01-01T12:13:53Z</time>
      </trkpt>
      <trkpt lat="43.27327" lon="6.40205">
        <ele>426.94091796875</ele>
        <time>2022-01-01T12:13:59Z</time>
      </trkpt>
      <trkpt lat="43.27342" lon="6.40214">
        <ele>426.9284362793</ele>
        <time>2022-01-01T12:14:03Z</time>
      </trkpt>
      <trkpt lat="43.27346" lon="6.40229">
        <ele>424.04766845703</ele>
        <time>2022-01-01T12:14:33Z</time>
      </trkpt>
      <trkpt lat="43.27357" lon="6.40234">
        <ele>423.82379150391</ele>
        <time>2022-01-01T12:14:37Z</time>
      </trkpt>
      <trkpt lat="43.27366" lon="6.40241">
        <ele>423.71279907227</ele>
        <time>2022-01-01T12:14:41Z</time>
      </trkpt>
      <trkpt lat="43.27378" lon="6.40263">
        <ele>416.3879699707</ele>
        <time>2022-01-01T12:14:47Z</time>
      </trkpt>
      <trkpt lat="43.27394" lon="6.40282">
        <ele>416.16888427734</ele>
        <time>2022-01-01T12:14:51Z</time>
      </trkpt>
      <trkpt lat="43.27406" lon="6.40293">
        <ele>416.07904052734</ele>
        <time>2022-01-01T12:14:57Z</time>
      </trkpt>
      <trkpt lat="43.27418" lon="6.40314">
        <ele>408.75927734375</ele>
        <time>2022-01-01T12:15:05Z</time>
      </trkpt>
      <trkpt lat="43.27427" lon="6.40338">
        <ele>408.70254516602</ele>
        <time>2022-01-01T12:15:11Z</time>
      </trkpt>
      <trkpt lat="43.27439" lon="6.40353">
        <ele>411.11102294922</ele>
        <time>2022-01-01T12:15:17Z</time>
      </trkpt>
      <trkpt lat="43.27443" lon="6.40369">
        <ele>411.04998779297</ele>
        <time>2022-01-01T12:15:21Z</time>
      </trkpt>
      <trkpt lat="43.27446" lon="6.40386">
        <ele>408.125</ele>
        <time>2022-01-01T12:15:25Z</time>
      </trkpt>
      <trkpt lat="43.27448" lon="6.40407">
        <ele>408.06350708008</ele>
        <time>2022-01-01T12:15:29Z</time>
      </trkpt>
      <trkpt lat="43.27456" lon="6.40426">
        <ele>407.93475341797</ele>
        <time>2022-01-01T12:15:33Z</time>
      </trkpt>
      <trkpt lat="43.27452" lon="6.40447">
        <ele>408.71224975586</ele>
        <time>2022-01-01T12:15:37Z</time>
      </trkpt>
      <trkpt lat="43.27447" lon="6.40466">
        <ele>408.0901184082</ele>
        <time>2022-01-01T12:15:41Z</time>
      </trkpt>
      <trkpt lat="43.27442" lon="6.40491">
        <ele>408.69396972656</ele>
        <time>2022-01-01T12:15:51Z</time>
      </trkpt>
      <trkpt lat="43.27436" lon="6.40504">
        <ele>408.43551635742</ele>
        <time>2022-01-01T12:15:55Z</time>
      </trkpt>
      <trkpt lat="43.27442" lon="6.40523">
        <ele>404.77392578125</ele>
        <time>2022-01-01T12:16:03Z</time>
      </trkpt>
      <trkpt lat="43.27451" lon="6.40531">
        <ele>404.63751220703</ele>
        <time>2022-01-01T12:16:07Z</time>
      </trkpt>
      <trkpt lat="43.27464" lon="6.40546">
        <ele>396.74899291992</ele>
        <time>2022-01-01T12:16:15Z</time>
      </trkpt>
      <trkpt lat="43.27471" lon="6.40554">
        <ele>396.61111450195</ele>
        <time>2022-01-01T12:16:19Z</time>
      </trkpt>
      <trkpt lat="43.27476" lon="6.40568">
        <ele>396.14175415039</ele>
        <time>2022-01-01T12:16:25Z</time>
      </trkpt>
      <trkpt lat="43.2748" lon="6.40588">
        <ele>394.72525024414</ele>
        <time>2022-01-01T12:16:33Z</time>
      </trkpt>
      <trkpt lat="43.27487" lon="6.40614">
        <ele>389.4348449707</ele>
        <time>2022-01-01T12:16:41Z</time>
      </trkpt>
      <trkpt lat="43.27492" lon="6.40626">
        <ele>389.18502807617</ele>
        <time>2022-01-01T12:16:45Z</time>
      </trkpt>
      <trkpt lat="43.27503" lon="6.40634">
        <ele>383.35546875</ele>
        <time>2022-01-01T12:16:53Z</time>
      </trkpt>
      <trkpt lat="43.27515" lon="6.40636">
        <ele>383.39868164062</ele>
        <time>2022-01-01T12:16:59Z</time>
      </trkpt>
      <trkpt lat="43.27532" lon="6.40639">
        <ele>381.84939575195</ele>
        <time>2022-01-01T12:17:07Z</time>
      </trkpt>
      <trkpt lat="43.27541" lon="6.40666">
        <ele>381.04470825195</ele>
        <time>2022-01-01T12:17:15Z</time>
      </trkpt>
      <trkpt lat="43.27535" lon="6.40687">
        <ele>382.92678833008</ele>
        <time>2022-01-01T12:17:23Z</time>
      </trkpt>
      <trkpt lat="43.27528" lon="6.40708">
        <ele>383.6242980957</ele>
        <time>2022-01-01T12:17:31Z</time>
      </trkpt>
      <trkpt lat="43.2752" lon="6.40716">
        <ele>382.95315551758</ele>
        <time>2022-01-01T12:17:39Z</time>
      </trkpt>
      <trkpt lat="43.27506" lon="6.40724">
        <ele>380.58993530273</ele>
        <time>2022-01-01T12:17:47Z</time>
      </trkpt>
      <trkpt lat="43.27499" lon="6.40734">
        <ele>365.44537353516</ele>
        <time>2022-01-01T12:17:55Z</time>
      </trkpt>
      <trkpt lat="43.2749" lon="6.40735">
        <ele>378.13775634766</ele>
        <time>2022-01-01T12:20:01Z</time>
      </trkpt>
      <trkpt lat="43.27485" lon="6.40714">
        <ele>368.91610717773</ele>
        <time>2022-01-01T12:20:21Z</time>
      </trkpt>
      <trkpt lat="43.27468" lon="6.40696">
        <ele>366.751953125</ele>
        <time>2022-01-01T12:20:25Z</time>
      </trkpt>
      <trkpt lat="43.27444" lon="6.40679">
        <ele>366.4358215332</ele>
        <time>2022-01-01T12:20:29Z</time>
      </trkpt>
      <trkpt lat="43.274" lon="6.40639">
        <ele>365.84204101562</ele>
        <time>2022-01-01T12:20:35Z</time>
      </trkpt>
      <trkpt lat="43.27369" lon="6.40616">
        <ele>362.91705322266</ele>
        <time>2022-01-01T12:20:39Z</time>
      </trkpt>
      <trkpt lat="43.27345" lon="6.40584">
        <ele>362.35974121094</ele>
        <time>2022-01-01T12:20:45Z</time>
      </trkpt>
      <trkpt lat="43.27319" lon="6.40561">
        <ele>361.07559204102</ele>
        <time>2022-01-01T12:20:49Z</time>
      </trkpt>
      <trkpt lat="43.273" lon="6.40531">
        <ele>349.50830078125</ele>
        <time>2022-01-01T12:20:53Z</time>
      </trkpt>
      <trkpt lat="43.27281" lon="6.40501">
        <ele>349.37091064453</ele>
        <time>2022-01-01T12:20:57Z</time>
      </trkpt>
      <trkpt lat="43.27259" lon="6.40488">
        <ele>348.5989074707</ele>
        <time>2022-01-01T12:21:01Z</time>
      </trkpt>
      <trkpt lat="43.27233" lon="6.4048">
        <ele>337.36157226562</ele>
        <time>2022-01-01T12:21:05Z</time>
      </trkpt>
      <trkpt lat="43.27208" lon="6.40467">
        <ele>336.90567016602</ele>
        <time>2022-01-01T12:21:09Z</time>
      </trkpt>
      <trkpt lat="43.27183" lon="6.40462">
        <ele>336.59722900391</ele>
        <time>2022-01-01T12:21:13Z</time>
      </trkpt>
      <trkpt lat="43.27164" lon="6.40451">
        <ele>330.29571533203</ele>
        <time>2022-01-01T12:21:17Z</time>
      </trkpt>
      <trkpt lat="43.2714" lon="6.40437">
        <ele>329.9723815918</ele>
        <time>2022-01-01T12:21:21Z</time>
      </trkpt>
      <trkpt lat="43.27117" lon="6.40432">
        <ele>329.09417724609</ele>
        <time>2022-01-01T12:21:25Z</time>
      </trkpt>
      <trkpt lat="43.27104" lon="6.40421">
        <ele>319.92333984375</ele>
        <time>2022-01-01T12:21:29Z</time>
      </trkpt>
      <trkpt lat="43.27097" lon="6.40413">
        <ele>319.58752441406</ele>
        <time>2022-01-01T12:21:37Z</time>
      </trkpt>
      <trkpt lat="43.27064" lon="6.40418">
        <ele>310.60568237305</ele>
        <time>2022-01-01T12:21:45Z</time>
      </trkpt>
      <trkpt lat="43.2703" lon="6.40415">
        <ele>310.22708129883</ele>
        <time>2022-01-01T12:21:49Z</time>
      </trkpt>
      <trkpt lat="43.27006" lon="6.40402">
        <ele>309.07458496094</ele>
        <time>2022-01-01T12:21:53Z</time>
      </trkpt>
      <trkpt lat="43.26974" lon="6.40396">
        <ele>308.43225097656</ele>
        <time>2022-01-01T12:21:59Z</time>
      </trkpt>
      <trkpt lat="43.26961" lon="6.40392">
        <ele>308.00610351562</ele>
        <time>2022-01-01T12:22:01Z</time>
      </trkpt>
      <trkpt lat="43.26942" lon="6.40372">
        <ele>304.99627685547</ele>
        <time>2022-01-01T12:22:05Z</time>
      </trkpt>
      <trkpt lat="43.26922" lon="6.40359">
        <ele>304.79257202148</ele>
        <time>2022-01-01T12:22:09Z</time>
      </trkpt>
      <trkpt lat="43.26904" lon="6.40355">
        <ele>304.40390014648</ele>
        <time>2022-01-01T12:22:13Z</time>
      </trkpt>
      <trkpt lat="43.26893" lon="6.40371">
        <ele>299.99600219727</ele>
        <time>2022-01-01T12:22:17Z</time>
      </trkpt>
      <trkpt lat="43.26868" lon="6.404">
        <ele>299.54776000977</ele>
        <time>2022-01-01T12:22:23Z</time>
      </trkpt>
      <trkpt lat="43.26859" lon="6.40426">
        <ele>299.44686889648</ele>
        <time>2022-01-01T12:22:27Z</time>
      </trkpt>
      <trkpt lat="43.26854" lon="6.40448">
        <ele>287.81103515625</ele>
        <time>2022-01-01T12:22:31Z</time>
      </trkpt>
      <trkpt lat="43.26836" lon="6.40431">
        <ele>287.5299987793</ele>
        <time>2022-01-01T12:22:37Z</time>
      </trkpt>
      <trkpt lat="43.26831" lon="6.40402">
        <ele>287.36572265625</ele>
        <time>2022-01-01T12:22:41Z</time>
      </trkpt>
      <trkpt lat="43.26812" lon="6.40356">
        <ele>291.73239135742</ele>
        <time>2022-01-01T12:22:47Z</time>
      </trkpt>
      <trkpt lat="43.26797" lon="6.4033">
        <ele>291.44128417969</ele>
        <time>2022-01-01T12:22:51Z</time>
      </trkpt>
      <trkpt lat="43.26782" lon="6.40302">
        <ele>291.28564453125</ele>
        <time>2022-01-01T12:22:55Z</time>
      </trkpt>
      <trkpt lat="43.26765" lon="6.40274">
        <ele>287.29986572266</ele>
        <time>2022-01-01T12:22:59Z</time>
      </trkpt>
      <trkpt lat="43.26747" lon="6.40248">
        <ele>287.11346435547</ele>
        <time>2022-01-01T12:23:03Z</time>
      </trkpt>
      <trkpt lat="43.26727" lon="6.40229">
        <ele>287.05679321289</ele>
        <time>2022-01-01T12:23:07Z</time>
      </trkpt>
      <trkpt lat="43.26707" lon="6.40215">
        <ele>285.65557861328</ele>
        <time>2022-01-01T12:23:11Z</time>
      </trkpt>
      <trkpt lat="43.26692" lon="6.4021">
        <ele>285.62963867188</ele>
        <time>2022-01-01T12:23:15Z</time>
      </trkpt>
      <trkpt lat="43.26674" lon="6.40204">
        <ele>285.6032409668</ele>
        <time>2022-01-01T12:23:21Z</time>
      </trkpt>
      <trkpt lat="43.2666" lon="6.40204">
        <ele>285.5754699707</ele>
        <time>2022-01-01T12:23:25Z</time>
      </trkpt>
      <trkpt lat="43.26644" lon="6.40208">
        <ele>285.39389038086</ele>
        <time>2022-01-01T12:23:29Z</time>
      </trkpt>
      <trkpt lat="43.26626" lon="6.40222">
        <ele>285.28628540039</ele>
        <time>2022-01-01T12:23:33Z</time>
      </trkpt>
      <trkpt lat="43.26601" lon="6.40248">
        <ele>282.33071899414</ele>
        <time>2022-01-01T12:23:37Z</time>
      </trkpt>
      <trkpt lat="43.26605" lon="6.40271">
        <ele>281.9651184082</ele>
        <time>2022-01-01T12:23:41Z</time>
      </trkpt>
      <trkpt lat="43.26606" lon="6.40323">
        <ele>281.59088134766</ele>
        <time>2022-01-01T12:23:45Z</time>
      </trkpt>
      <trkpt lat="43.26582" lon="6.40365">
        <ele>275.54693603516</ele>
        <time>2022-01-01T12:23:51Z</time>
      </trkpt>
      <trkpt lat="43.26558" lon="6.40359">
        <ele>275.48352050781</ele>
        <time>2022-01-01T12:23:55Z</time>
      </trkpt>
      <trkpt lat="43.2652" lon="6.40361">
        <ele>275.15634155273</ele>
        <time>2022-01-01T12:23:59Z</time>
      </trkpt>
      <trkpt lat="43.26493" lon="6.40369">
        <ele>267.11938476562</ele>
        <time>2022-01-01T12:24:03Z</time>
      </trkpt>
      <trkpt lat="43.26467" lon="6.40376">
        <ele>266.78546142578</ele>
        <time>2022-01-01T12:24:07Z</time>
      </trkpt>
      <trkpt lat="43.26433" lon="6.40364">
        <ele>266.6139831543</ele>
        <time>2022-01-01T12:24:13Z</time>
      </trkpt>
      <trkpt lat="43.26419" lon="6.40331">
        <ele>263.3606262207</ele>
        <time>2022-01-01T12:24:19Z</time>
      </trkpt>
      <trkpt lat="43.26414" lon="6.4032">
        <ele>263.41107177734</ele>
        <time>2022-01-01T12:24:21Z</time>
      </trkpt>
      <trkpt lat="43.26414" lon="6.40305">
        <ele>263.54605102539</ele>
        <time>2022-01-01T12:24:25Z</time>
      </trkpt>
      <trkpt lat="43.26413" lon="6.40287">
        <ele>261.97375488281</ele>
        <time>2022-01-01T12:24:31Z</time>
      </trkpt>
      <trkpt lat="43.26408" lon="6.40273">
        <ele>262.15390014648</ele>
        <time>2022-01-01T12:24:37Z</time>
      </trkpt>
      <trkpt lat="43.26405" lon="6.40255">
        <ele>273.82144165039</ele>
        <time>2022-01-01T12:24:43Z</time>
      </trkpt>
      <trkpt lat="43.26412" lon="6.40238">
        <ele>273.9967956543</ele>
        <time>2022-01-01T12:24:51Z</time>
      </trkpt>
      <trkpt lat="43.26422" lon="6.40226">
        <ele>271.58242797852</ele>
        <time>2022-01-01T12:25:09Z</time>
      </trkpt>
      <trkpt lat="43.26429" lon="6.40207">
        <ele>271.7126159668</ele>
        <time>2022-01-01T12:25:17Z</time>
      </trkpt>
      <trkpt lat="43.26435" lon="6.40189">
        <ele>269.23251342773</ele>
        <time>2022-01-01T12:25:21Z</time>
      </trkpt>
      <trkpt lat="43.26442" lon="6.40172">
        <ele>269.21618652344</ele>
        <time>2022-01-01T12:25:25Z</time>
      </trkpt>
      <trkpt lat="43.26445" lon="6.40159">
        <ele>269.16284179688</ele>
        <time>2022-01-01T12:25:29Z</time>
      </trkpt>
      <trkpt lat="43.26434" lon="6.40147">
        <ele>270.51223754883</ele>
        <time>2022-01-01T12:25:35Z</time>
      </trkpt>
      <trkpt lat="43.2642" lon="6.40158">
        <ele>270.75198364258</ele>
        <time>2022-01-01T12:25:41Z</time>
      </trkpt>
      <trkpt lat="43.26415" lon="6.40172">
        <ele>273.41021728516</ele>
        <time>2022-01-01T12:25:49Z</time>
      </trkpt>
      <trkpt lat="43.26401" lon="6.40185">
        <ele>274.01452636719</ele>
        <time>2022-01-01T12:25:57Z</time>
      </trkpt>
      <trkpt lat="43.26388" lon="6.40202">
        <ele>274.38732910156</ele>
        <time>2022-01-01T12:26:07Z</time>
      </trkpt>
      <trkpt lat="43.26379" lon="6.40205">
        <ele>275.4880065918</ele>
        <time>2022-01-01T12:26:15Z</time>
      </trkpt>
      <trkpt lat="43.26363" lon="6.40205">
        <ele>275.64865112305</ele>
        <time>2022-01-01T12:26:25Z</time>
      </trkpt>
      <trkpt lat="43.26365" lon="6.40221">
        <ele>275.84609985352</ele>
        <time>2022-01-01T12:26:33Z</time>
      </trkpt>
      <trkpt lat="43.26368" lon="6.40238">
        <ele>278.78436279297</ele>
        <time>2022-01-01T12:26:41Z</time>
      </trkpt>
      <trkpt lat="43.26357" lon="6.40252">
        <ele>280.54000854492</ele>
        <time>2022-01-01T12:26:49Z</time>
      </trkpt>
      <trkpt lat="43.26346" lon="6.40266">
        <ele>280.84268188477</ele>
        <time>2022-01-01T12:26:57Z</time>
      </trkpt>
      <trkpt lat="43.26344" lon="6.4028">
        <ele>286.8293762207</ele>
        <time>2022-01-01T12:27:05Z</time>
      </trkpt>
      <trkpt lat="43.26339" lon="6.40296">
        <ele>285.87274169922</ele>
        <time>2022-01-01T12:27:13Z</time>
      </trkpt>
      <trkpt lat="43.26332" lon="6.40309">
        <ele>286.1067199707</ele>
        <time>2022-01-01T12:27:21Z</time>
      </trkpt>
      <trkpt lat="43.26324" lon="6.40317">
        <ele>283.2414855957</ele>
        <time>2022-01-01T12:27:31Z</time>
      </trkpt>
      <trkpt lat="43.26311" lon="6.40314">
        <ele>297.04507446289</ele>
        <time>2022-01-01T12:27:39Z</time>
      </trkpt>
      <trkpt lat="43.26301" lon="6.4032">
        <ele>297.24398803711</ele>
        <time>2022-01-01T12:27:45Z</time>
      </trkpt>
      <trkpt lat="43.26287" lon="6.40326">
        <ele>296.78015136719</ele>
        <time>2022-01-01T12:27:53Z</time>
      </trkpt>
      <trkpt lat="43.26277" lon="6.40331">
        <ele>297.07461547852</ele>
        <time>2022-01-01T12:28:01Z</time>
      </trkpt>
      <trkpt lat="43.26264" lon="6.4034">
        <ele>296.74758911133</ele>
        <time>2022-01-01T12:28:11Z</time>
      </trkpt>
      <trkpt lat="43.26251" lon="6.40347">
        <ele>296.94891357422</ele>
        <time>2022-01-01T12:28:17Z</time>
      </trkpt>
      <trkpt lat="43.2624" lon="6.40346">
        <ele>292.48272705078</ele>
        <time>2022-01-01T12:28:29Z</time>
      </trkpt>
      <trkpt lat="43.26245" lon="6.40363">
        <ele>301.31546020508</ele>
        <time>2022-01-01T12:28:41Z</time>
      </trkpt>
      <trkpt lat="43.26244" lon="6.40383">
        <ele>306.52703857422</ele>
        <time>2022-01-01T12:28:51Z</time>
      </trkpt>
      <trkpt lat="43.26236" lon="6.40396">
        <ele>303.00918579102</ele>
        <time>2022-01-01T12:28:59Z</time>
      </trkpt>
      <trkpt lat="43.26228" lon="6.40412">
        <ele>303.41516113281</ele>
        <time>2022-01-01T12:29:07Z</time>
      </trkpt>
      <trkpt lat="43.26222" lon="6.40426">
        <ele>305.84585571289</ele>
        <time>2022-01-01T12:29:15Z</time>
      </trkpt>
      <trkpt lat="43.26221" lon="6.40442">
        <ele>308.5612487793</ele>
        <time>2022-01-01T12:29:23Z</time>
      </trkpt>
      <trkpt lat="43.26228" lon="6.40456">
        <ele>308.96047973633</ele>
        <time>2022-01-01T12:29:33Z</time>
      </trkpt>
      <trkpt lat="43.26235" lon="6.40462">
        <ele>311.50308227539</ele>
        <time>2022-01-01T12:29:39Z</time>
      </trkpt>
      <trkpt lat="43.26244" lon="6.4047">
        <ele>311.68853759766</ele>
        <time>2022-01-01T12:29:45Z</time>
      </trkpt>
      <trkpt lat="43.26262" lon="6.4048">
        <ele>314.5432434082</ele>
        <time>2022-01-01T12:29:55Z</time>
      </trkpt>
      <trkpt lat="43.26275" lon="6.40487">
        <ele>318.34375</ele>
        <time>2022-01-01T12:30:03Z</time>
      </trkpt>
      <trkpt lat="43.26283" lon="6.40493">
        <ele>318.46960449219</ele>
        <time>2022-01-01T12:30:09Z</time>
      </trkpt>
      <trkpt lat="43.26289" lon="6.40502">
        <ele>318.54983520508</ele>
        <time>2022-01-01T12:30:13Z</time>
      </trkpt>
      <trkpt lat="43.26294" lon="6.40514">
        <ele>310.75579833984</ele>
        <time>2022-01-01T12:30:17Z</time>
      </trkpt>
      <trkpt lat="43.26299" lon="6.40526">
        <ele>310.83026123047</ele>
        <time>2022-01-01T12:30:21Z</time>
      </trkpt>
      <trkpt lat="43.26313" lon="6.40529">
        <ele>313.75253295898</ele>
        <time>2022-01-01T12:30:29Z</time>
      </trkpt>
      <trkpt lat="43.26323" lon="6.4053">
        <ele>313.76113891602</ele>
        <time>2022-01-01T12:30:33Z</time>
      </trkpt>
      <trkpt lat="43.26339" lon="6.40533">
        <ele>315.21984863281</ele>
        <time>2022-01-01T12:30:41Z</time>
      </trkpt>
      <trkpt lat="43.26355" lon="6.40547">
        <ele>315.29718017578</ele>
        <time>2022-01-01T12:30:49Z</time>
      </trkpt>
      <trkpt lat="43.26361" lon="6.40558">
        <ele>315.12652587891</ele>
        <time>2022-01-01T12:30:53Z</time>
      </trkpt>
      <trkpt lat="43.26369" lon="6.40571">
        <ele>315.19473266602</ele>
        <time>2022-01-01T12:30:59Z</time>
      </trkpt>
      <trkpt lat="43.26383" lon="6.40584">
        <ele>318.36505126953</ele>
        <time>2022-01-01T12:31:07Z</time>
      </trkpt>
      <trkpt lat="43.26393" lon="6.40596">
        <ele>318.55578613281</ele>
        <time>2022-01-01T12:31:15Z</time>
      </trkpt>
      <trkpt lat="43.264" lon="6.40606">
        <ele>315.94223022461</ele>
        <time>2022-01-01T12:31:19Z</time>
      </trkpt>
      <trkpt lat="43.26415" lon="6.40626">
        <ele>316.30014038086</ele>
        <time>2022-01-01T12:31:29Z</time>
      </trkpt>
      <trkpt lat="43.26413" lon="6.40643">
        <ele>315.80895996094</ele>
        <time>2022-01-01T12:31:37Z</time>
      </trkpt>
      <trkpt lat="43.26401" lon="6.40657">
        <ele>320.78900146484</ele>
        <time>2022-01-01T12:31:45Z</time>
      </trkpt>
      <trkpt lat="43.2639" lon="6.4066">
        <ele>320.83270263672</ele>
        <time>2022-01-01T12:31:49Z</time>
      </trkpt>
      <trkpt lat="43.26378" lon="6.40664">
        <ele>320.86486816406</ele>
        <time>2022-01-01T12:31:53Z</time>
      </trkpt>
      <trkpt lat="43.26368" lon="6.40684">
        <ele>323.82092285156</ele>
        <time>2022-01-01T12:32:01Z</time>
      </trkpt>
      <trkpt lat="43.26362" lon="6.407">
        <ele>323.95352172852</ele>
        <time>2022-01-01T12:32:07Z</time>
      </trkpt>
      <trkpt lat="43.26358" lon="6.40715">
        <ele>316.90719604492</ele>
        <time>2022-01-01T12:32:13Z</time>
      </trkpt>
      <trkpt lat="43.26352" lon="6.40737">
        <ele>316.93655395508</ele>
        <time>2022-01-01T12:32:21Z</time>
      </trkpt>
      <trkpt lat="43.26351" lon="6.40749">
        <ele>322.07315063477</ele>
        <time>2022-01-01T12:32:25Z</time>
      </trkpt>
      <trkpt lat="43.26349" lon="6.40771">
        <ele>322.33499145508</ele>
        <time>2022-01-01T12:32:33Z</time>
      </trkpt>
      <trkpt lat="43.26347" lon="6.40789">
        <ele>321.07556152344</ele>
        <time>2022-01-01T12:32:41Z</time>
      </trkpt>
      <trkpt lat="43.26342" lon="6.40804">
        <ele>329.79397583008</ele>
        <time>2022-01-01T12:32:49Z</time>
      </trkpt>
      <trkpt lat="43.26337" lon="6.40825">
        <ele>329.96209716797</ele>
        <time>2022-01-01T12:32:57Z</time>
      </trkpt>
      <trkpt lat="43.26332" lon="6.40849">
        <ele>327.83969116211</ele>
        <time>2022-01-01T12:33:07Z</time>
      </trkpt>
      <trkpt lat="43.26324" lon="6.40862">
        <ele>335.05221557617</ele>
        <time>2022-01-01T12:33:13Z</time>
      </trkpt>
      <trkpt lat="43.2631" lon="6.40875">
        <ele>335.32461547852</ele>
        <time>2022-01-01T12:33:21Z</time>
      </trkpt>
      <trkpt lat="43.26301" lon="6.40884">
        <ele>334.21072387695</ele>
        <time>2022-01-01T12:33:27Z</time>
      </trkpt>
      <trkpt lat="43.26292" lon="6.40897">
        <ele>334.31591796875</ele>
        <time>2022-01-01T12:33:35Z</time>
      </trkpt>
      <trkpt lat="43.26293" lon="6.40919">
        <ele>333.62252807617</ele>
        <time>2022-01-01T12:33:43Z</time>
      </trkpt>
      <trkpt lat="43.26302" lon="6.40932">
        <ele>333.68206787109</ele>
        <time>2022-01-01T12:33:49Z</time>
      </trkpt>
      <trkpt lat="43.26316" lon="6.40929">
        <ele>337.59240722656</ele>
        <time>2022-01-01T12:33:55Z</time>
      </trkpt>
      <trkpt lat="43.26328" lon="6.40935">
        <ele>337.62649536133</ele>
        <time>2022-01-01T12:34:01Z</time>
      </trkpt>
      <trkpt lat="43.26339" lon="6.4095">
        <ele>343.01449584961</ele>
        <time>2022-01-01T12:34:09Z</time>
      </trkpt>
      <trkpt lat="43.26343" lon="6.40964">
        <ele>343.04666137695</ele>
        <time>2022-01-01T12:34:13Z</time>
      </trkpt>
      <trkpt lat="43.26347" lon="6.40986">
        <ele>340.09866333008</ele>
        <time>2022-01-01T12:34:19Z</time>
      </trkpt>
      <trkpt lat="43.26351" lon="6.41">
        <ele>340.1178894043</ele>
        <time>2022-01-01T12:34:23Z</time>
      </trkpt>
      <trkpt lat="43.26359" lon="6.41012">
        <ele>340.22692871094</ele>
        <time>2022-01-01T12:34:27Z</time>
      </trkpt>
      <trkpt lat="43.26365" lon="6.41022">
        <ele>342.05862426758</ele>
        <time>2022-01-01T12:34:31Z</time>
      </trkpt>
      <trkpt lat="43.26372" lon="6.41033">
        <ele>342.18545532227</ele>
        <time>2022-01-01T12:34:35Z</time>
      </trkpt>
      <trkpt lat="43.26382" lon="6.41046">
        <ele>341.96633911133</ele>
        <time>2022-01-01T12:34:43Z</time>
      </trkpt>
      <trkpt lat="43.26387" lon="6.41056">
        <ele>342.11334228516</ele>
        <time>2022-01-01T12:34:47Z</time>
      </trkpt>
      <trkpt lat="43.26398" lon="6.41073">
        <ele>343.45288085938</ele>
        <time>2022-01-01T12:34:55Z</time>
      </trkpt>
      <trkpt lat="43.2641" lon="6.41096">
        <ele>343.73583984375</ele>
        <time>2022-01-01T12:35:05Z</time>
      </trkpt>
      <trkpt lat="43.26417" lon="6.41122">
        <ele>346.10055541992</ele>
        <time>2022-01-01T12:35:13Z</time>
      </trkpt>
      <trkpt lat="43.26416" lon="6.41138">
        <ele>346.15103149414</ele>
        <time>2022-01-01T12:35:17Z</time>
      </trkpt>
      <trkpt lat="43.26412" lon="6.41159">
        <ele>348.82189941406</ele>
        <time>2022-01-01T12:35:25Z</time>
      </trkpt>
      <trkpt lat="43.26417" lon="6.41172">
        <ele>348.7868347168</ele>
        <time>2022-01-01T12:35:29Z</time>
      </trkpt>
      <trkpt lat="43.26433" lon="6.4118">
        <ele>353.97659301758</ele>
        <time>2022-01-01T12:35:37Z</time>
      </trkpt>
      <trkpt lat="43.2645" lon="6.41187">
        <ele>346.57022094727</ele>
        <time>2022-01-01T12:35:45Z</time>
      </trkpt>
      <trkpt lat="43.2646" lon="6.41188">
        <ele>346.61343383789</ele>
        <time>2022-01-01T12:35:49Z</time>
      </trkpt>
      <trkpt lat="43.26481" lon="6.41191">
        <ele>346.60626220703</ele>
        <time>2022-01-01T12:35:55Z</time>
      </trkpt>
      <trkpt lat="43.26493" lon="6.41199">
        <ele>348.64785766602</ele>
        <time>2022-01-01T12:35:59Z</time>
      </trkpt>
      <trkpt lat="43.26503" lon="6.41213">
        <ele>348.64880371094</ele>
        <time>2022-01-01T12:36:03Z</time>
      </trkpt>
      <trkpt lat="43.26506" lon="6.41231">
        <ele>348.64880371094</ele>
        <time>2022-01-01T12:36:07Z</time>
      </trkpt>
      <trkpt lat="43.26507" lon="6.41248">
        <ele>345.05758666992</ele>
        <time>2022-01-01T12:36:11Z</time>
      </trkpt>
      <trkpt lat="43.26511" lon="6.41264">
        <ele>345.02014160156</ele>
        <time>2022-01-01T12:36:19Z</time>
      </trkpt>
      <trkpt lat="43.26528" lon="6.41273">
        <ele>346.31579589844</ele>
        <time>2022-01-01T12:36:27Z</time>
      </trkpt>
      <trkpt lat="43.26546" lon="6.41277">
        <ele>348.98977661133</ele>
        <time>2022-01-01T12:36:35Z</time>
      </trkpt>
      <trkpt lat="43.26568" lon="6.41292">
        <ele>349.11703491211</ele>
        <time>2022-01-01T12:36:45Z</time>
      </trkpt>
      <trkpt lat="43.26579" lon="6.41293">
        <ele>349.75</ele>
        <time>2022-01-01T12:36:49Z</time>
      </trkpt>
      <trkpt lat="43.2659" lon="6.41288">
        <ele>349.74853515625</ele>
        <time>2022-01-01T12:36:53Z</time>
      </trkpt>
      <trkpt lat="43.26598" lon="6.41278">
        <ele>349.8551940918</ele>
        <time>2022-01-01T12:36:57Z</time>
      </trkpt>
      <trkpt lat="43.26616" lon="6.41279">
        <ele>354.31826782227</ele>
        <time>2022-01-01T12:37:07Z</time>
      </trkpt>
      <trkpt lat="43.26624" lon="6.41285">
        <ele>354.37976074219</ele>
        <time>2022-01-01T12:37:11Z</time>
      </trkpt>
      <trkpt lat="43.26628" lon="6.41297">
        <ele>350.96389770508</ele>
        <time>2022-01-01T12:37:15Z</time>
      </trkpt>
      <trkpt lat="43.2663" lon="6.41311">
        <ele>351.02200317383</ele>
        <time>2022-01-01T12:37:19Z</time>
      </trkpt>
      <trkpt lat="43.26624" lon="6.41337">
        <ele>356.08099365234</ele>
        <time>2022-01-01T12:37:29Z</time>
      </trkpt>
      <trkpt lat="43.26621" lon="6.41364">
        <ele>356.09924316406</ele>
        <time>2022-01-01T12:37:37Z</time>
      </trkpt>
      <trkpt lat="43.2662" lon="6.41383">
        <ele>355.42581176758</ele>
        <time>2022-01-01T12:37:41Z</time>
      </trkpt>
      <trkpt lat="43.26617" lon="6.41399">
        <ele>355.43353271484</ele>
        <time>2022-01-01T12:37:45Z</time>
      </trkpt>
      <trkpt lat="43.26619" lon="6.41423">
        <ele>355.36529541016</ele>
        <time>2022-01-01T12:37:51Z</time>
      </trkpt>
      <trkpt lat="43.26617" lon="6.41447">
        <ele>352.68786621094</ele>
        <time>2022-01-01T12:37:57Z</time>
      </trkpt>
      <trkpt lat="43.26611" lon="6.41468">
        <ele>352.77145385742</ele>
        <time>2022-01-01T12:38:03Z</time>
      </trkpt>
      <trkpt lat="43.26609" lon="6.41483">
        <ele>355.56289672852</ele>
        <time>2022-01-01T12:38:07Z</time>
      </trkpt>
      <trkpt lat="43.26609" lon="6.41498">
        <ele>355.62390136719</ele>
        <time>2022-01-01T12:38:11Z</time>
      </trkpt>
      <trkpt lat="43.26607" lon="6.41513">
        <ele>355.74496459961</ele>
        <time>2022-01-01T12:38:15Z</time>
      </trkpt>
      <trkpt lat="43.26603" lon="6.41533">
        <ele>359.19863891602</ele>
        <time>2022-01-01T12:38:23Z</time>
      </trkpt>
      <trkpt lat="43.266" lon="6.41551">
        <ele>358.76956176758</ele>
        <time>2022-01-01T12:38:31Z</time>
      </trkpt>
      <trkpt lat="43.2659" lon="6.41582">
        <ele>358.99392700195</ele>
        <time>2022-01-01T12:38:41Z</time>
      </trkpt>
      <trkpt lat="43.26585" lon="6.416">
        <ele>357.64999389648</ele>
        <time>2022-01-01T12:38:49Z</time>
      </trkpt>
      <trkpt lat="43.26575" lon="6.41618">
        <ele>357.68896484375</ele>
        <time>2022-01-01T12:38:57Z</time>
      </trkpt>
      <trkpt lat="43.26571" lon="6.4163">
        <ele>357.89309692383</ele>
        <time>2022-01-01T12:39:03Z</time>
      </trkpt>
      <trkpt lat="43.26564" lon="6.41643">
        <ele>360.45928955078</ele>
        <time>2022-01-01T12:39:11Z</time>
      </trkpt>
      <trkpt lat="43.26563" lon="6.41667">
        <ele>360.50588989258</ele>
        <time>2022-01-01T12:39:19Z</time>
      </trkpt>
      <trkpt lat="43.26563" lon="6.4169">
        <ele>357.35696411133</ele>
        <time>2022-01-01T12:39:27Z</time>
      </trkpt>
      <trkpt lat="43.2656" lon="6.41706">
        <ele>357.40692138672</ele>
        <time>2022-01-01T12:39:33Z</time>
      </trkpt>
      <trkpt lat="43.26557" lon="6.41719">
        <ele>361.50494384766</ele>
        <time>2022-01-01T12:39:39Z</time>
      </trkpt>
      <trkpt lat="43.26555" lon="6.41735">
        <ele>361.73651123047</ele>
        <time>2022-01-01T12:39:45Z</time>
      </trkpt>
      <trkpt lat="43.26553" lon="6.41751">
        <ele>365.94509887695</ele>
        <time>2022-01-01T12:39:51Z</time>
      </trkpt>
      <trkpt lat="43.26546" lon="6.4177">
        <ele>366.19299316406</ele>
        <time>2022-01-01T12:39:59Z</time>
      </trkpt>
      <trkpt lat="43.26533" lon="6.41788">
        <ele>368.24172973633</ele>
        <time>2022-01-01T12:40:09Z</time>
      </trkpt>
      <trkpt lat="43.26525" lon="6.41794">
        <ele>368.26718139648</ele>
        <time>2022-01-01T12:40:13Z</time>
      </trkpt>
      <trkpt lat="43.2651" lon="6.41806">
        <ele>373.75543212891</ele>
        <time>2022-01-01T12:40:21Z</time>
      </trkpt>
      <trkpt lat="43.26496" lon="6.41809">
        <ele>378.6423034668</ele>
        <time>2022-01-01T12:40:29Z</time>
      </trkpt>
      <trkpt lat="43.26487" lon="6.41811">
        <ele>378.76577758789</ele>
        <time>2022-01-01T12:40:35Z</time>
      </trkpt>
      <trkpt lat="43.26473" lon="6.41811">
        <ele>384.1296081543</ele>
        <time>2022-01-01T12:40:43Z</time>
      </trkpt>
      <trkpt lat="43.26464" lon="6.4181">
        <ele>384.22909545898</ele>
        <time>2022-01-01T12:40:47Z</time>
      </trkpt>
      <trkpt lat="43.26455" lon="6.41808">
        <ele>384.36456298828</ele>
        <time>2022-01-01T12:40:53Z</time>
      </trkpt>
      <trkpt lat="43.26441" lon="6.41808">
        <ele>380.23495483398</ele>
        <time>2022-01-01T12:40:59Z</time>
      </trkpt>
      <trkpt lat="43.26429" lon="6.41808">
        <ele>380.27291870117</ele>
        <time>2022-01-01T12:41:05Z</time>
      </trkpt>
      <trkpt lat="43.26419" lon="6.41799">
        <ele>386.90228271484</ele>
        <time>2022-01-01T12:41:11Z</time>
      </trkpt>
      <trkpt lat="43.26404" lon="6.41788">
        <ele>387.12326049805</ele>
        <time>2022-01-01T12:41:19Z</time>
      </trkpt>
      <trkpt lat="43.26392" lon="6.41781">
        <ele>380.69775390625</ele>
        <time>2022-01-01T12:41:27Z</time>
      </trkpt>
      <trkpt lat="43.26381" lon="6.41779">
        <ele>380.39147949219</ele>
        <time>2022-01-01T12:41:35Z</time>
      </trkpt>
      <trkpt lat="43.2637" lon="6.41775">
        <ele>380.62545776367</ele>
        <time>2022-01-01T12:41:41Z</time>
      </trkpt>
      <trkpt lat="43.26357" lon="6.41771">
        <ele>382.98379516602</ele>
        <time>2022-01-01T12:41:49Z</time>
      </trkpt>
      <trkpt lat="43.26342" lon="6.41755">
        <ele>383.24658203125</ele>
        <time>2022-01-01T12:41:59Z</time>
      </trkpt>
      <trkpt lat="43.26328" lon="6.41749">
        <ele>384.33285522461</ele>
        <time>2022-01-01T12:42:07Z</time>
      </trkpt>
      <trkpt lat="43.26319" lon="6.41745">
        <ele>384.3664855957</ele>
        <time>2022-01-01T12:42:11Z</time>
      </trkpt>
      <trkpt lat="43.2631" lon="6.41741">
        <ele>390.43142700195</ele>
        <time>2022-01-01T12:42:15Z</time>
      </trkpt>
      <trkpt lat="43.26294" lon="6.41737">
        <ele>390.60824584961</ele>
        <time>2022-01-01T12:42:23Z</time>
      </trkpt>
      <trkpt lat="43.26282" lon="6.4173">
        <ele>395.50372314453</ele>
        <time>2022-01-01T12:42:29Z</time>
      </trkpt>
      <trkpt lat="43.2627" lon="6.4171">
        <ele>395.77850341797</ele>
        <time>2022-01-01T12:42:39Z</time>
      </trkpt>
      <trkpt lat="43.26258" lon="6.41701">
        <ele>392.24404907227</ele>
        <time>2022-01-01T12:42:47Z</time>
      </trkpt>
      <trkpt lat="43.26242" lon="6.41699">
        <ele>395.30752563477</ele>
        <time>2022-01-01T12:42:57Z</time>
      </trkpt>
      <trkpt lat="43.26232" lon="6.41701">
        <ele>395.33779907227</ele>
        <time>2022-01-01T12:43:01Z</time>
      </trkpt>
      <trkpt lat="43.26222" lon="6.417">
        <ele>395.40069580078</ele>
        <time>2022-01-01T12:43:05Z</time>
      </trkpt>
      <trkpt lat="43.26209" lon="6.41697">
        <ele>403.97225952148</ele>
        <time>2022-01-01T12:43:11Z</time>
      </trkpt>
      <trkpt lat="43.26199" lon="6.41693">
        <ele>404.07748413086</ele>
        <time>2022-01-01T12:43:15Z</time>
      </trkpt>
      <trkpt lat="43.26186" lon="6.41692">
        <ele>397.49053955078</ele>
        <time>2022-01-01T12:43:23Z</time>
      </trkpt>
      <trkpt lat="43.26192" lon="6.4168">
        <ele>399.53359985352</ele>
        <time>2022-01-01T12:43:41Z</time>
      </trkpt>
      <trkpt lat="43.26172" lon="6.41684">
        <ele>402.88931274414</ele>
        <time>2022-01-01T12:44:17Z</time>
      </trkpt>
      <trkpt lat="43.26158" lon="6.4166">
        <ele>403.3938293457</ele>
        <time>2022-01-01T12:44:27Z</time>
      </trkpt>
      <trkpt lat="43.26152" lon="6.41646">
        <ele>403.23239135742</ele>
        <time>2022-01-01T12:44:31Z</time>
      </trkpt>
      <trkpt lat="43.26144" lon="6.41631">
        <ele>403.1882019043</ele>
        <time>2022-01-01T12:44:35Z</time>
      </trkpt>
      <trkpt lat="43.26138" lon="6.41617">
        <ele>396.87490844727</ele>
        <time>2022-01-01T12:44:39Z</time>
      </trkpt>
      <trkpt lat="43.26125" lon="6.41587">
        <ele>396.70529174805</ele>
        <time>2022-01-01T12:44:45Z</time>
      </trkpt>
      <trkpt lat="43.26119" lon="6.4156">
        <ele>396.52563476562</ele>
        <time>2022-01-01T12:44:49Z</time>
      </trkpt>
      <trkpt lat="43.26112" lon="6.41538">
        <ele>396.44842529297</ele>
        <time>2022-01-01T12:44:53Z</time>
      </trkpt>
      <trkpt lat="43.26108" lon="6.41506">
        <ele>396.31774902344</ele>
        <time>2022-01-01T12:44:57Z</time>
      </trkpt>
      <trkpt lat="43.26099" lon="6.41477">
        <ele>396.28366088867</ele>
        <time>2022-01-01T12:45:01Z</time>
      </trkpt>
      <trkpt lat="43.26093" lon="6.41459">
        <ele>386.73315429688</ele>
        <time>2022-01-01T12:45:05Z</time>
      </trkpt>
      <trkpt lat="43.26082" lon="6.41439">
        <ele>386.71780395508</ele>
        <time>2022-01-01T12:45:09Z</time>
      </trkpt>
      <trkpt lat="43.26073" lon="6.41428">
        <ele>386.78314208984</ele>
        <time>2022-01-01T12:45:13Z</time>
      </trkpt>
      <trkpt lat="43.26063" lon="6.41417">
        <ele>388.74884033203</ele>
        <time>2022-01-01T12:45:17Z</time>
      </trkpt>
      <trkpt lat="43.26041" lon="6.41394">
        <ele>388.68734741211</ele>
        <time>2022-01-01T12:45:23Z</time>
      </trkpt>
      <trkpt lat="43.26028" lon="6.41378">
        <ele>388.67919921875</ele>
        <time>2022-01-01T12:45:27Z</time>
      </trkpt>
      <trkpt lat="43.26016" lon="6.41361">
        <ele>394.92010498047</ele>
        <time>2022-01-01T12:45:31Z</time>
      </trkpt>
      <trkpt lat="43.26001" lon="6.41349">
        <ele>394.89605712891</ele>
        <time>2022-01-01T12:45:35Z</time>
      </trkpt>
      <trkpt lat="43.25989" lon="6.41343">
        <ele>394.8235168457</ele>
        <time>2022-01-01T12:45:39Z</time>
      </trkpt>
      <trkpt lat="43.25979" lon="6.41334">
        <ele>391.96099853516</ele>
        <time>2022-01-01T12:45:43Z</time>
      </trkpt>
      <trkpt lat="43.25969" lon="6.41328">
        <ele>391.90716552734</ele>
        <time>2022-01-01T12:45:47Z</time>
      </trkpt>
      <trkpt lat="43.25956" lon="6.41318">
        <ele>391.82983398438</ele>
        <time>2022-01-01T12:45:53Z</time>
      </trkpt>
      <trkpt lat="43.2595" lon="6.41302">
        <ele>390.93368530273</ele>
        <time>2022-01-01T12:45:57Z</time>
      </trkpt>
      <trkpt lat="43.25943" lon="6.41286">
        <ele>390.64450073242</ele>
        <time>2022-01-01T12:46:01Z</time>
      </trkpt>
      <trkpt lat="43.25933" lon="6.41269">
        <ele>390.5993347168</ele>
        <time>2022-01-01T12:46:05Z</time>
      </trkpt>
      <trkpt lat="43.25923" lon="6.41251">
        <ele>389.67797851562</ele>
        <time>2022-01-01T12:46:09Z</time>
      </trkpt>
      <trkpt lat="43.2591" lon="6.41222">
        <ele>389.59634399414</ele>
        <time>2022-01-01T12:46:13Z</time>
      </trkpt>
      <trkpt lat="43.25895" lon="6.41198">
        <ele>389.30422973633</ele>
        <time>2022-01-01T12:46:17Z</time>
      </trkpt>
      <trkpt lat="43.25877" lon="6.41176">
        <ele>378.83529663086</ele>
        <time>2022-01-01T12:46:21Z</time>
      </trkpt>
      <trkpt lat="43.25858" lon="6.41158">
        <ele>378.7262878418</ele>
        <time>2022-01-01T12:46:25Z</time>
      </trkpt>
      <trkpt lat="43.25851" lon="6.4112">
        <ele>378.42938232422</ele>
        <time>2022-01-01T12:46:29Z</time>
      </trkpt>
      <trkpt lat="43.25843" lon="6.41076">
        <ele>375.27346801758</ele>
        <time>2022-01-01T12:46:33Z</time>
      </trkpt>
      <trkpt lat="43.25831" lon="6.41018">
        <ele>374.75894165039</ele>
        <time>2022-01-01T12:46:39Z</time>
      </trkpt>
      <trkpt lat="43.25824" lon="6.41001">
        <ele>374.62442016602</ele>
        <time>2022-01-01T12:46:41Z</time>
      </trkpt>
      <trkpt lat="43.25815" lon="6.40968">
        <ele>381.30404663086</ele>
        <time>2022-01-01T12:46:45Z</time>
      </trkpt>
      <trkpt lat="43.25805" lon="6.40927">
        <ele>380.99703979492</ele>
        <time>2022-01-01T12:46:49Z</time>
      </trkpt>
      <trkpt lat="43.25799" lon="6.40892">
        <ele>380.85870361328</ele>
        <time>2022-01-01T12:46:53Z</time>
      </trkpt>
      <trkpt lat="43.2579" lon="6.40899">
        <ele>370.51220703125</ele>
        <time>2022-01-01T12:46:59Z</time>
      </trkpt>
      <trkpt lat="43.25792" lon="6.40928">
        <ele>370.28884887695</ele>
        <time>2022-01-01T12:47:03Z</time>
      </trkpt>
      <trkpt lat="43.25794" lon="6.40986">
        <ele>369.83389282227</ele>
        <time>2022-01-01T12:47:09Z</time>
      </trkpt>
      <trkpt lat="43.25807" lon="6.41024">
        <ele>369.10772705078</ele>
        <time>2022-01-01T12:47:13Z</time>
      </trkpt>
      <trkpt lat="43.25807" lon="6.41062">
        <ele>368.78732299805</ele>
        <time>2022-01-01T12:47:17Z</time>
      </trkpt>
      <trkpt lat="43.25797" lon="6.41121">
        <ele>368.6081237793</ele>
        <time>2022-01-01T12:47:23Z</time>
      </trkpt>
      <trkpt lat="43.25792" lon="6.41156">
        <ele>357.44921875</ele>
        <time>2022-01-01T12:47:27Z</time>
      </trkpt>
      <trkpt lat="43.25799" lon="6.41201">
        <ele>357.22583007812</ele>
        <time>2022-01-01T12:47:31Z</time>
      </trkpt>
      <trkpt lat="43.25811" lon="6.4123">
        <ele>356.36010742188</ele>
        <time>2022-01-01T12:47:35Z</time>
      </trkpt>
      <trkpt lat="43.25814" lon="6.41243">
        <ele>348.33758544922</ele>
        <time>2022-01-01T12:47:39Z</time>
      </trkpt>
      <trkpt lat="43.25801" lon="6.41226">
        <ele>348.109375</ele>
        <time>2022-01-01T12:47:43Z</time>
      </trkpt>
      <trkpt lat="43.25788" lon="6.41202">
        <ele>348.06085205078</ele>
        <time>2022-01-01T12:47:47Z</time>
      </trkpt>
      <trkpt lat="43.25779" lon="6.41179">
        <ele>350.04302978516</ele>
        <time>2022-01-01T12:47:51Z</time>
      </trkpt>
      <trkpt lat="43.25771" lon="6.41136">
        <ele>349.99453735352</ele>
        <time>2022-01-01T12:47:57Z</time>
      </trkpt>
      <trkpt lat="43.25784" lon="6.41086">
        <ele>348.38946533203</ele>
        <time>2022-01-01T12:48:05Z</time>
      </trkpt>
      <trkpt lat="43.25784" lon="6.41054">
        <ele>348.34573364258</ele>
        <time>2022-01-01T12:48:09Z</time>
      </trkpt>
      <trkpt lat="43.25765" lon="6.41027">
        <ele>348.22323608398</ele>
        <time>2022-01-01T12:48:13Z</time>
      </trkpt>
      <trkpt lat="43.25744" lon="6.41007">
        <ele>350.31875610352</ele>
        <time>2022-01-01T12:48:17Z</time>
      </trkpt>
      <trkpt lat="43.25719" lon="6.40989">
        <ele>349.92190551758</ele>
        <time>2022-01-01T12:48:21Z</time>
      </trkpt>
      <trkpt lat="43.25702" lon="6.40973">
        <ele>349.85705566406</ele>
        <time>2022-01-01T12:48:25Z</time>
      </trkpt>
      <trkpt lat="43.25687" lon="6.40956">
        <ele>338.99502563477</ele>
        <time>2022-01-01T12:48:29Z</time>
      </trkpt>
      <trkpt lat="43.25671" lon="6.40948">
        <ele>338.66497802734</ele>
        <time>2022-01-01T12:48:35Z</time>
      </trkpt>
      <trkpt lat="43.25671" lon="6.40929">
        <ele>338.69958496094</ele>
        <time>2022-01-01T12:48:39Z</time>
      </trkpt>
      <trkpt lat="43.25674" lon="6.40907">
        <ele>337.03231811523</ele>
        <time>2022-01-01T12:48:43Z</time>
      </trkpt>
      <trkpt lat="43.25679" lon="6.40891">
        <ele>337.12454223633</ele>
        <time>2022-01-01T12:48:47Z</time>
      </trkpt>
      <trkpt lat="43.25675" lon="6.40876">
        <ele>337.15145874023</ele>
        <time>2022-01-01T12:48:51Z</time>
      </trkpt>
      <trkpt lat="43.25666" lon="6.40865">
        <ele>343.96096801758</ele>
        <time>2022-01-01T12:48:55Z</time>
      </trkpt>
      <trkpt lat="43.25659" lon="6.40853">
        <ele>344.07336425781</ele>
        <time>2022-01-01T12:48:59Z</time>
      </trkpt>
      <trkpt lat="43.25644" lon="6.40839">
        <ele>344.12286376953</ele>
        <time>2022-01-01T12:49:05Z</time>
      </trkpt>
      <trkpt lat="43.25631" lon="6.40842">
        <ele>344.86758422852</ele>
        <time>2022-01-01T12:49:09Z</time>
      </trkpt>
      <trkpt lat="43.25616" lon="6.4085">
        <ele>344.88391113281</ele>
        <time>2022-01-01T12:49:15Z</time>
      </trkpt>
      <trkpt lat="43.25605" lon="6.40857">
        <ele>344.97329711914</ele>
        <time>2022-01-01T12:49:19Z</time>
      </trkpt>
      <trkpt lat="43.25595" lon="6.40865">
        <ele>346.98434448242</ele>
        <time>2022-01-01T12:49:23Z</time>
      </trkpt>
      <trkpt lat="43.25573" lon="6.40872">
        <ele>347.05541992188</ele>
        <time>2022-01-01T12:49:29Z</time>
      </trkpt>
      <trkpt lat="43.25555" lon="6.40855">
        <ele>344.72290039062</ele>
        <time>2022-01-01T12:49:35Z</time>
      </trkpt>
      <trkpt lat="43.25548" lon="6.40845">
        <ele>344.81466674805</ele>
        <time>2022-01-01T12:49:39Z</time>
      </trkpt>
      <trkpt lat="43.2554" lon="6.40815">
        <ele>344.91696166992</ele>
        <time>2022-01-01T12:49:45Z</time>
      </trkpt>
      <trkpt lat="43.25535" lon="6.40791">
        <ele>340.48699951172</ele>
        <time>2022-01-01T12:49:51Z</time>
      </trkpt>
      <trkpt lat="43.25535" lon="6.40775">
        <ele>340.60998535156</ele>
        <time>2022-01-01T12:49:55Z</time>
      </trkpt>
      <trkpt lat="43.2553" lon="6.40756">
        <ele>347.94848632812</ele>
        <time>2022-01-01T12:49:59Z</time>
      </trkpt>
      <trkpt lat="43.25524" lon="6.40746">
        <ele>348.01669311523</ele>
        <time>2022-01-01T12:50:03Z</time>
      </trkpt>
      <trkpt lat="43.25514" lon="6.40741">
        <ele>348.16848754883</ele>
        <time>2022-01-01T12:50:07Z</time>
      </trkpt>
      <trkpt lat="43.25501" lon="6.40743">
        <ele>350.36544799805</ele>
        <time>2022-01-01T12:50:11Z</time>
      </trkpt>
      <trkpt lat="43.25492" lon="6.40742">
        <ele>350.44088745117</ele>
        <time>2022-01-01T12:50:15Z</time>
      </trkpt>
      <trkpt lat="43.25475" lon="6.40745">
        <ele>350.54751586914</ele>
        <time>2022-01-01T12:50:19Z</time>
      </trkpt>
      <trkpt lat="43.25465" lon="6.40746">
        <ele>353.32437133789</ele>
        <time>2022-01-01T12:50:23Z</time>
      </trkpt>
      <trkpt lat="43.25455" lon="6.40749">
        <ele>353.41662597656</ele>
        <time>2022-01-01T12:50:27Z</time>
      </trkpt>
      <trkpt lat="43.25439" lon="6.40749">
        <ele>353.46319580078</ele>
        <time>2022-01-01T12:50:31Z</time>
      </trkpt>
      <trkpt lat="43.25428" lon="6.40747">
        <ele>347.65014648438</ele>
        <time>2022-01-01T12:50:35Z</time>
      </trkpt>
      <trkpt lat="43.2541" lon="6.40753">
        <ele>347.62658691406</ele>
        <time>2022-01-01T12:50:41Z</time>
      </trkpt>
      <trkpt lat="43.25397" lon="6.40763">
        <ele>349.56448364258</ele>
        <time>2022-01-01T12:50:49Z</time>
      </trkpt>
      <trkpt lat="43.25382" lon="6.40761">
        <ele>349.79602050781</ele>
        <time>2022-01-01T12:50:57Z</time>
      </trkpt>
      <trkpt lat="43.25369" lon="6.40755">
        <ele>356.00848388672</ele>
        <time>2022-01-01T12:51:05Z</time>
      </trkpt>
      <trkpt lat="43.25356" lon="6.40749">
        <ele>356.45227050781</ele>
        <time>2022-01-01T12:51:19Z</time>
      </trkpt>
      <trkpt lat="43.25338" lon="6.40752">
        <ele>348.80712890625</ele>
        <time>2022-01-01T12:51:27Z</time>
      </trkpt>
      <trkpt lat="43.25322" lon="6.4076">
        <ele>348.68078613281</ele>
        <time>2022-01-01T12:51:33Z</time>
      </trkpt>
      <trkpt lat="43.2533" lon="6.40756">
        <ele>347.43896484375</ele>
        <time>2022-01-01T12:51:45Z</time>
      </trkpt>
      <trkpt lat="43.2534" lon="6.40758">
        <ele>347.49276733398</ele>
        <time>2022-01-01T12:51:51Z</time>
      </trkpt>
      <trkpt lat="43.25356" lon="6.40757">
        <ele>349.09921264648</ele>
        <time>2022-01-01T12:51:59Z</time>
      </trkpt>
      <trkpt lat="43.25369" lon="6.40757">
        <ele>349.88317871094</ele>
        <time>2022-01-01T12:52:07Z</time>
      </trkpt>
      <trkpt lat="43.25395" lon="6.40763">
        <ele>349.38354492188</ele>
        <time>2022-01-01T12:52:17Z</time>
      </trkpt>
      <trkpt lat="43.25404" lon="6.40758">
        <ele>351.7746887207</ele>
        <time>2022-01-01T12:52:21Z</time>
      </trkpt>
      <trkpt lat="43.25412" lon="6.40766">
        <ele>351.78189086914</ele>
        <time>2022-01-01T12:52:29Z</time>
      </trkpt>
    </trkseg>
  </trk>
</gpx>